[[{"header":{"parameterUnit":"m.s-1","parameterCategory":1,"la1":31.0,"la2":29.5877,"lo1":-88.7671,"lo2":-86.6584,"dy":0.0162,"dx":0.0185,"nx":115,"ny":88,"refTime":"2025-03-27T12:00:00:Z","depth":0,"parameterNumber":2,"parameterNumberName":"U-component_of_WINDS"},"data":[0.0,0.0,0.0,0.0,0.0,0.0,0.0,0.0,0.0,0.0,0.0,0.0,0.0,0.0,0.0,0.0,0.0,0.0,0.0,0.0,0.0,0.0,0.0,0.0,0.0,0.0,0.0,0.0,0.0,0.0,0.0,0.0,0.0,0.0,0.0,0.0,0.0,0.0,0.0,0.0,0.0,0.0,0.0,0.0,0.0,0.0,0.0,0.0,0.0,0.0,0.0,0.0,0.0,0.0,0.0,0.0,0.0,0.0,0.0,0.0,0.0,0.0,0.0,0.0,0.0,0.0,0.0,0.0,0.0,0.0,0.0,0.0,0.0,0.0,0.0,0.0,0.0,0.0,0.0,0.0,0.0,0.0,0.0,0.0,0.0,0.0,0.0,0.0,0.0,0.0,0.0,0.0,0.0,0.0,0.0,0.0,0.0,0.0,0.0,0.0,0.0,0.0,0.0,0.0,0.0,0.0,0.0,0.0,0.0,0.0,0.0,0.0,0.0,0.0,0.0,0.0,0.0,0.0,0.0,0.0,0.0,0.0,0.0,0.0,0.0,0.0,0.0,0.0,0.0,0.0,0.0,0.0,0.0,0.0,0.0,0.0,0.0,0.0,0.0,0.0,0.0,0.0,0.0,0.0,0.0,0.0,0.0,0.0,0.0,0.0,0.0,0.0,0.0,0.0,0.0,0.0,0.0,0.0,0.0,0.0,0.0,0.0,0.0,0.0,0.0,0.0,0.0,0.0,0.0,0.0,0.0,0.0,0.0,0.0,0.0,0.0,0.0,0.0,0.0,0.0,0.0,0.0,0.0,0.0,0.0,0.0,0.0,0.0,0.0,0.0,0.0,0.0,0.0,0.0,0.0,0.0,0.0,0.0,0.0,0.0,0.0,0.0,0.0,0.0,0.0,0.0,0.0,0.0,0.0,0.0,0.0,0.0,0.0,0.0,0.0,0.0,0.0,0.0,0.0,0.0,0.0,0.0,0.0,0.0,0.0,0.0,0.0,0.0,0.0,0.0,0.0,0.0,0.0,0.0,0.0,0.0,0.0,0.0,0.0,0.0,0.0,0.0,0.0,0.0,0.0,0.0,0.0,0.0,0.0,0.0,0.0,0.0,0.0,0.0,0.0,0.0,0.0,0.0,0.0,0.0,0.0,0.0,0.0,0.0,0.0,0.0,0.0,0.0,0.0,0.0,0.0,0.0,0.0,0.0,0.0,0.0,0.0,0.0,0.0,0.0,0.0,0.0,0.0,0.0,0.0,0.0,0.0,0.0,0.0,0.0,0.0,0.0,0.0,0.0,0.0,0.0,0.0,0.0,0.0,0.0,0.0,0.0,0.0,0.0,0.0,0.0,0.0,0.0,0.0,0.0,0.0,0.0,0.0,0.0,0.0,0.0,0.0,0.0,0.0,0.0,0.0,0.0,0.0,0.0,0.0,0.0,0.0,0.0,0.0,0.0,0.0,0.0,0.0,0.0,0.0,0.0,0.0,0.0,0.0,0.0,0.0,0.0,0.0,0.0,0.0,0.0,0.0,0.0,0.0,0.0,0.0,0.0,0.0,0.0,0.0,0.0,0.0,0.0,0.0,0.0,0.0,0.0,0.0,0.0,0.0,0.0,0.0,0.0,0.0,0.0,0.0,0.0,0.0,0.0,0.0,0.0,0.0,0.0,0.0,0.0,0.0,0.0,0.0,0.0,0.0,0.0,0.0,0.0,0.0,0.0,0.0,0.0,0.0,0.0,0.0,0.0,0.0,0.0,0.0,0.0,0.0,0.0,0.0,0.0,0.0,0.0,0.0,0.0,0.0,0.0,0.0,0.0,0.0,0.0,0.0,0.0,0.0,0.0,0.0,0.0,0.0,0.0,0.0,0.0,0.0,0.0,0.0,0.0,0.0,0.0,0.0,0.0,0.0,0.0,0.0,0.0,0.0,0.0,0.0,0.0,0.0,0.0,0.0,0.0,0.0,0.0,0.0,0.0,0.0,0.0,0.0,0.0,0.0,0.0,0.0,0.0,0.0,0.0,0.0,0.0,0.0,0.0,0.0,0.0,0.0,0.0,0.0,0.0,0.0,0.0,0.0,0.0,0.0,0.0,0.0,0.0,0.0,0.0,0.0,0.0,0.0,0.0,0.0,0.0,0.0,0.0,0.0,0.0,0.0,0.0,0.0,0.0,0.0,0.0,0.0,0.0,0.0,0.0,0.0,0.0,0.0,0.0,0.0,0.0,0.0,0.0,0.0,0.0,0.0,0.0,0.0,0.0,0.0,0.0,0.0,0.0,0.0,0.0,0.0,0.0,0.0,0.0,0.0,0.0,0.0,0.0,0.0,0.0,0.0,0.0,0.0,0.0,0.0,0.0,0.0,0.0,0.0,0.0,0.0,0.0,0.0,0.0,0.0,0.0,0.0,0.0,0.0,0.0,0.0,0.0,0.0,0.0,0.0,0.0,0.0,0.0,0.0,0.0,0.0,0.0,0.0,0.0,0.0,0.0,0.0,0.0,0.0,0.0,0.0,0.0,0.0,0.0,0.0,0.0,0.0,0.0,0.0,0.0,0.0,0.0,0.0,0.0,0.0,0.0,0.0,0.0,0.0,0.0,0.0,0.0,0.0,0.0,0.0,0.0,0.0,0.0,0.0,0.0,0.0,0.0,0.0,0.0,0.0,0.0,0.0,0.0,0.0,0.0,0.0,0.0,0.0,0.0,0.0,0.0,0.0,0.0,0.0,0.0,0.0,0.0,0.0,0.0,0.0,0.0,0.0,0.0,0.0,0.0,0.0,0.0,0.0,0.0,0.0,0.0,0.0,0.0,0.0,0.0,0.0,0.0,0.0,0.0,0.0,0.0,0.0,0.0,0.0,0.0,0.0,0.0,0.0,0.0,0.0,0.0,0.0,0.0,0.0,0.0,0.0,0.0,0.0,0.0,0.0,0.0,0.0,0.0,0.0,0.0,0.0,0.0,0.0,0.0,0.0,0.0,0.0,0.0,0.0,0.0,0.0,0.0,0.0,0.0,0.0,0.0,0.0,0.0,0.0,0.0,0.0,0.0,0.0,0.0,0.0,0.0,0.0,0.0,0.0,0.0,0.0,0.0,0.0,0.0,0.0,0.0,0.0,0.0,0.0,0.0,0.0,0.0,0.0,0.0,0.0,0.0,0.0,0.0,0.0,0.0,0.0,0.0,0.0,0.0,0.0,0.0,0.0,0.0,0.0,0.0,0.0,0.0,0.0,0.0,0.0,0.0,0.0,0.0,0.0,0.0,0.0,0.0,0.0,0.0,0.0,0.0,0.0,0.0,0.0,0.0,0.0,0.0,0.0,0.0,0.0,0.0,0.0,0.0,0.0,0.0,0.0,0.0,0.0,0.0,0.0,0.0,0.0,0.0,0.0,0.0,0.0,0.0,0.0,0.0,0.0,0.0,0.0,0.0,0.0,0.0,0.0,0.0,0.0,0.0,0.0,0.0,0.0,0.0,0.0,0.0,0.0,0.0,0.0,0.0,0.0,0.0,0.0,0.0,0.0,0.0,0.0,0.0,0.0,0.0,0.0,0.0,0.0,0.0,0.0,0.0,0.0,0.0,0.0,0.0,0.0,0.0,0.0,0.0,0.0,0.0,0.0,0.0,0.0,0.0,0.0,0.0,0.0,0.0,0.0,0.0,0.0,0.0,0.0,0.0,0.0,0.0,0.0,0.0,0.0,0.0,0.0,0.0,0.0,0.0,0.0,0.0,0.0,0.0,0.0,0.0,0.0,0.0,0.0,0.0,0.0,0.0,0.0,0.0,0.0,0.0,0.0,0.0,0.0,0.0,0.0,0.0,0.0,0.0,0.0,0.0,0.0,0.0,0.0,0.0,0.0,0.0,0.0,0.0,0.0,0.0,0.0,0.0,0.0,0.0,0.0,0.0,0.0,0.0,0.0,0.0,0.0,0.0,0.0,0.0,0.0,0.0,0.0,0.0,0.0,0.0,0.0,0.0,0.0,0.0,0.0,0.0,0.0,0.0,0.0,0.0,0.0,0.0,0.0,0.0,0.0,0.0,0.0,0.0,0.0,0.0,0.0,0.0,0.0,0.0,0.0,0.0,0.0,0.0,0.0,0.0,0.0,0.0,0.0,0.0,0.0,0.0,0.0,0.0,0.0,0.0,0.0,0.0,0.0,0.0,0.0,0.0,0.0,0.0,0.0,0.0,0.0,0.0,0.0,0.0,0.0,0.0,0.0,0.0,0.0,0.0,0.0,0.0,0.0,0.0,0.0,0.0,0.0,0.0,1.656,0.0,0.0,0.0,0.0,0.0,0.0,0.0,0.0,0.0,0.0,0.0,0.0,0.0,0.0,0.0,0.0,0.0,0.0,0.0,0.0,0.0,0.0,0.0,0.0,0.0,0.0,0.0,0.0,0.0,0.0,0.0,0.0,0.0,0.0,0.0,0.0,0.0,0.0,0.0,0.0,0.0,0.0,0.0,0.0,0.0,0.0,0.0,0.0,0.0,0.0,0.0,0.0,0.0,0.0,0.0,0.0,0.0,0.0,0.0,0.0,0.0,0.0,0.0,0.0,0.0,0.0,0.0,0.0,0.0,0.0,0.0,0.0,0.0,0.0,0.0,0.0,0.0,0.0,0.0,0.0,0.0,0.0,0.0,0.0,0.0,0.0,0.0,0.0,0.0,0.0,0.0,0.0,0.0,0.0,0.0,0.0,0.0,0.0,0.0,0.0,0.0,0.0,0.0,0.0,0.0,0.0,0.0,0.0,0.0,0.0,1.7318,1.7475,1.7784,1.7588,1.6884,0.0,0.0,0.0,0.0,0.0,0.0,0.0,0.0,0.0,0.0,0.0,0.0,0.0,0.0,0.0,0.0,0.0,0.0,0.0,0.0,0.0,0.0,0.0,0.0,0.0,0.0,0.0,0.0,0.0,0.0,0.0,0.0,0.0,0.0,0.0,0.0,0.0,0.0,0.0,0.0,0.0,0.0,0.0,0.0,0.0,0.0,0.0,0.0,0.0,0.0,0.0,0.0,0.0,0.0,0.0,0.0,0.0,0.0,0.0,0.0,0.0,0.0,0.0,0.0,0.0,0.0,0.0,0.0,0.0,0.0,0.0,0.0,0.0,0.0,0.0,0.0,0.0,0.0,0.0,0.0,0.0,0.0,0.0,0.0,0.0,0.0,0.0,0.0,0.0,0.0,0.0,0.0,0.0,0.0,0.0,0.0,0.0,0.0,0.0,0.0,0.0,0.0,0.0,0.0,0.0,0.0,0.0,0.0,0.0,0.0,0.0,0.0,1.711,1.7152,1.7134,0.0,0.0,0.0,0.0,0.0,0.0,0.0,0.0,0.0,0.0,0.0,0.0,0.0,0.0,0.0,0.0,0.0,0.0,0.0,0.0,0.0,0.0,0.0,0.0,0.0,0.0,0.0,0.0,0.0,0.0,0.0,0.0,0.0,0.0,0.0,0.0,0.0,0.0,0.0,0.0,0.0,0.0,0.0,0.0,0.0,0.0,0.0,0.0,0.0,0.0,0.0,0.0,0.0,0.0,0.0,0.0,0.0,0.0,0.0,0.0,0.0,0.0,0.0,0.0,0.0,0.0,0.0,0.0,0.0,0.0,0.0,0.0,0.0,0.0,0.0,0.0,0.0,0.0,0.0,0.0,0.0,0.0,0.0,0.0,0.0,0.0,0.0,0.0,0.0,0.0,0.0,0.0,0.0,0.0,0.0,0.0,0.0,0.0,0.0,0.0,0.0,0.0,0.0,0.0,0.0,0.0,0.0,0.0,0.0,0.0,1.6979,1.6584,1.7269,0.0,1.7034,0.0,0.0,0.0,0.0,0.0,0.0,0.0,0.0,0.0,0.0,0.0,0.0,0.0,0.0,0.0,0.0,0.0,0.0,0.0,0.0,0.0,0.0,0.0,0.0,0.0,0.0,0.0,0.0,0.0,0.0,0.0,0.0,0.0,0.0,0.0,0.0,0.0,0.0,0.0,0.0,0.0,0.0,0.0,0.0,0.0,0.0,0.0,0.0,0.0,0.0,0.0,0.0,0.0,0.0,0.0,0.0,0.0,0.0,0.0,0.0,0.0,0.0,0.0,0.0,0.0,0.0,0.0,0.0,0.0,0.0,0.0,0.0,0.0,0.0,0.0,0.0,0.0,0.0,0.0,0.0,0.0,0.0,0.0,0.0,0.0,0.0,0.0,0.0,0.0,0.0,0.0,0.0,0.0,0.0,0.0,0.0,0.0,0.0,0.0,0.0,0.0,0.0,0.0,0.0,0.0,0.0,0.0,0.0,0.0,0.0,0.0,1.6509,1.6467,1.636,0.0,0.0,0.0,0.0,0.0,0.0,0.0,0.0,0.0,0.0,0.0,0.0,0.0,0.0,0.0,0.0,0.0,0.0,0.0,0.0,0.0,0.0,0.0,0.0,0.0,0.0,0.0,0.0,0.0,0.0,0.0,0.0,0.0,0.0,0.0,0.0,0.0,0.0,0.0,0.0,0.0,0.0,0.0,0.0,0.0,0.0,0.0,0.0,0.0,0.0,0.0,0.0,0.0,0.0,0.0,0.0,0.0,0.0,0.0,0.0,0.0,0.0,0.0,0.0,0.0,0.0,0.0,0.0,0.0,0.0,0.0,0.0,0.0,0.0,0.0,0.0,0.0,0.0,0.0,0.0,0.0,0.0,0.0,0.0,0.0,0.0,0.0,0.0,0.0,0.0,0.0,0.0,0.0,0.0,0.0,0.0,0.0,0.0,0.0,0.0,0.0,0.0,0.0,0.0,0.0,0.0,0.0,0.0,0.0,0.0,1.549,0.0,1.6184,1.5834,1.5539,1.5351,0.0,0.0,0.0,0.0,0.0,0.0,0.0,0.0,0.0,0.0,0.0,0.0,0.0,0.0,0.0,0.0,0.0,0.0,0.0,0.0,0.0,0.0,0.0,0.0,0.0,0.0,0.0,0.0,0.0,0.0,0.0,0.0,0.0,0.0,0.0,0.0,0.0,0.0,0.0,0.0,0.0,0.0,0.0,0.0,0.0,0.0,0.0,0.0,0.0,0.0,0.0,0.0,0.0,0.0,0.0,0.0,0.0,0.0,0.0,0.0,0.0,0.0,0.0,0.0,0.0,0.0,0.0,0.0,0.0,0.0,0.0,0.0,0.0,0.0,0.0,0.0,0.0,0.0,0.0,0.0,0.0,0.0,0.0,0.0,0.0,0.0,0.0,0.0,0.0,0.0,0.0,0.0,0.0,0.0,0.0,0.0,0.0,0.0,0.0,0.0,0.0,0.0,0.0,0.0,0.0,0.0,0.0,0.0,0.0,1.5642,1.5636,1.556,1.5646,1.5364,0.0,0.0,0.0,0.0,0.0,0.0,0.0,0.0,0.0,0.0,0.0,0.0,0.0,0.0,0.0,0.0,0.0,0.0,0.0,0.0,0.0,0.0,0.0,0.0,0.0,0.0,0.0,0.0,0.0,0.0,0.0,0.0,0.0,0.0,0.0,0.0,0.0,0.0,0.0,0.0,0.0,0.0,0.0,0.0,0.0,0.0,0.0,0.0,0.0,0.0,0.0,0.0,0.0,0.0,0.0,0.0,0.0,0.0,0.0,0.0,0.0,0.0,0.0,0.0,0.0,0.0,0.0,0.0,0.0,0.0,0.0,0.0,0.0,0.0,0.0,0.0,0.0,0.0,0.0,0.0,0.0,0.0,0.0,0.0,0.0,0.0,0.0,0.0,0.0,0.0,0.0,0.0,0.0,0.0,0.0,0.0,0.0,0.0,0.0,0.0,0.0,0.0,0.0,0.0,0.0,0.0,0.0,0.0,0.0,1.4505,1.4961,1.5319,1.5594,1.493,1.4579,0.0,0.0,0.0,0.0,0.0,0.0,0.0,0.0,0.0,0.0,0.0,0.0,0.0,0.0,0.0,0.0,0.0,0.0,0.0,0.0,0.0,0.0,0.0,0.0,0.0,0.0,0.0,0.0,0.0,0.0,0.0,0.0,0.0,0.0,0.0,0.0,0.0,0.0,0.0,0.0,0.0,0.0,0.0,0.0,0.0,0.0,0.0,0.0,0.0,0.0,0.0,0.0,0.0,0.0,0.0,0.0,0.0,0.0,0.0,0.0,0.0,0.0,0.0,0.0,0.0,0.0,0.0,0.0,0.0,0.0,0.0,0.0,0.0,0.0,0.0,0.0,0.0,0.0,0.0,0.0,0.0,0.0,0.0,0.0,0.0,0.0,0.0,0.0,0.0,0.0,0.0,0.0,0.0,0.0,0.0,0.0,0.0,0.0,0.0,0.0,0.0,0.0,0.0,0.0,0.0,0.0,0.0,0.0,0.0,1.4265,0.0,1.532,0.0,1.4733,1.425,0.0,0.0,0.0,0.0,0.0,0.0,0.0,0.0,0.0,0.0,0.0,0.0,0.0,0.0,0.0,0.0,0.0,0.0,0.0,0.0,0.0,0.0,0.0,0.0,0.0,0.0,0.0,0.0,0.0,0.0,0.0,0.0,0.0,0.0,0.0,0.0,0.0,0.0,0.0,0.0,0.0,0.0,0.0,0.0,0.0,0.0,0.0,0.0,0.0,0.0,0.0,0.0,0.0,0.0,0.0,0.0,0.0,0.0,0.0,0.0,0.0,0.0,0.0,0.0,0.0,0.0,0.0,0.0,0.0,0.0,0.0,0.0,0.0,0.0,0.0,0.0,0.0,0.0,0.0,0.0,0.0,0.0,0.0,0.0,0.0,0.0,0.0,0.0,0.0,0.0,0.0,0.0,0.0,0.0,0.0,0.0,0.0,0.0,0.0,0.0,0.0,0.0,0.0,0.0,0.0,0.0,0.0,0.0,1.3641,1.5035,1.5591,1.5679,1.5238,1.5156,1.4483,0.0,0.0,0.0,0.0,0.0,0.0,0.0,0.0,0.0,0.0,0.0,0.0,0.0,0.0,0.0,0.0,0.0,0.0,0.0,0.0,0.0,0.0,0.0,0.0,0.0,0.0,0.0,0.0,0.0,0.0,0.0,0.0,0.0,0.0,0.0,0.0,0.0,0.0,0.0,0.0,0.0,0.0,0.0,0.0,0.0,0.0,0.0,0.0,0.0,0.0,0.0,0.0,0.0,0.0,0.0,0.0,0.0,0.0,0.0,0.0,0.0,0.0,0.0,0.0,0.0,0.0,0.0,0.0,0.0,0.0,0.0,0.0,0.0,0.0,0.0,0.0,0.0,0.0,0.0,0.0,0.0,0.0,0.0,0.0,0.0,0.0,0.0,0.0,0.0,0.0,0.0,0.0,0.0,0.0,0.0,0.0,0.0,0.0,0.0,0.0,0.0,0.0,0.0,0.0,0.0,0.0,0.0,0.0,0.0,1.5278,1.5507,1.5889,1.6375,1.5702,1.5105,0.0,0.0,0.0,0.0,0.0,0.0,0.0,0.0,0.0,0.0,0.0,0.0,0.0,0.0,0.0,0.0,0.0,0.0,0.0,0.0,0.0,0.0,0.0,0.0,0.0,0.0,0.0,0.0,0.0,0.0,0.0,0.0,0.0,0.0,0.0,0.0,0.0,0.0,0.0,0.0,0.0,0.0,0.0,0.0,0.0,0.0,0.0,0.0,0.0,0.0,0.0,0.0,0.0,0.0,0.0,0.0,0.0,0.0,0.0,0.0,0.0,0.0,0.0,0.0,0.0,0.0,0.0,0.0,0.0,0.0,0.0,0.0,0.0,0.0,0.0,0.0,0.0,0.0,0.0,0.0,0.0,0.0,0.0,0.0,0.0,0.0,0.0,0.0,0.0,0.0,0.0,0.0,0.0,0.0,0.0,0.0,0.0,0.0,0.0,0.0,0.0,0.0,0.0,0.0,0.0,0.0,0.0,0.0,0.0,1.6402,1.6262,1.6419,1.696,1.6265,1.5645,1.514,0.0,0.0,0.0,0.0,0.0,0.0,0.0,0.0,0.0,0.0,0.0,0.0,0.0,0.0,0.0,0.0,0.0,0.0,0.0,0.0,0.0,0.0,0.0,0.0,0.0,0.0,0.0,0.0,0.0,0.0,0.0,0.0,0.0,0.0,0.0,0.0,0.0,0.0,0.0,0.0,0.0,0.0,0.0,0.0,0.0,0.0,0.0,0.0,0.0,0.0,0.0,0.0,0.0,0.0,0.0,0.0,0.0,0.0,0.0,0.0,0.0,0.0,0.0,0.0,0.0,0.0,0.0,0.0,0.0,0.0,0.0,0.0,0.0,0.0,0.0,0.0,0.0,0.0,0.0,0.0,0.0,0.0,0.0,0.0,0.0,0.0,0.0,0.0,0.0,0.0,0.0,0.0,0.0,0.0,0.0,0.0,0.0,0.0,0.0,0.0,0.0,0.0,0.0,0.0,0.0,0.0,0.0,0.0,1.8247,1.7699,1.7289,1.7036,1.684,1.612,0.0,0.0,0.0,0.0,0.0,0.0,0.0,0.0,0.0,0.0,0.0,0.0,0.0,0.0,0.0,0.0,0.0,0.0,0.0,0.0,0.0,0.0,0.0,0.0,0.0,0.0,0.0,0.0,0.0,0.0,0.0,0.0,0.0,0.0,0.0,0.0,0.0,0.0,0.0,0.0,0.0,0.0,0.0,0.0,0.0,0.0,0.0,0.0,0.0,0.0,0.0,0.0,0.0,0.0,0.0,0.0,0.0,0.0,0.0,0.0,0.0,0.0,0.0,0.0,0.0,0.0,0.0,0.0,0.0,0.0,0.0,0.0,0.0,0.0,0.0,0.0,0.0,0.0,0.0,0.0,0.0,0.0,0.0,0.0,0.0,0.0,0.0,0.0,0.0,0.0,0.0,0.0,0.0,0.0,0.0,0.0,0.0,0.0,0.0,0.0,0.0,0.0,0.0,0.0,0.0,0.0,0.0,0.0,0.0,1.917,1.8996,1.8682,1.8298,1.7602,1.6729,0.0,0.0,0.0,0.0,0.0,0.0,0.0,0.0,0.0,0.0,0.0,0.0,0.0,0.0,0.0,0.0,0.0,0.0,0.0,0.0,0.0,0.0,0.0,0.0,0.0,0.0,0.0,0.0,0.0,0.0,0.0,0.0,0.0,0.0,0.0,0.0,0.0,0.0,0.0,0.0,0.0,0.0,0.0,0.0,0.0,0.0,0.0,0.0,0.0,0.0,0.0,0.0,0.0,0.0,0.0,0.0,0.0,0.0,0.0,0.0,0.0,0.0,0.0,0.0,0.0,0.0,0.0,0.0,0.0,0.0,0.0,0.0,0.0,0.0,0.0,0.0,0.0,0.0,0.0,0.0,0.0,0.0,0.0,0.0,0.0,0.0,0.0,0.0,0.0,0.0,0.0,0.0,0.0,0.0,0.0,0.0,0.0,0.0,0.0,0.0,0.0,0.0,0.0,0.0,0.0,0.0,0.0,0.0,1.8485,1.9566,1.9808,1.966,1.9161,1.8602,1.7726,0.0,0.0,0.0,0.0,0.0,0.0,0.0,0.0,0.0,0.0,0.0,0.0,0.0,0.0,0.0,0.0,0.0,0.0,0.0,0.0,0.0,0.0,0.0,0.0,0.0,0.0,0.0,0.0,0.0,0.0,0.0,0.0,0.0,0.0,0.0,0.0,0.0,0.0,0.0,0.0,0.0,0.0,0.0,0.0,0.0,0.0,0.0,0.0,0.0,0.0,0.0,0.0,0.0,0.0,0.0,0.0,0.0,0.0,0.0,0.0,0.0,0.0,0.0,0.0,0.0,0.0,0.0,0.0,0.0,0.0,0.0,0.0,0.0,0.0,0.0,0.0,0.0,0.0,0.0,0.0,0.0,0.0,0.0,0.0,0.0,0.0,0.0,0.0,0.0,0.0,0.0,0.0,0.0,0.0,0.0,0.0,0.0,0.0,0.0,0.0,0.0,0.0,0.0,0.0,0.0,0.0,0.0,0.0,1.8886,1.9799,2.04,2.0421,1.9822,1.9638,1.8734,0.0,0.0,0.0,0.0,0.0,0.0,0.0,0.0,0.0,0.0,0.0,0.0,0.0,0.0,0.0,0.0,0.0,0.0,0.0,0.0,0.0,0.0,0.0,0.0,0.0,0.0,0.0,0.0,0.0,0.0,0.0,0.0,0.0,0.0,0.0,0.0,0.0,0.0,0.0,0.0,0.0,0.0,0.0,0.0,0.0,0.0,0.0,0.0,0.0,0.0,0.0,0.0,0.0,0.0,0.0,0.0,0.0,0.0,0.0,0.0,0.0,0.0,0.0,0.0,0.0,0.0,0.0,0.0,0.0,0.0,0.0,0.0,0.0,0.0,0.0,0.0,0.0,0.0,0.0,0.0,0.0,0.0,0.0,0.0,0.0,0.0,0.0,0.0,0.0,0.0,0.0,0.0,0.0,0.0,0.0,0.0,0.0,0.0,0.0,0.0,0.0,0.0,0.0,0.0,0.0,0.0,0.0,0.0,1.9626,2.1131,2.1309,2.1321,2.1179,1.984,1.8406,0.0,0.0,0.0,0.0,0.0,0.0,0.0,0.0,0.0,0.0,0.0,0.0,0.0,0.0,0.0,0.0,0.0,0.0,0.0,0.0,0.0,0.0,0.0,0.0,0.0,0.0,0.0,0.0,0.0,0.0,0.0,0.0,0.0,0.0,0.0,0.0,0.0,0.0,0.0,0.0,0.0,0.0,0.0,0.0,0.0,0.0,0.0,0.0,1.6196,0.0,0.0,0.0,0.0,0.0,0.0,0.0,0.0,0.0,0.0,0.0,0.0,0.0,0.0,0.0,0.0,0.0,0.0,0.0,0.0,0.0,0.0,0.0,0.0,0.0,0.0,0.0,0.0,0.0,0.0,0.0,0.0,0.0,0.0,0.0,0.0,0.0,0.0,0.0,0.0,0.0,0.0,0.0,0.0,0.0,0.0,0.0,0.0,0.0,0.0,0.0,0.0,0.0,0.0,0.0,0.0,0.0,0.0,0.0,2.0145,2.1448,2.1765,2.1765,2.1472,2.0364,1.9077,0.0,0.0,0.0,0.0,0.0,0.0,0.0,0.0,0.0,0.0,0.0,0.0,0.0,0.0,0.0,0.0,0.0,0.0,0.0,0.0,0.0,0.0,0.0,0.0,0.0,0.0,0.0,0.0,0.0,0.0,0.0,0.0,0.0,0.0,0.0,0.0,0.0,0.0,0.0,0.0,0.0,0.0,0.0,0.0,0.0,0.0,0.0,0.0,0.0,0.0,0.0,0.0,0.0,0.0,0.0,0.0,0.0,0.0,0.0,0.0,0.0,0.0,0.0,0.0,0.0,0.0,0.0,0.0,0.0,0.0,0.0,0.0,0.0,0.0,0.0,0.0,0.0,0.0,0.0,0.0,0.0,0.0,0.0,0.0,0.0,0.0,0.0,0.0,0.0,0.0,0.0,0.0,0.0,0.0,0.0,0.0,0.0,0.0,0.0,0.0,0.0,0.0,0.0,0.0,0.0,0.0,0.0,1.9206,2.0413,2.1476,2.1957,2.1981,2.1536,2.092,1.9941,1.855,0.0,0.0,0.0,0.0,0.0,0.0,0.0,0.0,0.0,0.0,0.0,0.0,0.0,0.0,0.0,0.0,0.0,0.0,0.0,0.0,0.0,0.0,0.0,0.0,0.0,0.0,0.0,0.0,0.0,0.0,0.0,0.0,0.0,0.0,0.0,0.0,0.0,0.0,1.546,1.6975,0.0,0.0,0.0,0.0,0.0,0.0,0.0,0.0,1.6548,0.0,0.0,0.0,0.0,0.0,0.0,0.0,0.0,0.0,0.0,0.0,0.0,0.0,0.0,0.0,0.0,0.0,0.0,0.0,0.0,0.0,0.0,0.0,0.0,0.0,0.0,0.0,0.0,0.0,0.0,0.0,0.0,0.0,0.0,0.0,0.0,0.0,0.0,0.0,0.0,0.0,0.0,0.0,0.0,0.0,0.0,0.0,0.0,0.0,0.0,0.0,0.0,0.0,0.0,0.0,0.0,1.9388,1.9268,2.0097,2.202,2.2149,2.2149,2.2056,2.11,2.0069,1.8954,0.0,0.0,0.0,0.0,0.0,0.0,0.0,0.0,0.0,0.0,0.0,0.0,0.0,0.0,0.0,0.0,0.0,0.0,0.0,0.0,0.0,0.0,0.0,0.0,0.0,0.0,0.0,0.0,0.0,0.0,0.0,0.0,0.0,0.0,0.0,0.0,0.0,0.0,0.0,1.8202,1.915,0.0,0.0,0.0,0.0,0.0,0.0,0.0,0.0,1.5688,0.0,0.0,0.0,0.0,0.0,0.0,0.0,0.0,0.0,0.0,0.0,0.0,0.0,0.0,0.0,0.0,0.0,0.0,0.0,0.0,0.0,0.0,0.0,0.0,0.0,0.0,0.0,0.0,0.0,0.0,0.0,0.0,0.0,0.0,0.0,0.0,0.0,0.0,0.0,0.0,0.0,0.0,0.0,0.0,0.0,0.0,0.0,0.0,0.0,0.0,0.0,0.0,0.0,0.0,0.0,1.9317,1.9991,2.0863,2.2137,2.2197,2.2197,2.2161,2.0901,1.9805,0.0,0.0,0.0,0.0,0.0,0.0,0.0,0.0,0.0,0.0,0.0,0.0,0.0,0.0,0.0,0.0,0.0,0.0,0.0,0.0,0.0,0.0,0.0,0.0,0.0,0.0,0.0,0.0,0.0,0.0,0.0,0.0,0.0,0.0,0.0,0.0,0.0,0.0,0.0,0.0,1.8313,1.8921,2.0147,0.0,0.0,0.0,0.0,0.0,0.0,1.6671,1.6411,0.0,0.0,0.0,0.0,0.0,0.0,0.0,0.0,0.0,0.0,0.0,0.0,0.0,0.0,0.0,0.0,0.0,0.0,0.0,0.0,0.0,0.0,0.0,0.0,0.0,0.0,0.0,0.0,0.0,0.0,0.0,0.0,0.0,0.0,0.0,0.0,0.0,0.0,0.0,0.0,0.0,0.0,0.0,0.0,0.0,0.0,0.0,0.0,0.0,0.0,0.0,0.0,0.0,0.0,0.0,1.9093,2.0533,2.156,2.2161,2.2197,2.2197,2.2161,2.0733,1.9662,0.0,0.0,0.0,0.0,0.0,0.0,0.0,0.0,0.0,0.0,0.0,0.0,0.0,0.0,0.0,0.0,0.0,0.0,0.0,0.0,0.0,0.0,0.0,0.0,0.0,0.0,0.0,0.0,0.0,0.0,0.0,0.0,0.0,0.0,0.0,0.0,0.0,0.0,0.0,0.0,0.0,1.9127,2.0473,1.886,0.0,0.0,0.0,0.0,1.6866,1.7437,0.0,0.0,0.0,0.0,0.0,0.0,0.0,0.0,0.0,0.0,0.0,0.0,0.0,0.0,0.0,0.0,0.0,0.0,0.0,0.0,0.0,0.0,0.0,0.0,0.0,0.0,0.0,0.0,0.0,0.0,0.0,0.0,0.0,0.0,0.0,0.0,0.0,0.0,0.0,0.0,0.0,0.0,0.0,0.0,0.0,0.0,0.0,0.0,0.0,0.0,0.0,0.0,0.0,0.0,0.0,0.0,1.8952,2.0129,2.1199,2.2137,2.2197,2.2197,2.2185,2.1088,2.0045,0.0,0.0,0.0,0.0,0.0,0.0,0.0,0.0,0.0,0.0,0.0,0.0,0.0,0.0,0.0,0.0,0.0,0.0,0.0,0.0,0.0,0.0,0.0,0.0,0.0,0.0,0.0,0.0,0.0,0.0,0.0,0.0,0.0,0.0,0.0,0.0,0.0,0.0,0.0,0.0,0.0,2.1067,1.9249,1.8925,1.882,0.0,0.0,1.7738,1.8541,1.8778,0.0,0.0,0.0,0.0,0.0,0.0,0.0,0.0,0.0,0.0,0.0,0.0,0.0,0.0,0.0,0.0,0.0,0.0,0.0,0.0,0.0,0.0,0.0,0.0,0.0,0.0,0.0,0.0,0.0,0.0,0.0,0.0,0.0,0.0,0.0,0.0,0.0,0.0,0.0,0.0,0.0,0.0,0.0,0.0,0.0,0.0,0.0,0.0,0.0,0.0,0.0,0.0,0.0,0.0,0.0,1.6708,1.8588,2.0528,2.1728,2.2173,2.2197,2.2053,2.1753,2.0706,1.9636,0.0,0.0,0.0,0.0,0.0,0.0,0.0,0.0,0.0,0.0,0.0,0.0,0.0,0.0,0.0,0.0,0.0,0.0,0.0,0.0,0.0,0.0,0.0,0.0,0.0,0.0,0.0,0.0,0.0,0.0,0.0,0.0,0.0,0.0,0.0,0.0,0.0,0.0,0.0,0.0,0.0,0.0,2.0268,2.0097,0.0,0.0,0.0,1.8819,1.8983,0.0,0.0,0.0,0.0,0.0,0.0,0.0,0.0,0.0,0.0,0.0,0.0,0.0,0.0,0.0,0.0,0.0,0.0,0.0,0.0,0.0,0.0,0.0,0.0,0.0,0.0,0.0,0.0,0.0,0.0,0.0,0.0,0.0,0.0,0.0,0.0,0.0,0.0,0.0,0.0,0.0,0.0,0.0,0.0,0.0,0.0,0.0,0.0,0.0,0.0,0.0,0.0,0.0,0.0,0.0,0.0,0.0,1.8504,2.0929,2.2197,2.2197,2.2197,2.1933,2.1401,2.0478,0.0,0.0,0.0,0.0,0.0,0.0,0.0,0.0,0.0,0.0,0.0,0.0,0.0,0.0,0.0,0.0,0.0,0.0,0.0,0.0,0.0,0.0,0.0,0.0,0.0,0.0,0.0,0.8853,0.0,0.0,0.0,0.0,0.0,0.0,0.0,0.0,0.0,0.0,0.0,0.0,0.0,0.0,2.0326,2.0891,2.0946,2.1032,0.0,0.0,1.9874,1.9484,1.9647,1.9309,0.0,0.0,0.0,0.0,0.0,0.0,0.0,0.0,0.0,0.0,0.0,0.0,0.0,0.0,0.0,0.0,0.0,0.0,0.0,0.0,0.0,0.0,0.0,0.0,0.0,0.0,0.0,0.0,0.0,0.0,0.0,0.0,0.0,0.0,0.0,0.0,0.0,0.0,0.0,0.0,0.0,0.0,0.0,0.0,0.0,0.0,0.0,0.0,0.0,0.0,0.0,0.0,0.0,0.0,0.0,1.897,2.1103,2.2197,2.2197,2.2197,2.1945,2.1416,2.0851,1.9803,0.0,0.0,0.0,0.0,0.0,0.0,0.0,0.0,0.0,0.0,0.0,0.0,0.0,0.0,0.0,0.0,0.0,0.0,0.0,0.0,0.0,0.0,0.0,0.0,0.0,0.0,0.0,0.0,0.0,0.0,0.0,0.0,0.0,0.0,0.0,0.0,0.0,0.0,0.0,0.0,0.0,2.1064,1.9968,2.0804,2.1485,0.0,2.0935,2.0629,2.0604,2.1419,2.1204,1.8581,0.0,0.0,0.0,0.0,0.0,0.0,0.0,0.0,0.0,0.0,0.0,0.0,0.0,0.0,0.0,0.0,0.0,0.0,0.0,0.0,0.0,0.0,0.0,0.0,0.0,0.0,0.0,0.0,0.0,0.0,0.0,0.0,0.0,0.0,0.0,0.0,0.0,0.0,0.0,0.0,0.0,0.0,0.0,0.0,0.0,0.0,0.0,0.0,0.0,0.0,0.0,0.0,0.0,1.6967,1.8093,2.0798,2.2197,2.2197,2.2197,2.1789,2.092,2.0718,1.9545,0.0,0.0,0.0,0.0,0.0,0.0,0.0,0.0,0.0,0.0,0.0,0.0,0.0,0.0,0.0,0.0,0.0,0.0,0.0,0.0,0.0,0.0,0.0,0.0,0.0,0.0,0.0,0.0,1.0999,1.1649,1.2478,0.0,0.0,0.0,0.0,0.0,0.0,0.0,0.0,0.0,0.0,2.1511,2.1342,2.2034,0.0,0.0,2.1991,2.1583,2.1257,2.0941,2.0162,1.8468,1.7451,0.0,0.0,0.0,0.0,0.0,0.0,0.0,0.0,0.0,0.0,0.0,0.0,0.0,0.0,0.0,0.0,0.0,0.0,0.0,0.0,0.0,0.0,0.0,0.0,0.0,0.0,0.0,0.0,0.0,0.0,0.0,0.0,0.0,0.0,0.0,0.0,0.0,0.0,0.0,0.0,0.0,0.0,0.0,0.0,0.0,0.0,0.0,0.0,0.0,0.0,0.0,0.0,1.6866,1.7751,2.068,2.2197,2.2197,2.2197,2.1708,2.0656,2.061,1.9369,0.0,0.0,0.0,0.0,0.0,0.0,0.0,0.0,0.0,0.0,0.0,0.0,0.0,0.0,0.0,0.0,0.0,0.0,0.0,0.0,0.0,0.0,0.0,0.0,0.0,0.0,0.0,0.0,1.1697,1.2049,1.2081,0.0,0.0,0.0,0.0,0.0,0.0,0.0,0.0,0.0,0.0,2.1742,2.2229,2.2542,2.2787,2.3048,2.2364,2.1694,2.1319,2.0577,1.9635,1.8405,0.0,0.0,0.0,0.0,0.0,0.0,0.0,0.0,0.0,0.0,0.0,0.0,0.0,0.0,0.0,0.0,0.0,0.0,0.0,0.0,0.0,0.0,0.0,0.0,0.0,0.0,0.0,0.8845,0.0,0.0,0.9262,0.0,0.0,0.0,0.0,0.0,0.0,0.0,0.0,0.0,0.0,0.0,0.0,0.0,0.0,0.0,0.0,0.0,0.0,0.0,0.0,0.0,0.0,1.7311,1.829,2.0825,2.217,2.2182,2.2197,2.1662,2.0625,2.0586,1.9359,1.6744,0.0,0.0,0.0,0.0,0.0,0.0,0.0,0.0,0.0,0.0,0.0,0.0,0.0,0.0,0.0,0.0,0.0,0.0,0.0,0.0,0.0,0.0,0.0,0.0,0.0,0.0,1.1014,1.1186,1.0897,0.0,0.0,0.0,0.0,0.0,0.0,0.0,0.0,0.0,0.0,2.0385,2.1711,2.2236,2.1873,2.1988,2.2964,2.1784,2.0768,2.0768,2.0679,2.0113,0.0,0.0,0.0,0.0,0.0,0.0,0.0,0.0,0.0,0.0,0.0,0.0,0.0,0.0,0.0,0.0,0.0,0.0,0.0,0.0,0.0,0.0,0.0,0.0,0.0,0.0,0.0,1.0425,1.0591,0.0,0.0,0.0,0.0,0.0,0.0,0.0,0.0,0.0,0.0,0.0,1.452,1.4853,0.0,0.0,0.0,0.0,0.0,0.0,0.0,0.0,0.0,0.0,0.0,0.0,1.6681,1.7819,2.0219,2.1478,2.1463,2.1463,2.0907,1.9768,1.9475,1.8028,1.5264,0.0,0.0,0.0,0.0,0.0,0.0,0.0,0.0,0.0,0.0,0.0,0.0,0.0,0.0,0.0,0.0,0.0,0.0,0.0,0.0,0.0,0.0,0.0,0.0,0.0,1.0795,0.0,0.0,0.0,0.0,0.0,0.0,0.0,0.0,0.0,0.0,0.0,1.8759,1.991,2.1189,2.2219,2.2757,2.2696,2.2694,0.0,0.0,0.0,0.0,0.0,0.0,0.0,0.0,0.0,0.0,0.0,0.0,0.0,0.0,1.8477,1.666,1.6266,1.614,1.5927,0.0,0.0,0.0,0.0,0.0,0.0,0.0,0.0,0.0,0.0,0.0,0.0,0.0,0.0,1.1241,1.1383,1.13,0.0,0.0,0.0,0.0,0.0,0.0,0.0,0.0,1.5034,1.5476,1.5193,1.572,1.5685,0.0,1.5089,1.4543,0.0,0.0,0.0,0.0,0.0,0.0,0.0,0.0,1.6475,1.7412,1.9602,2.0752,2.0752,2.0752,2.0282,1.9318,1.8373,1.6889,1.4813,1.3841,1.3032,0.0,0.0,0.0,0.0,0.0,0.0,0.0,0.0,0.0,0.0,0.0,0.0,0.0,0.0,0.0,0.0,0.0,0.0,0.0,0.0,0.0,0.0,0.0,1.1437,0.0,0.0,0.0,0.0,0.0,0.0,0.0,0.0,0.0,1.6839,1.8288,1.9752,2.0953,2.1918,2.2662,2.3058,0.0,0.0,0.0,0.0,0.0,0.0,0.0,1.9898,1.9996,1.9634,1.951,2.0025,2.0603,2.0918,2.0729,0.0,0.0,1.8329,1.7873,1.778,1.777,1.8572,1.9267,1.9267,2.0016,2.0664,0.0,0.0,0.0,0.0,0.0,0.0,0.0,0.0,1.1087,1.121,0.0,1.1051,0.0,0.0,0.0,0.0,1.2346,1.3801,0.0,0.0,1.6289,1.6632,1.5884,1.6515,1.647,1.5831,1.6268,1.6076,1.5266,1.3418,0.0,0.0,0.0,0.0,0.0,0.0,1.6679,1.7149,1.905,2.0063,2.0047,2.0058,1.9802,1.917,1.7349,1.6037,1.5375,1.4535,1.3643,1.2709,1.2786,0.0,0.0,0.0,0.0,0.0,0.0,0.0,0.0,0.0,0.0,0.0,0.0,0.0,0.0,0.0,0.0,0.0,0.0,0.0,0.0,1.1963,0.0,0.0,0.0,0.0,0.0,0.0,0.0,0.0,0.0,0.0,1.7885,1.9245,2.066,2.1748,0.0,0.0,0.0,0.0,2.2506,2.299,2.2192,2.1531,2.1518,2.1468,2.1199,2.0574,0.0,0.0,2.0866,2.1206,2.1393,2.0893,2.1256,2.1382,2.0842,2.0188,1.9811,1.9836,2.0289,2.0704,2.0767,2.1158,2.1559,1.3152,0.0,0.0,0.0,0.0,1.1995,1.2415,1.3297,1.3136,1.2915,1.2618,1.2555,0.0,0.0,0.0,0.0,0.0,0.0,1.508,1.5422,1.676,1.7402,1.7413,1.764,1.7613,1.7395,1.698,1.6657,1.6381,1.5029,1.4003,1.3352,0.0,0.0,0.0,0.0,1.6286,1.719,1.849,1.9166,1.9166,1.9266,1.8714,1.7486,1.6808,1.5974,1.5014,1.4492,1.4083,1.3685,1.2934,0.0,0.0,0.0,0.0,0.0,0.0,0.0,0.0,0.0,0.0,0.0,0.0,0.0,0.0,0.0,0.0,0.0,0.0,0.0,1.1567,1.1963,1.2028,0.0,0.0,0.0,0.0,0.0,0.0,0.0,0.0,0.0,1.9743,2.0661,2.1396,0.0,0.0,2.2787,2.2939,2.2742,2.2644,2.279,2.2194,0.0,2.191,2.1238,2.0953,2.1647,2.2178,2.2417,2.2164,2.2337,2.2446,2.2284,2.2457,2.2581,2.2408,2.1656,2.1067,2.1055,2.1455,2.182,2.187,2.227,2.2619,1.419,1.336,1.3126,1.3113,1.33,1.3086,1.3476,1.4186,1.3904,1.368,1.3539,1.3305,1.2599,1.1614,1.1985,0.0,0.0,0.0,1.6256,1.6695,1.757,1.8008,1.8109,1.8265,1.8247,1.8072,1.7605,1.7376,1.7376,1.647,1.5667,1.4921,0.0,0.0,1.4554,1.5402,1.622,1.7043,1.786,1.8293,1.8283,1.8351,1.781,1.6647,1.6449,1.5915,1.4926,1.4678,1.4431,1.409,1.3353,1.2726,0.0,0.0,0.0,0.0,0.0,0.0,0.0,0.0,0.0,0.0,0.0,0.8643,0.779,0.0,0.0,0.0,1.0948,1.1865,1.2318,1.2568,0.0,0.0,0.0,0.0,0.0,0.0,0.0,1.8364,1.8975,1.9662,2.0878,2.1502,2.1931,2.2174,2.2423,2.2647,2.28,0.0,2.2708,2.2708,2.2395,2.2201,2.2308,2.1764,2.1597,2.2403,2.2685,2.2818,2.2784,2.2802,2.283,2.2833,2.2924,2.3017,2.3017,2.2527,2.2146,2.2146,2.2383,2.2608,2.2621,2.2869,2.3095,1.5075,1.5013,1.4471,1.4195,1.4183,1.4155,1.4176,1.4156,1.3854,1.3854,1.4041,1.352,1.3119,1.2879,1.381,0.0,1.6352,1.7062,1.7606,1.8052,1.8463,1.8492,1.8228,1.8567,1.8549,1.821,1.8164,1.8146,1.8109,1.7734,1.7245,1.6618,1.5535,1.5159,1.5538,1.5974,1.6404,1.6826,1.7245,1.7495,1.7505,1.7478,1.7147,1.6411,1.6256,1.5813,1.5032,1.4956,1.4703,1.4199,1.3852,1.3052,1.1741,0.0,0.0,0.0,0.0,0.0,0.0,0.0,0.0,0.0,0.0,0.0,0.0,0.0,0.0,0.0,1.2207,0.0,1.3516,1.3542,0.0,0.0,0.0,1.4505,1.5891,1.6975,1.8183,1.967,0.0,0.0,2.1449,2.1885,2.2232,2.2359,2.2389,2.2463,2.2721,2.2699,2.2702,2.2733,2.2699,2.2678,2.2613,2.2579,2.2588,2.2743,2.2754,2.2723,2.2787,2.2754,2.2678,2.2675,2.28,2.2878,2.2894,2.2922,2.3063,2.3015,2.3068,2.3083,2.307,2.3083,2.3095,1.5625,1.5588,1.5448,1.5164,1.4778,1.48,1.48,1.4794,1.4698,1.4464,1.4075,1.3941,1.3608,1.3145,1.3921,1.4486,1.4881,1.5944,1.684,1.7579,1.7974,1.8481,1.9007,1.9118,1.9109,1.8989,1.8715,1.8549,1.854,1.8155,1.788,1.7724,1.7439,1.6782,1.5846,1.6111,1.6485,1.6882,1.7146,1.734,1.7478,1.7478,1.7087,1.6259,1.6131,1.5723,1.5023,1.4758,1.4667,1.4751,1.3881,1.3104,1.2457,1.1692,0.0,0.0,0.0,0.0,0.0,0.0,0.0,0.0,0.0,0.97,0.8587,0.0,1.2008,0.0,1.3074,1.3864,1.3958,1.3958,0.0,0.0,1.5039,1.5635,1.7034,1.7489,1.832,1.9996,2.0406,2.0922,2.1884,2.2129,2.2216,2.2247,2.2247,2.2439,2.2987,2.2722,2.2578,2.2816,2.266,2.2478,2.2482,2.2601,2.2662,2.2528,2.2485,2.2436,2.2371,2.242,2.2478,2.2482,2.2632,2.2751,2.2739,2.2769,2.2833,2.2939,2.3017,2.3095,2.3095,2.3095,2.3095,1.5801,1.5801,1.5801,1.5621,1.5374,1.5374,1.5374,1.5337,1.5233,1.4992,1.4669,1.4558,1.4524,1.4594,1.4865,1.5253,1.5781,1.6177,1.6895,1.7837,1.796,1.8467,1.9273,1.9292,1.9292,1.9292,1.9062,1.8961,1.8943,1.8751,1.854,1.8366,1.8366,1.7862,1.6929,1.6851,1.6945,1.7156,1.7086,1.7116,1.722,1.722,1.6912,1.6233,1.5987,1.5589,1.5008,1.4508,1.4333,1.4489,1.3562,1.2815,1.235,1.1491,1.0361,0.0,0.0,0.0,0.0,0.0,0.0,0.0,0.0,0.0,0.0,0.0,1.2574,1.2759,1.3942,1.4669,1.4679,1.5016,1.5449,1.5942,1.6246,1.6839,1.7859,1.8488,1.9306,2.051,2.0939,2.1407,2.2103,2.2197,2.2197,2.2197,2.2197,2.2352,2.2632,2.2478,2.2402,2.259,2.2456,2.2309,2.2309,2.2463,2.2512,2.242,2.2405,2.2374,2.2309,2.2294,2.2309,2.2325,2.2451,2.2571,2.2558,2.2659,2.2736,2.28,2.2909,2.3002,2.3093,2.3095,2.3095,1.5801,1.5801,1.5801,1.5801,1.5801,1.5801,1.5801,1.5788,1.5558,1.5431,1.5378,1.5135,1.5419,1.6095,1.5821,1.6277,1.7221,1.686,1.723,1.8208,1.8138,1.8511,1.9273,1.9292,1.9292,1.9292,1.9292,1.9292,1.9292,1.9292,1.9118,1.8778,1.8769,1.8614,1.8256,1.7844,1.7614,1.7486,1.711,1.6908,1.6908,1.6908,1.6642,1.6165,1.5859,1.5426,1.4874,1.4304,1.3952,1.3892,1.3217,1.2554,1.1884,1.0851,0.9794,0.0,0.8131,0.0,0.0,0.0,0.0,0.0,0.0,0.0,0.0,1.2127,1.3366,1.3809,1.4878,1.5561,1.5571,1.6264,1.6716,1.6816,1.7255,1.7779,1.8306,1.9399,2.0361,2.0919,2.1616,2.2077,2.2197,2.2197,2.2197,2.2197,2.2197,2.2209,2.2213,2.2244,2.2268,2.2273,2.2234,2.2213,2.2213,2.2294,2.2359,2.2374,2.2374,2.2374,2.2374,2.2278,2.2197,2.2213,2.2309,2.2374,2.2374,2.2525,2.2616,2.2647,2.2754,2.2863,2.3017,2.308,2.3083,1.5801,1.5801,1.5801,1.5801,1.5801,1.5801,1.5801,1.5801,1.5748,1.5611,1.5378,1.5113,1.5091,1.5218,1.5193,1.5253,1.5524,1.6155,1.6779,1.7375,1.8121,1.8763,1.9271,1.9292,1.9292,1.9292,1.9292,1.9292,1.9292,1.9292,1.9265,1.9191,1.9182,1.9135,1.9063,0.0,0.0,0.0,1.7083,1.6908,1.6908,1.6908,1.6531,1.5831,1.5737,0.0,1.42,1.4293,1.424,1.3915,1.3764,0.0,0.0,0.0,0.0,0.0,0.0,0.0,0.0,0.0,0.0,0.0,1.2038,1.2416,1.1368,1.3383,1.4993,1.5571,1.6143,1.6469,1.6443,1.6605,1.6859,1.7223,1.736,1.7593,1.8041,1.8787,1.951,2.0204,2.088,2.1526,2.2046,2.2197,2.217,2.2139,2.2182,2.2197,2.2197,2.2278,2.247,2.2734,2.2454,2.2209,2.2197,2.2201,2.2247,2.2247,2.2232,2.2216,2.217,2.217,2.2166,2.2166,2.2216,2.2216,2.2232,2.2263,2.2355,2.2436,2.2469,2.2589,2.2866,2.3017,2.2982,1.5801,1.5801,1.5801,1.5801,0.0,1.5801,1.5801,1.5801,1.5801,1.5721,1.5605,1.5458,1.5398,1.5384,1.5244,1.5257,1.5417,1.609,1.6858,1.7688,1.8485,1.9231,1.9897,1.9685,1.9593,1.9584,1.9382,1.9292,1.9292,1.9292,1.9292,1.9292,1.9292,1.9292,1.9283,1.8916,1.8393,1.7798,1.7413,1.7193,1.7175,1.6992,1.6649,1.6115,1.5838,0.0,0.0,0.0,0.0,0.0,0.0,0.0,0.0,0.0,0.0,1.0025,0.9874,0.9936,1.0135,1.064,1.1292,1.2128,1.3349,1.3952,1.3591,1.4757,1.5741,1.6342,1.6797,1.7044,1.7044,1.723,1.7435,1.7666,1.7695,1.7793,1.801,1.8596,1.9144,1.9524,2.0166,2.0768,2.1115,2.1474,2.1636,2.1679,2.1972,2.2166,2.2213,2.2247,2.2399,2.259,2.2405,2.2197,2.2197,2.2182,2.2034,2.1773,2.1663,2.151,2.121,2.1178,2.1242,2.1557,2.1663,2.1741,2.2108,2.2197,2.2216,2.2294,2.2343,2.2436,2.2635,2.2772,2.2777,1.5801,1.5801,1.5801,1.5801,1.5801,1.5801,1.5801,1.5801,1.5801,0.0,0.0,1.5801,1.5801,1.5788,1.5555,1.5605,1.5839,1.6331,1.7049,1.7964,1.8701,1.9376,1.9966,1.9653,1.9548,1.962,1.9306,1.9207,1.9292,1.9292,1.9292,1.9292,1.9292,1.9292,1.9274,1.8981,1.864,1.8311,1.7853,1.7568,1.7495,1.7183,1.6849,1.6477,1.6038,1.5627,1.5275,1.4525,1.3767,1.3048,1.323,1.2979,1.2216,1.1741,1.1455,1.1305,1.0463,1.032,1.1186,1.1396,1.2119,1.355,1.4352,1.5111,1.5879,1.5943,1.6188,1.6796,1.7187,1.7437,1.7498,1.7825,1.8022,1.8012,1.8056,1.8027,1.8001,1.8586,1.9027,1.9077,1.9677,2.0112,2.0161,2.0597,2.0917,2.1008,2.1368,2.1894,2.1987,2.2092,2.2213,2.2234,2.2209,2.2197,2.2197,2.2197,2.1956,2.1526,2.1384,2.1087,2.064,2.0468,2.0704,2.1336,2.1305,2.1588,2.2061,2.2197,2.2197,2.2197,2.2278,2.2359,2.2374,2.2494,2.2454,1.5801,1.5801,1.5801,1.5801,1.5801,1.5801,1.5801,1.5801,1.5801,1.5801,1.5801,1.5801,1.5801,1.5801,1.5761,1.5768,1.5866,1.6764,1.7085,1.6964,1.7888,1.8218,1.8008,1.7943,1.8163,1.8583,1.8626,1.8853,1.925,1.9301,1.9292,1.9292,1.9292,1.9292,1.9292,1.9246,1.9191,1.9108,1.8393,1.7844,1.7504,1.7458,1.7055,1.6358,1.6257,1.5872,1.516,1.4983,1.4474,1.3496,1.3472,1.2914,1.1714,1.1552,1.126,1.0791,1.078,1.0877,1.107,1.1791,1.303,1.4732,1.5053,1.5507,1.6402,1.6492,1.6736,1.7311,1.7466,1.764,1.7954,1.8059,1.8115,1.8097,1.8185,1.8139,1.7852,1.8469,1.8961,1.8961,1.9655,2.0031,1.9982,2.0128,2.0226,2.0258,2.0544,2.0688,2.1352,2.1816,2.2151,2.2197,2.2197,2.2197,2.2197,2.2197,2.2092,2.2077,2.194,2.18,2.1596,2.1526,2.1632,2.1956,2.1894,2.2003,2.2182,2.2197,2.2197,2.2197,2.2216,2.2232,2.2247,2.2266,2.2089,1.5547,1.5434,1.5571,1.5635,1.5659,1.5761,1.5801,1.5801,1.5689,1.5706,1.5801,1.5801,1.5801,1.5801,1.5801,1.5801,1.5849,1.6833,1.7222,1.7106,1.8064,1.8425,1.8236,1.8024,1.7952,1.8043,1.8313,1.8509,1.8634,1.9054,1.9292,1.9292,1.9292,1.9292,1.9292,1.9292,1.9292,1.9283,1.8714,1.8228,1.7853,1.7614,1.722,1.6644,1.6441,1.6131,1.5755,1.5165,1.4426,1.3588,1.3483,1.2988,1.2065,1.1991,1.1876,1.1589,1.1333,1.1482,1.2048,1.3445,1.4611,1.5462,1.5895,1.6398,1.704,1.6983,1.7184,1.7754,1.7837,1.799,1.8379,1.8427,1.8472,1.8589,1.8415,1.8283,1.822,1.8286,1.8462,1.8479,1.8747,1.8954,1.8965,1.9276,1.9507,1.9546,2.0063,2.0864,2.1541,2.1604,2.1773,2.2108,2.2197,2.2197,2.2197,2.2197,2.2046,2.1679,2.1588,2.1447,2.1178,2.1083,2.1257,2.1537,2.1632,2.1773,2.2065,2.2197,2.2197,2.2197,2.2197,2.2197,2.2173,2.2027,2.1895,1.5291,1.5131,1.5309,1.5404,1.5428,1.5571,1.5642,1.5618,1.5475,1.5547,1.5713,1.573,1.5761,1.5801,1.5801,1.5801,1.5927,1.6598,1.6951,1.7044,1.7777,1.8118,1.8079,1.7781,1.7565,1.7436,1.776,1.7946,1.8049,1.8487,1.8807,1.8995,1.9202,1.9292,1.9292,1.9292,1.9292,1.9274,1.8999,1.8631,1.8247,1.7844,1.7449,1.7046,1.6644,1.6416,1.6381,1.5492,1.4587,1.3813,1.3541,1.3099,1.2351,1.2289,1.2308,1.2313,1.1877,1.205,1.3085,1.453,1.557,1.5926,1.6555,1.7125,1.755,1.75,1.7577,1.8018,1.8075,1.8253,1.861,1.8695,1.8769,1.8908,1.866,1.8465,1.8458,1.8228,1.8054,1.8013,1.8008,1.8042,1.8093,1.8455,1.8838,1.9166,2.0215,2.1309,2.1773,2.1526,2.162,2.1773,2.194,2.2018,2.2123,2.2197,2.1972,2.14,2.1415,2.1305,2.0924,2.0672,2.0768,2.1368,2.1431,2.1565,2.1949,2.2125,2.2053,2.1873,2.1809,2.1993,2.1945,2.1925,2.1946,1.5107,1.5107,1.5124,1.5131,1.5155,1.5178,1.5202,1.5178,1.5155,1.5291,1.5516,1.554,1.5611,1.5778,1.5801,1.5801,1.5808,1.5903,1.595,1.5974,1.6038,1.6086,1.6173,1.6092,1.6148,1.6433,1.6587,1.7156,1.7853,1.7322,1.7383,1.8118,1.8895,1.9273,1.9292,1.9292,1.9292,1.9292,1.9245,1.9054,1.864,1.8256,1.7844,1.7449,1.7064,1.6853,1.6827,1.6401,1.5509,1.4261,1.3759,1.3076,1.2108,1.1948,1.2051,1.2294,1.2248,1.2579,1.3379,1.3948,1.4927,1.6194,1.6771,1.7323,1.7962,1.8036,1.8036,1.8138,1.8128,1.8294,1.8643,1.8717,1.8755,1.8822,1.8853,1.8733,1.8292,1.8225,1.8203,1.8003,1.7957,1.8008,1.7974,1.8083,1.8378,1.9061,2.0161,2.1119,2.142,2.1694,2.1683,2.1368,2.1214,2.1478,2.1878,2.217,2.1972,2.1952,2.2022,2.1842,2.1702,2.1792,2.2006,2.1646,2.2003,2.1918,2.17,2.1789,2.1873,2.1464,2.1413,2.1548,2.1533,2.1816,2.2216,1.4783,1.464,1.479,1.4957,1.5083,1.5107,1.5107,1.5083,1.4933,1.4999,1.5237,1.5094,1.5309,1.5778,1.5659,1.5618,1.5611,1.5635,1.5523,1.5428,1.5666,1.573,1.5642,1.5761,1.5975,1.633,1.68,1.7118,1.7151,1.6862,1.7139,1.7937,1.8367,1.8796,1.9233,1.9292,1.9292,1.9292,1.9292,1.9228,1.9036,1.8659,1.8265,1.7862,1.7468,1.7248,1.7105,1.6009,1.5035,1.4414,1.3424,1.2617,1.2172,1.2142,1.2178,1.2298,1.249,1.2979,1.38,1.4592,1.5535,1.668,1.7294,1.7892,1.8364,1.8448,1.854,1.8732,1.8614,1.8613,1.897,1.9063,1.9083,1.9172,1.9093,1.8864,1.8521,1.829,1.8066,1.7777,1.771,1.771,1.7718,1.7777,1.8351,1.9342,2.0242,2.0773,2.1541,2.1663,2.1415,2.1151,2.0789,2.0629,2.0928,2.0944,2.1146,2.1369,2.1269,2.1175,2.1962,2.187,2.1713,2.1722,2.1923,2.1899,2.1509,2.1825,2.1993,2.1524,2.1596,2.1885,2.1873,2.2041,2.2282,1.4472,1.4346,1.452,1.4694,1.4885,1.4885,1.4885,1.4861,1.4688,1.4742,1.4963,1.479,1.5022,1.5547,1.5452,1.538,1.538,1.5404,1.5333,1.5244,1.5482,1.5594,1.5588,1.5659,1.5797,1.6025,1.6529,1.6526,1.611,1.6555,1.6903,1.731,1.7755,1.8307,1.8895,1.9134,1.9292,1.9292,1.9292,1.9292,1.9216,1.8783,1.8428,1.8227,1.7641,1.7406,1.7597,1.6015,1.4987,1.4734,1.3397,1.2519,1.2316,1.2305,1.2338,1.2457,1.2725,1.3404,1.446,1.5369,1.6319,1.735,1.8074,1.8549,1.8778,1.8851,1.8979,1.9201,1.9036,1.8989,1.9228,1.9292,1.9361,1.9479,1.9241,1.8983,1.8779,1.8429,1.8069,1.7734,1.7615,1.7478,1.7529,1.7784,1.8465,1.9677,2.0199,2.0736,2.18,2.1679,2.1278,2.1108,2.0602,2.0274,2.0145,2.0226,2.0387,2.0536,2.0522,2.0646,2.1451,2.1194,2.1241,2.1304,2.1584,2.1576,2.1194,2.1488,2.1828,2.1804,2.1876,2.1969,2.1837,2.2041,2.2208,1.4322,1.4322,1.4322,1.4346,1.4346,1.437,1.4346,1.44,1.4346,1.4472,1.4688,1.4688,1.4861,1.5124,1.51,1.51,1.5107,1.5124,1.5196,1.5356,1.525,1.5363,1.5761,1.5581,1.5368,1.5271,1.5337,1.5044,1.4502,1.5842,1.6288,1.5684,1.7058,1.7937,1.8138,1.8796,1.9262,1.9173,1.9213,1.9253,1.9154,1.8441,1.82,1.8371,1.7481,1.7177,1.773,1.6885,1.592,1.5181,1.401,1.3072,1.241,1.2313,1.2477,1.2757,1.3039,1.392,1.5362,1.6007,1.6915,1.8349,1.8893,1.9219,1.9201,1.921,1.9237,1.9292,1.9236,1.9256,1.9283,1.9292,1.9292,1.9321,1.9294,1.9161,1.8973,1.8611,1.8311,1.8051,1.77,1.7492,1.7506,1.8073,1.8683,1.9557,2.0333,2.1033,2.1694,2.1757,2.142,2.1108,2.0762,2.0446,2.0177,2.0096,2.0123,2.0169,2.0198,2.0189,2.0138,2.022,2.061,2.0845,2.0912,2.0894,2.0729,2.0754,2.0947,2.1142,2.1527,2.162,2.1825,2.1993,2.2156,1.4322,1.4322,1.4322,1.4322,1.4322,1.4322,1.4322,1.4322,1.4322,1.4346,1.4418,1.4442,1.449,1.4586,1.4592,1.4688,1.4838,1.4838,1.4807,1.4777,1.4981,1.51,1.5094,1.519,1.539,1.5524,1.5412,1.503,1.4516,1.4615,1.4796,1.5192,1.5745,1.6355,1.6989,1.7715,1.8147,1.8327,1.8694,1.8774,1.8427,1.7614,1.7256,1.7373,1.6735,1.6496,1.6807,1.568,1.4919,1.4622,1.376,1.3168,1.2924,1.2867,1.2926,1.3053,1.33,1.4238,1.5823,1.6385,1.7301,1.8855,1.921,1.9292,1.9292,1.9292,1.9292,1.9292,1.9292,1.9292,1.9292,1.9292,1.9292,1.9292,1.9292,1.9174,1.8873,1.8672,1.8451,1.8128,1.7748,1.7458,1.737,1.7527,1.802,1.879,1.9195,1.9852,2.0687,2.0874,2.0794,2.0794,2.0655,2.0317,1.9474,1.9852,2.0058,1.9869,1.9846,2.0223,2.0343,2.0617,2.1016,2.0865,2.0708,2.0696,2.0739,2.0947,2.0983,2.1404,2.1728,2.1753,2.1909,2.2077,2.2161,1.4322,1.4322,1.4322,1.4322,1.4322,1.4322,1.4322,1.4322,1.4322,1.4322,1.4322,1.4322,1.4322,1.4322,1.4322,1.437,1.4568,1.4568,1.452,1.4472,1.4712,1.4838,1.4838,1.4933,1.5154,1.5367,1.5105,1.4766,1.4385,1.3727,1.3787,1.4447,1.4734,1.5219,1.5902,1.6772,1.733,1.7553,1.7934,1.7983,1.7573,1.6609,1.6095,1.6044,1.5555,1.5612,1.6201,1.5132,1.4481,1.4383,1.3656,1.3206,1.3213,1.328,1.3327,1.336,1.3879,1.4828,1.6212,1.6847,1.7747,1.9114,1.9292,1.9292,1.9292,1.9292,1.9292,1.9292,1.9292,1.9292,1.9292,1.9292,1.9292,1.9292,1.9292,1.9201,1.8915,1.8769,1.8458,1.7954,1.7522,1.7254,1.7137,1.7099,1.7552,1.8297,1.8415,1.8863,1.977,2.0107,2.0301,2.059,2.0521,2.0182,1.9737,1.9917,1.9786,1.9582,1.9927,2.0293,2.0544,2.0911,2.1091,2.0911,2.0828,2.0816,2.0925,2.1146,2.1488,2.1909,2.2029,2.2017,2.2101,2.2149,2.2197,1.4322,1.4322,1.4322,1.4322,1.4322,1.4322,1.4322,1.4322,1.4322,1.4322,1.4322,1.4322,1.4322,1.4322,1.4322,1.4322,1.4346,1.4346,1.4448,1.4592,1.4448,1.4616,1.4981,1.4766,1.464,1.4638,1.4116,1.3856,1.382,1.3558,1.3474,1.3627,1.4298,1.4656,1.472,1.6046,1.6874,1.687,1.6911,1.696,1.6809,1.5579,1.4914,1.4894,1.4091,1.4497,1.6373,1.539,1.473,1.464,1.3794,1.3233,1.326,1.3467,1.3586,1.3742,1.4662,1.566,1.6544,1.7285,1.7957,1.8966,1.9213,1.9173,1.9273,1.9292,1.9292,1.9292,1.9292,1.9292,1.9292,1.9292,1.9292,1.9292,1.9292,1.9274,1.9201,1.8924,1.8393,1.7743,1.7321,1.6946,1.6917,1.6943,1.727,1.784,1.8075,1.8345,1.9135,1.942,1.9977,2.0446,2.0312,1.9841,1.9933,2.0031,1.9622,1.936,1.9938,2.0387,2.046,2.0746,2.1117,2.1029,2.0892,2.0884,2.0994,2.1211,2.1413,2.1761,2.1954,2.2197,2.2197,2.2197,2.2197,1.4322,1.4322,1.4322,1.4322,1.4322,1.4322,1.4322,1.4322,1.4322,1.4322,1.4322,1.4322,1.4322,1.4322,1.4322,1.4322,1.4322,1.4322,1.4346,1.44,1.4346,1.4394,1.452,1.4466,1.4332,1.4111,1.3956,1.376,1.3617,1.3497,1.3533,1.3783,1.4008,1.4031,1.3961,1.4785,1.5255,1.5269,1.567,1.5752,1.5455,1.4949,1.4461,1.3907,1.3561,1.3787,1.4363,1.4198,1.4011,1.3887,1.3661,1.349,1.3427,1.3707,1.3843,1.3739,1.4168,1.4866,1.5656,1.6103,1.6935,1.8037,1.8427,1.8727,1.9193,1.9292,1.9292,1.9292,1.9292,1.9292,1.9292,1.9292,1.9292,1.9292,1.9292,1.9292,1.9283,1.9164,1.8732,1.81,1.7798,1.7514,1.7064,1.6917,1.702,1.727,1.7364,1.7645,1.8128,1.8432,1.8677,1.9365,1.9332,1.948,1.948,1.948,1.9282,1.9398,1.9987,2.0507,2.0574,2.0814,2.1152,2.1245,2.1095,2.1082,2.1179,2.132,2.1557,2.1785,2.2074,2.2197,2.2197,2.2197,2.2197,1.4322,1.4322,1.4322,1.4322,1.4322,1.4322,1.4322,1.4322,1.4322,1.4322,1.4322,1.4322,1.4322,1.4322,1.4322,1.4322,1.4322,1.4322,1.4322,1.4322,1.4322,1.4322,1.4322,1.4322,1.4226,1.4057,1.3954,1.3827,1.3664,1.3539,1.3588,1.3717,1.3746,1.3621,1.3448,1.398,1.4291,1.4243,1.4559,1.4601,1.4342,1.4084,1.3732,1.3343,1.3179,1.3207,1.3285,1.3419,1.3455,1.344,1.3525,1.3525,1.3455,1.3667,1.3758,1.373,1.4068,1.4601,1.5088,1.5517,1.6165,1.735,1.7796,1.8247,1.8904,1.9172,1.9292,1.9292,1.9292,1.9292,1.9292,1.9292,1.9292,1.9292,1.9292,1.9292,1.9283,1.9164,1.8888,1.8366,1.8045,1.7642,1.7284,1.6963,1.6927,1.6908,1.6908,1.696,1.7356,1.7621,1.8121,1.8526,1.8687,1.8811,1.885,1.8884,1.889,1.942,2.0069,2.0552,2.0837,2.1265,2.1639,2.16,2.1491,2.1623,2.1728,2.1716,2.1873,2.2077,2.2197,2.2197,2.2197,2.2197,2.2197,1.4322,1.4322,1.4322,1.4322,1.4322,1.4322,1.4322,1.4322,1.4322,1.4322,1.4322,1.4322,1.4322,1.4322,1.4322,1.4322,1.4322,1.4322,1.4322,1.4322,1.4322,1.4322,1.4322,1.4322,1.428,1.4238,1.4051,1.3925,1.3918,1.3708,1.3533,1.3628,1.3657,1.3423,1.3347,1.3784,1.3905,1.367,1.3667,1.3667,1.3625,1.3137,1.2903,1.3052,1.2875,1.2854,1.303,1.3094,1.3179,1.3334,1.337,1.3355,1.3355,1.3377,1.344,1.344,1.4174,1.4441,1.4768,1.5115,1.5887,1.6629,1.7078,1.7896,1.8445,1.8845,1.9094,1.9253,1.9292,1.9292,1.9292,1.9222,1.9222,1.9251,1.9262,1.9273,1.9265,1.8999,1.875,1.8521,1.799,1.7477,1.7403,1.7082,1.6954,1.6908,1.6908,1.696,1.702,1.7356,1.7825,1.8012,1.8056,1.8148,1.8189,1.8121,1.8179,1.8677,1.9497,2.0233,2.0887,2.142,2.1788,2.1779,2.1821,2.2032,2.2137,2.2053,2.2041,2.2137,2.2197,2.2197,2.2197,2.2197,2.2197,1.4322,1.4322,1.4322,1.4322,1.4322,1.4322,1.4322,1.4322,1.4322,1.4322,1.4322,1.4322,1.4322,1.4322,1.4322,1.4322,1.4322,1.4322,1.4322,1.4322,1.4322,1.4322,1.4322,1.4322,1.4322,1.4304,1.4214,1.4201,1.4189,1.4087,1.4057,1.4093,1.4045,1.3845,1.3535,1.3601,1.3394,1.3034,1.296,1.2982,1.296,1.2833,1.2726,1.2769,1.2726,1.2726,1.279,1.279,1.2924,1.3164,1.3164,1.3073,1.2966,1.32,1.3313,1.3285,1.3512,1.3738,1.3802,1.3985,1.4476,1.5178,1.5572,1.6232,1.7836,1.8058,1.8519,1.9026,1.9292,1.9253,1.9222,1.9013,1.8882,1.8891,1.9092,1.9253,1.9283,1.921,1.8944,1.8347,1.8073,1.7697,1.7257,1.7009,1.6908,1.6908,1.6908,1.6908,1.696,1.6995,1.739,1.7304,1.7348,1.7459,1.751,1.7407,1.751,1.7896,1.8687,1.9683,2.0475,2.1279,2.1561,2.1721,2.1788,2.196,2.2096,2.2149,2.2185,2.2108,2.2197,2.2197,2.2197,2.2197,2.2197,1.4322,1.4322,1.4322,1.4322,1.4322,1.4322,1.4322,1.4322,1.4322,1.4322,1.4322,1.4322,1.4322,1.4322,1.4322,1.4322,1.4322,1.4322,1.4322,1.4322,1.4322,1.4322,1.4322,1.4322,1.4322,1.4322,1.4322,1.4322,1.4316,1.4322,1.4322,1.428,1.4322,1.4075,1.3678,1.3527,1.3292,1.2934,1.2777,1.2705,1.2705,1.2705,1.2705,1.2705,1.2705,1.2705,1.2705,1.2705,1.279,1.2896,1.2939,1.2854,1.2747,1.296,1.3052,1.2939,1.3052,1.3115,1.3115,1.3115,1.347,1.4153,1.442,1.5448,1.6772,1.731,1.7816,1.8565,1.8754,1.8754,1.8714,1.8543,1.8531,1.87,1.8902,1.9112,1.9262,1.9283,1.9017,1.8531,1.8182,1.788,1.722,1.7018,1.6927,1.6908,1.6908,1.6908,1.6908,1.6908,1.6943,1.6986,1.7003,1.7159,1.7262,1.7193,1.727,1.7588,1.8049,1.9044,2.002,2.0901,2.1226,2.1431,2.1647,2.1831,2.1937,2.1999,2.1956,2.1956,2.2092,2.2166,2.2135,2.203,2.2061,1.4322,1.4322,1.4322,1.4322,1.4322,1.4322,1.4322,1.4322,1.4322,1.4322,1.4322,1.4322,1.4322,1.4322,1.4322,1.4322,1.4322,1.4322,1.4322,1.4322,1.4322,1.4322,1.4322,1.4322,1.4322,1.4322,1.4322,1.4322,1.4322,1.4322,1.4322,1.4322,1.4322,1.4153,1.3858,1.3653,1.3429,1.3141,1.2888,1.2786,1.2777,1.2747,1.2705,1.2705,1.2705,1.2705,1.2705,1.2705,1.2705,1.2705,1.2705,1.2705,1.2705,1.2726,1.2726,1.2726,1.2747,1.2769,1.2726,1.279,1.2939,1.3533,1.3964,1.4852,1.6008,1.6583,1.7123,1.81,1.8011,1.808,1.8011,1.7951,1.8109,1.8351,1.854,1.8803,1.9132,1.9262,1.9136,1.8695,1.8292,1.7935,1.7486,1.7156,1.6908,1.6908,1.6908,1.6908,1.6908,1.6908,1.6978,1.7055,1.702,1.6968,1.702,1.702,1.7166,1.739,1.7742,1.8502,1.948,2.0274,2.0716,2.0999,2.1051,2.1305,2.1628,2.1647,2.1667,2.1604,2.1616,2.1831,2.1999,2.1831,2.1757,1.4322,1.4322,1.4322,1.4322,1.4322,1.4322,1.4322,1.4322,1.4322,1.4322,1.4322,1.4322,1.4322,1.4322,1.4322,1.4322,1.4322,1.4322,1.4322,1.4322,1.4322,1.4322,1.4322,1.4322,1.4322,1.4322,1.4322,1.4322,1.4322,1.4322,1.4322,1.4322,1.4286,1.4171,1.3936,1.3845,1.3694,1.3412,1.3135,1.2997,1.293,1.2795,1.2705,1.2705,1.2705,1.2705,1.2705,1.2705,1.2705,1.2705,1.2705,1.2705,1.2705,1.2705,1.2705,1.2705,1.2705,1.2705,1.2705,1.2705,1.2747,1.2939,1.3252,1.3795,1.5407,1.5739,1.653,1.7566,1.7991,1.7777,1.7575,1.7534,1.7635,1.7777,1.804,1.8362,1.8743,1.9092,1.8989,1.8466,1.8173,1.7844,1.7192,1.7046,1.6917,1.6908,1.6908,1.6908,1.6908,1.6908,1.696,1.7038,1.7003,1.6934,1.6951,1.6978,1.7072,1.7193,1.7486,1.7725,1.8727,1.9299,1.9606,1.9998,2.0344,2.0661,2.1035,2.1384,2.1404,2.1262,2.1103,2.1257,2.1352,2.1341,2.1526,1.4322,1.4322,1.4322,1.4322,1.4322,1.4322,1.4322,1.4322,1.4322,1.4322,1.4322,1.4322,1.4322,1.4322,1.4322,1.4322,1.4322,1.4322,1.4322,1.4322,1.4322,1.4322,1.4322,1.4322,1.4322,1.4322,1.4322,1.4322,1.4322,1.4322,1.4322,1.4322,1.4322,1.4244,1.4075,1.3978,1.3839,1.3623,1.3292,1.3083,1.3057,1.2834,1.2705,1.2705,1.2705,1.2705,1.2705,1.2705,1.2705,1.2705,1.2705,1.2705,1.2705,1.2705,1.2705,1.2705,1.2705,1.2705,1.2705,1.2705,1.2705,1.2705,1.296,1.3618,1.458,1.5103,1.5891,1.6722,1.7139,1.729,1.7106,1.7066,1.7127,1.7432,1.7737,1.8092,1.8402,1.8913,1.9091,1.8503,1.8237,1.7825,1.7404,1.7065,1.6917,1.6908,1.6908,1.6908,1.6908,1.6908,1.6908,1.6943,1.6926,1.6908,1.6908,1.6943,1.6986,1.7055,1.7168,1.7279,1.7706,1.807,1.8358,1.895,1.9601,1.9955,2.0323,2.0693,2.0917,2.0677,2.0532,2.0613,2.0741,2.0944,2.1167,1.4322,1.4322,1.4322,1.4322,1.4322,1.4322,1.4322,1.4322,1.4322,1.4322,1.4322,1.4322,1.4322,1.4322,1.4322,1.4322,1.4322,1.4322,1.4322,1.4322,1.4322,1.4322,1.4322,1.4322,1.4322,1.4322,1.4322,1.4322,1.4322,1.4322,1.4322,1.4322,1.4322,1.4304,1.4232,1.4105,1.399,1.3906,1.355,1.3298,1.322,1.2994,1.2795,1.2705,1.2705,1.2705,1.2705,1.2705,1.2705,1.2705,1.2705,1.2705,1.2705,1.2705,1.2705,1.2705,1.2705,1.2705,1.2705,1.2705,1.2705,1.2726,1.3158,1.3568,1.3963,1.4629,1.5332,1.5899,1.636,1.6812,1.6718,1.6759,1.6922,1.7229,1.7656,1.7878,1.8052,1.8665,1.8864,1.8579,1.8132,1.7687,1.7432,1.7147,1.7018,1.6908,1.6908,1.6936,1.6945,1.6927,1.6936,1.6908,1.6908,1.6908,1.6908,1.6954,1.6997,1.7014,1.7032,1.7039,1.7064,1.7304,1.7757,1.8358,1.8934,1.9233,1.9556,1.9901,2.0015,1.9917,1.9917,1.9906,2.0166,2.0532,2.0837,1.4322,1.4322,1.4322,1.4322,1.4322,1.4322,1.4322,1.4322,1.4322,1.4322,1.4322,1.4322,1.4322,1.4322,1.4322,1.4322,1.4322,1.4322,1.4322,1.4322,1.4322,1.4322,1.4322,1.4322,1.4322,1.4322,1.4322,1.4322,1.4322,1.4322,1.4322,1.4322,1.4322,1.4322,1.4316,1.4244,1.4195,1.4147,1.3857,1.3678,1.3575,1.326,1.2898,1.2741,1.2705,1.2705,1.2705,1.2705,1.2705,1.2705,1.2705,1.2705,1.2705,1.2705,1.2705,1.2705,1.2705,1.2705,1.2705,1.2705,1.2705,1.2726,1.2918,1.3222,1.3582,1.4047,1.4922,1.5692,1.6299,1.6689,1.6689,1.6689,1.671,1.6935,1.7249,1.7514,1.7656,1.8135,1.857,1.8213,1.7862,1.7666,1.7524,1.733,1.7138,1.7009,1.6928,1.7064,1.7174,1.7092,1.7,1.6963,1.6908,1.6908,1.6908,1.6972,1.7027,1.7044,1.7035,1.6989,1.6988,1.6952,1.7287,1.7842,1.8138,1.8358,1.871,1.911,1.916,1.9104,1.9127,1.9183,1.9595,2.002,2.0629,1.4322,1.4322,1.4322,1.4322,1.4322,1.4322,1.4322,1.4322,1.4322,1.4322,1.4322,1.4322,1.4322,1.4322,1.4322,1.4322,1.4322,1.4322,1.4322,1.4322,1.4322,1.4322,1.4322,1.4322,1.4322,1.4322,1.4322,1.4322,1.4322,1.4322,1.4322,1.4322,1.4322,1.4322,1.4322,1.4316,1.4322,1.4244,1.4057,1.3882,1.3857,1.3399,1.2985,1.2768,1.2705,1.2705,1.2705,1.2705,1.2705,1.2705,1.2705,1.2705,1.2705,1.2705,1.2705,1.2705,1.2705,1.2705,1.2705,1.2705,1.2705,1.2747,1.2966,1.3137,1.3512,1.4146,1.5026,1.592,1.6381,1.6689,1.6689,1.6689,1.6689,1.6771,1.7106,1.7237,1.727,1.7716,1.7831,1.7882,1.806,1.8009,1.7797,1.7578,1.7303,1.7138,1.7019,1.7166,1.7413,1.7348,1.723,1.7349,1.7376,1.7349,1.7348,1.7321,1.7276,1.7238,1.7202,1.7156,1.7027,1.7027,1.7015,1.7262,1.7459,1.7723,1.8012,1.8469,1.8395,1.8361,1.8479,1.8687,1.9094,1.9562,2.0226,1.4322,1.4322,1.4322,1.4322,1.4322,1.4322,1.4322,1.4322,1.4322,1.4322,1.4322,1.4322,1.4322,1.4322,1.4322,1.4322,1.4322,1.4322,1.4322,1.4322,1.4322,1.4322,1.4322,1.4322,1.4322,1.4322,1.4322,1.4322,1.4322,1.4322,1.4322,1.4322,1.4322,1.4322,1.4322,1.4322,1.4322,1.4238,1.4117,1.3978,1.3803,1.3459,1.3051,1.2801,1.2741,1.2705,1.2705,1.2705,1.2705,1.2705,1.2705,1.2705,1.2705,1.2705,1.2705,1.2705,1.2705,1.2705,1.2705,1.2705,1.2705,1.2726,1.3173,1.3109,1.3215,1.4076,1.5422,1.6278,1.6463,1.6566,1.6648,1.6689,1.6689,1.6759,1.6984,1.7168,1.7025,1.7188,1.7493,1.7749,1.823,1.8246,1.7955,1.7917,1.7642,1.7596,1.7505,1.755,1.7734,1.7688,1.767,1.7871,1.7944,1.7944,1.7917,1.7853,1.7761,1.7633,1.7596,1.756,1.7349,1.7183,1.7189,1.7223,1.7159,1.7442,1.7647,1.7837,1.793,1.7981,1.7991,1.8185,1.857,1.9276,2.0047,1.4322,1.4322,1.4322,1.4322,1.4322,1.4322,1.4322,1.4322,1.4322,1.4322,1.4322,1.4322,1.4322,1.4322,1.4322,1.4322,1.4322,1.4322,1.4322,1.4322,1.4322,1.4322,1.4322,1.4322,1.4322,1.4322,1.4322,1.4322,1.4322,1.4322,1.4322,1.4322,1.4322,1.4322,1.4322,1.4322,1.4322,1.4292,1.4256,1.4123,1.3888,1.3598,1.3314,1.3039,1.2816,1.2705,1.2705,1.2705,1.2705,1.2705,1.2705,1.2705,1.2705,1.2705,1.2705,1.2705,1.2705,1.2705,1.2705,1.2705,1.2705,1.2705,1.2854,1.279,1.3082,1.3533,1.465,1.572,1.5865,1.6175,1.6587,1.6689,1.6689,1.671,1.68,1.6841,1.6771,1.6902,1.7188,1.7404,1.782,1.8013,1.7956,1.8008,1.8036,1.8018,1.8018,1.8045,1.8128,1.8146,1.8146,1.8347,1.843,1.843,1.8448,1.8393,1.8237,1.8073,1.8018,1.7963,1.7724,1.7514,1.7468,1.7456,1.7359,1.7274,1.7507,1.7618,1.7623,1.7701,1.7803,1.7923,1.8059,1.8881,1.9808,1.4322,1.4322,1.4322,1.4322,1.4322,1.4322,1.4322,1.4322,1.4322,1.4322,1.4322,1.4322,1.4322,1.4322,1.4322,1.4322,1.4322,1.4322,1.4322,1.4322,1.4322,1.4322,1.4322,1.4322,1.4322,1.4322,1.4322,1.4322,1.4322,1.4322,1.4322,1.4322,1.4322,1.4322,1.4322,1.4322,1.4322,1.4298,1.4274,1.4159,1.3912,1.3623,1.337,1.3111,1.2856,1.2729,1.2705,1.2705,1.2705,1.2705,1.2705,1.2705,1.2705,1.2705,1.2705,1.2705,1.2705,1.2705,1.2705,1.2705,1.2705,1.2705,1.2726,1.2896,1.3194,1.354,1.4258,1.5575,1.5692,1.6023,1.6533,1.6669,1.6689,1.6689,1.6689,1.6689,1.671,1.682,1.6984,1.7188,1.7383,1.7629,1.7853,1.7934,1.8106,1.8336,1.8355,1.8384,1.8604,1.8842,1.8833,1.8842,1.8879,1.8889,1.8926,1.8916,1.8715,1.855,1.843,1.8338,1.8091,1.7917,1.7853,1.7825,1.7788,1.7705,1.7559,1.7541,1.765,1.7667,1.7684,1.7968,1.8279,1.8556,1.9429,1.4322,1.4322,1.4322,1.4322,1.4322,1.4322,1.4322,1.4322,1.4322,1.4322,1.4322,1.4322,1.4322,1.4322,1.4322,1.4322,1.4322,1.4322,1.4322,1.4322,1.4322,1.4322,1.4322,1.4322,1.4322,1.4322,1.4322,1.4322,1.4322,1.4322,1.4322,1.4322,1.4322,1.4322,1.4322,1.4322,1.4322,1.4322,1.4322,1.4201,1.4002,1.3659,1.3424,1.3165,1.29,1.2705,1.2705,1.2705,1.2705,1.2705,1.2705,1.2705,1.2705,1.2705,1.2705,1.2705,1.2705,1.2705,1.2705,1.2705,1.2705,1.2705,1.2784,1.3045,1.3815,1.3899,1.4419,1.5858,1.5733,1.6085,1.6504,1.6689,1.6689,1.6689,1.6689,1.6689,1.671,1.6779,1.682,1.6902,1.7127,1.74,1.7605,1.778,1.8081,1.8543,1.8681,1.8713,1.8934,1.9246,1.9219,1.9098,1.9118,1.9118,1.9155,1.9164,1.9036,1.8971,1.8842,1.876,1.8558,1.8366,1.8256,1.8237,1.82,1.8018,1.7825,1.7764,1.773,1.7907,1.8108,1.8377,1.8641,1.8821,1.9271,1.4322,1.4322,1.4322,1.4322,1.4322,1.4322,1.4322,1.4322,1.4322,1.4322,1.4322,1.4322,1.4322,1.4322,1.4322,1.4322,1.4322,1.4322,1.4322,1.4322,1.4322,1.4322,1.4322,1.4322,1.4322,1.4322,1.4322,1.4322,1.4322,1.4322,1.4322,1.4322,1.4322,1.4322,1.4322,1.4322,1.4322,1.4322,1.4322,1.4322,1.4105,1.3804,1.3515,1.337,1.3003,1.2689,1.2705,1.2711,1.2705,1.2705,1.2705,1.2705,1.2705,1.2705,1.2705,1.2705,1.2705,1.2705,1.2705,1.2705,1.2705,1.2705,1.2784,1.3167,1.411,1.3885,1.465,1.5982,1.5775,1.6002,1.6402,1.6689,1.6689,1.6689,1.6689,1.6689,1.6689,1.6689,1.673,1.671,1.6861,1.7127,1.7371,1.7545,1.8201,1.871,1.8965,1.9026,1.9072,1.9283,1.9283,1.9246,1.9256,1.9256,1.9265,1.9219,1.9164,1.9155,1.91,1.9127,1.9109,1.8926,1.865,1.8604,1.8549,1.832,1.8183,1.8258,1.8341,1.8387,1.8504,1.8574,1.8835,1.9078,1.9647,1.4322,1.4322,1.4322,1.4322,1.4322,1.4322,1.4322,1.4322,1.4322,1.4322,1.4322,1.4322,1.4322,1.4322,1.4322,1.4322,1.4322,1.4322,1.4322,1.4322,1.4322,1.4322,1.4322,1.4322,1.4322,1.4322,1.4322,1.4322,1.4322,1.4322,1.4322,1.4322,1.4322,1.4322,1.4322,1.4322,1.4322,1.4322,1.4322,1.4322,1.4226,1.3984,1.3761,1.369,1.322,1.2973,1.2918,1.2783,1.2729,1.2705,1.2705,1.2705,1.2705,1.2705,1.2705,1.2705,1.2705,1.2705,1.2705,1.2705,1.2705,1.2705,1.2747,1.3109,1.4019,1.3498,1.4202,1.5082,1.5567,1.5671,1.6525,1.6689,1.6689,1.6689,1.6689,1.6689,1.6689,1.6689,1.6689,1.6689,1.671,1.6853,1.7086,1.7294,1.8115,1.8866,1.9094,1.9292,1.9292,1.9292,1.9292,1.9292,1.9292,1.9292,1.9292,1.9292,1.9292,1.9292,1.9292,1.9292,1.9292,1.9265,1.9054,1.8999,1.8944,1.8805,1.877,1.8883,1.8849,1.8676,1.8564,1.8543,1.8868,1.93,1.9821,1.4322,1.4322,1.4322,1.4322,1.4322,1.4322,1.4322,1.4322,1.4322,1.4322,1.4322,1.4322,1.4322,1.4322,1.4322,1.4322,1.4322,1.4322,1.4322,1.4322,1.4322,1.4322,1.4322,1.4322,1.4322,1.4322,1.4322,1.4322,1.4322,1.4322,1.4322,1.4322,1.4322,1.4322,1.4322,1.4322,1.4322,1.4322,1.4322,1.4322,1.4262,1.4045,1.3894,1.3786,1.3346,1.3105,1.2997,1.284,1.2717,1.2705,1.2705,1.2705,1.2705,1.2705,1.2705,1.2705,1.2705,1.2705,1.2705,1.2705,1.2705,1.2705,1.2705,1.3067,1.3349,1.33,1.4097,1.538,1.5339,1.5464,1.6566,1.6689,1.6689,1.6689,1.6689,1.6689,1.6689,1.6689,1.6689,1.6689,1.673,1.6792,1.7168,1.7453,1.802,1.8763,1.9112,1.9262,1.9292,1.9292,1.9292,1.9292,1.9292,1.9292,1.9292,1.9292,1.9292,1.9292,1.9292,1.9292,1.9292,1.9292,1.9292,1.9182,1.9173,1.9265,1.9219,1.9139,1.8976,1.8785,1.8844,1.8995,1.9165,1.9573,1.9717,1.4322,1.4322,1.4322,1.4322,1.4322,1.4322,1.4322,1.4322,1.4322,1.4322,1.4322,1.4322,1.4322,1.4322,1.4322,1.4322,1.4322,1.4322,1.4322,1.4322,1.4322,1.4322,1.4322,1.4322,1.4322,1.4322,1.4322,1.4322,1.4322,1.4322,1.4322,1.4322,1.4322,1.4322,1.4322,1.4322,1.4322,1.4322,1.4322,1.4322,1.425,1.4069,1.3961,1.3857,1.3497,1.3262,1.3129,1.2918,1.2783,1.2711,1.2705,1.2705,1.2705,1.2705,1.2705,1.2705,1.2705,1.2705,1.2705,1.2705,1.2705,1.2705,1.2705,1.3024,1.3519,1.3709,1.4083,1.5401,1.5484,1.5837,1.6381,1.6689,1.6689,1.6689,1.6689,1.6689,1.6689,1.6689,1.6689,1.6689,1.6738,1.6861,1.729,1.7696,1.806,1.8583,1.9033,1.9212,1.9222,1.9292,1.9292,1.9292,1.9292,1.9292,1.9292,1.9292,1.9292,1.9292,1.9292,1.9292,1.9292,1.9292,1.9292,1.9292,1.9292,1.9292,1.9292,1.9274,1.9131,1.9042,1.9452,1.9635,1.9749,1.9759,1.9829,1.4322,1.4322,1.4322,1.4322,1.4322,1.4322,1.4322,1.4322,1.4322,1.4322,1.4322,1.4322,1.4322,1.4322,1.4322,1.4322,1.4322,1.4322,1.4322,1.4322,1.4322,1.4322,1.4322,1.4322,1.4322,1.4322,1.4322,1.4322,1.4322,1.4322,1.4322,1.4322,1.4322,1.4322,1.4322,1.4322,1.4322,1.4322,1.4322,1.4298,1.428,1.4201,1.4147,1.4135,1.3779,1.3503,1.3328,1.3085,1.2886,1.2735,1.2705,1.2705,1.2705,1.2705,1.2705,1.2705,1.2705,1.2705,1.2705,1.2705,1.2705,1.2705,1.2747,1.3003,1.3561,1.3215,1.4055,1.5089,1.5318,1.5754,1.6381,1.6628,1.6689,1.6689,1.6689,1.6689,1.6689,1.6689,1.6689,1.6689,1.671,1.6779,1.7066,1.7392,1.7777,1.823,1.8663,1.8902,1.8962,1.9183,1.9292,1.9292,1.9292,1.9292,1.9292,1.9292,1.9292,1.9292,1.9292,1.9292,1.9292,1.9292,1.9292,1.9292,1.9292,1.9292,1.9292,1.9292,1.9292,1.9382,1.9587,1.9686,1.9638,1.9688,1.9806,1.4322,1.4322,1.4322,1.4322,1.4322,1.4322,1.4322,1.4322,1.4322,1.4322,1.4322,1.4322,1.4322,1.4322,1.4322,1.4322,1.4322,1.4322,1.4322,1.4322,1.4322,1.4322,1.4322,1.4322,1.4322,1.4322,1.4322,1.4322,1.4322,1.4322,1.4322,1.4322,1.4322,1.4322,1.4322,1.4322,1.4322,1.4322,1.4322,1.4322,1.4298,1.428,1.4286,1.4214,1.4014,1.3773,1.3497,1.3238,1.3,1.2801,1.2705,1.2705,1.2705,1.2705,1.2705,1.2705,1.2705,1.2705,1.2705,1.2705,1.2705,1.2705,1.2705,1.2896,1.3307,1.3215,1.3928,1.4713,1.4985,1.5713,1.6443,1.6648,1.6689,1.6689,1.6689,1.6689,1.6689,1.6689,1.6689,1.6689,1.6689,1.6738,1.6841,1.7045,1.7371,1.7838,1.829,1.8511,1.8772,1.9073,1.9253,1.9242,1.9273,1.9292,1.9292,1.9292,1.9292,1.9292,1.9292,1.9292,1.9292,1.9292,1.9292,1.9292,1.9292,1.9292,1.9292,1.9292,1.9292,1.9321,1.941,1.9469,1.9489,1.9597,1.9715,1.4274,1.4274,1.4274,1.4322,1.4322,1.4322,1.4322,1.4322,1.4322,1.4322,1.4322,1.4322,1.4322,1.4322,1.4322,1.4322,1.4322,1.4322,1.4322,1.4322,1.4322,1.4322,1.4322,1.4322,1.4322,1.4322,1.4322,1.4322,1.4322,1.4322,1.4322,1.4322,1.4322,1.4322,1.4322,1.4322,1.4322,1.4322,1.4322,1.4322,1.4322,1.4322,1.4322,1.4232,1.4087,1.3857,1.3581,1.331,1.3033,1.2856,1.2723,1.2711,1.2705,1.2705,1.2705,1.2705,1.2705,1.2705,1.2705,1.2705,1.2705,1.2705,1.2705,1.2726,1.2875,1.3264,1.4019,1.4713,1.5193,1.5899,1.6566,1.6628,1.6689,1.6689,1.6689,1.6689,1.6689,1.6689,1.6689,1.6689,1.6689,1.6751,1.6943,1.7106,1.7127,1.7554,1.8,1.8273,1.8574,1.9112,1.9242,1.9152,1.9202,1.9273,1.9292,1.9292,1.9292,1.9292,1.9292,1.9292,1.9292,1.9292,1.9292,1.9292,1.9292,1.9292,1.9292,1.9292,1.9292,1.9321,1.935,1.9341,1.94,1.9478,1.9557,1.3732,1.3775,1.413,1.4322,1.4322,1.4298,1.4322,1.4322,1.4322,1.4322,1.4322,1.4322,1.4322,1.4322,1.4322,1.4322,1.4322,1.4322,1.4322,1.4322,1.4322,1.4322,1.4322,1.4322,1.4322,1.4322,1.4322,1.4322,1.4322,1.4322,1.4322,1.4322,1.4322,1.4322,1.4322,1.4322,1.4322,1.4322,1.4322,1.4322,1.4322,1.4322,1.4322,1.4274,1.422,1.3996,1.3708,1.3479,1.3214,1.2991,1.2795,1.2711,1.2705,1.2705,1.2705,1.2705,1.2705,1.2705,1.2705,1.2705,1.2705,1.2705,1.2705,1.2705,1.2869,1.3343,1.4005,1.4671,1.5422,1.6126,1.6546,1.6648,1.6689,1.6689,1.6689,1.6689,1.6689,1.6689,1.6689,1.6689,1.6689,1.673,1.6922,1.6922,1.6984,1.7371,1.7708,1.7991,1.8373,1.8884,1.9132,1.9042,1.9172,1.9273,1.9292,1.9292,1.9292,1.9292,1.9292,1.9292,1.9292,1.9292,1.9292,1.9292,1.9292,1.9292,1.9292,1.9292,1.9292,1.9292,1.9321,1.9292,1.9312,1.939,1.9429,1.3225,1.3268,1.3576,1.3817,1.3968,1.3986,1.3986,1.401,1.4202,1.4322,1.4322,1.4322,1.4322,1.4322,1.4322,1.4322,1.4322,1.4322,1.4322,1.4322,1.4322,1.4322,1.4322,1.4322,1.4322,1.4322,1.4322,1.4322,1.4298,1.4298,1.4322,1.4322,1.4322,1.4298,1.4322,1.4322,1.4322,1.4322,1.4322,1.4322,1.4322,1.4322,1.4322,1.4322,1.4322,1.4111,1.3815,1.3592,1.3334,1.3015,1.2753,1.2711,1.2705,1.2705,1.2705,1.2705,1.2705,1.2705,1.2705,1.2705,1.2705,1.2705,1.2705,1.2705,1.3082,1.3569,1.4146,1.4776,1.5567,1.627,1.6504,1.6689,1.6689,1.6689,1.6689,1.6689,1.6689,1.6689,1.6689,1.6689,1.6689,1.6689,1.671,1.6689,1.6833,1.727,1.7534,1.7737,1.8141,1.8623,1.8843,1.8832,1.9073,1.9292,1.9292,1.9292,1.9292,1.9292,1.9292,1.9292,1.9292,1.9292,1.9292,1.9292,1.9292,1.9292,1.9292,1.9292,1.9292,1.9292,1.9292,1.9292,1.9292,1.9312,1.9341,1.274,1.2764,1.2783,1.3104,1.3418,1.3443,1.3467,1.3491,1.3913,1.4178,1.4178,1.4202,1.4226,1.4274,1.4322,1.4322,1.4322,1.4322,1.4322,1.4322,1.4322,1.4322,1.4322,1.4322,1.4322,1.4322,1.4274,1.425,1.4226,1.425,1.4274,1.4274,1.4298,1.4298,1.4322,1.4322,1.4322,1.4322,1.4322,1.4322,1.4322,1.4322,1.4322,1.4322,1.4244,1.4111,1.3726,1.3473,1.3314,1.2967,1.278,1.2831,1.2756,1.2711,1.2711,1.2705,1.2705,1.2705,1.2705,1.2705,1.2705,1.2705,1.2705,1.2705,1.3039,1.3865,1.4503,1.4901,1.565,1.6312,1.6628,1.6689,1.6689,1.6753,1.68,1.686,1.6908,1.6908,1.69,1.686,1.6729,1.6729,1.6689,1.6689,1.673,1.7168,1.731,1.7453,1.7737,1.8221,1.8531,1.8632,1.9013,1.9253,1.9292,1.9292,1.9292,1.9292,1.9292,1.9292,1.9292,1.9292,1.9292,1.9292,1.9292,1.9292,1.9292,1.9292,1.9292,1.9292,1.9292,1.9292,1.9292,1.9292,1.9292,1.22,1.2224,1.2619,1.2886,1.2953,1.2983,1.2958,1.2983,1.308,1.334,1.363,1.3708,1.3919,1.4226,1.4298,1.4322,1.4322,1.4322,1.4322,1.4322,1.4322,1.4322,1.4322,1.4322,1.4322,1.4322,1.425,1.4082,1.3992,1.4064,1.4088,1.3823,1.4034,1.4298,1.4322,1.4322,1.4322,1.4322,1.4322,1.4322,1.4322,1.4322,1.4322,1.4322,1.4256,1.4232,1.3984,1.3851,1.3773,1.3616,1.3388,1.3226,1.2999,1.2804,1.2717,1.2705,1.2705,1.2705,1.2695,1.2729,1.2753,1.2741,1.2735,1.2711,1.3103,1.4125,1.4803,1.5166,1.5679,1.6299,1.6689,1.6689,1.6729,1.6824,1.6948,1.7048,1.7148,1.7148,1.7148,1.7008,1.6845,1.6745,1.6705,1.671,1.6779,1.682,1.6841,1.6963,1.7168,1.7575,1.8201,1.8442,1.8973,1.9202,1.9253,1.9242,1.9202,1.9253,1.9292,1.9292,1.9292,1.9292,1.9292,1.9292,1.9292,1.9292,1.9292,1.9292,1.9292,1.9292,1.9292,1.9292,1.9292,1.9292,1.9292,1.1639,1.1707,1.2224,1.2448,1.2443,1.2443,1.2443,1.2395,1.22,1.2365,1.288,1.3273,1.366,1.4016,1.4184,1.4274,1.4298,1.4322,1.4322,1.4322,1.4298,1.4322,1.4322,1.4322,1.4322,1.4298,1.404,1.3829,1.3781,1.3775,1.3775,1.3799,1.4154,1.4274,1.4298,1.4298,1.4298,1.4322,1.4322,1.4322,1.4322,1.4322,1.4322,1.4322,1.4316,1.4262,1.4105,1.3954,1.3857,1.3694,1.34,1.3135,1.2918,1.2771,1.2711,1.2705,1.2705,1.2705,1.2726,1.2798,1.288,1.2898,1.3031,1.3103,1.3036,1.3931,1.4514,1.4944,1.5963,1.6648,1.6689,1.6689,1.6884,1.7011,1.7143,1.726,1.7315,1.7347,1.7299,1.7196,1.6984,1.6721,1.6689,1.6689,1.673,1.673,1.6718,1.6882,1.7025,1.7066,1.7656,1.8141,1.8594,1.9063,1.9262,1.9192,1.9073,1.9152,1.9292,1.9292,1.9292,1.9292,1.9292,1.9292,1.9292,1.9292,1.9292,1.9292,1.9292,1.9292,1.9292,1.9292,1.9292,1.9292,1.9292,1.1218,1.1267,1.1707,1.1902,1.1902,1.1907,1.1907,1.1834,1.1438,1.1492,1.2,1.288,1.3298,1.366,1.4016,1.416,1.4226,1.4274,1.4298,1.4178,1.4274,1.4298,1.4322,1.4322,1.4226,1.404,1.3775,1.3775,1.3823,1.3841,1.3938,1.4154,1.4178,1.4202,1.4202,1.4202,1.4154,1.4274,1.4322,1.4322,1.4322,1.4322,1.4322,1.4322,1.428,1.4177,1.4032,1.393,1.3792,1.3653,1.3501,1.3302,1.3115,1.3,1.2928,1.2922,1.2918,1.2922,1.2922,1.3079,1.3111,1.3196,1.3423,1.3444,1.3348,1.3639,1.4215,1.4852,1.5872,1.6456,1.6477,1.67,1.6909,1.7183,1.7323,1.7457,1.749,1.7577,1.7538,1.7443,1.7191,1.6916,1.6805,1.6797,1.6737,1.6729,1.68,1.6984,1.7106,1.7086,1.7331,1.7676,1.8,1.8494,1.9053,1.9192,1.9062,1.9163,1.9292,1.9292,1.9292,1.9292,1.9292,1.9292,1.9292,1.9292,1.9292,1.9292,1.9292,1.9292,1.9292,1.9292,1.9292,1.9292,1.9292,1.1194,1.1218,1.1321,1.1365,1.1365,1.137,1.137,1.134,1.1267,1.1267,1.1536,1.2005,1.2662,1.3539,1.4058,1.4106,1.3727,1.3986,1.3919,1.3732,1.413,1.4274,1.428,1.4184,1.3992,1.3727,1.3437,1.337,1.3431,1.3745,1.3751,1.3292,1.3612,1.3708,1.3727,1.3799,1.3962,1.4178,1.4322,1.4322,1.4322,1.4322,1.4322,1.4322,1.4322,1.4268,1.4232,1.4226,1.4195,1.4087,1.387,1.367,1.3495,1.3338,1.325,1.3202,1.3214,1.322,1.3262,1.3346,1.3406,1.3418,1.3544,1.3447,1.3466,1.362,1.4017,1.413,1.5,1.5664,1.5884,1.6396,1.6707,1.7193,1.7467,1.76,1.7681,1.7916,1.8039,1.7904,1.7699,1.7429,1.7175,1.7111,1.6956,1.69,1.6713,1.6869,1.6874,1.6963,1.7033,1.7229,1.7481,1.8049,1.8652,1.9121,1.9141,1.9222,1.9292,1.9292,1.9292,1.9292,1.9292,1.9292,1.9292,1.9292,1.9292,1.9292,1.9292,1.9292,1.9292,1.9292,1.9292,1.9292,1.9292]},{"header":{"parameterUnit":"m.s-1","parameterCategory":1,"la1":31.0,"la2":29.5877,"lo1":-88.7671,"lo2":-86.6584,"dy":0.0162,"dx":0.0185,"nx":115,"ny":88,"refTime":"2025-03-27T12:00:00:Z","depth":0,"parameterNumber":3,"parameterNumberName":"V-component_of_WINDS"},"data":[0.0,0.0,0.0,0.0,0.0,0.0,0.0,0.0,0.0,0.0,0.0,0.0,0.0,0.0,0.0,0.0,0.0,0.0,0.0,0.0,0.0,0.0,0.0,0.0,0.0,0.0,0.0,0.0,0.0,0.0,0.0,0.0,0.0,0.0,0.0,0.0,0.0,0.0,0.0,0.0,0.0,0.0,0.0,0.0,0.0,0.0,0.0,0.0,0.0,0.0,0.0,0.0,0.0,0.0,0.0,0.0,0.0,0.0,0.0,0.0,0.0,0.0,0.0,0.0,0.0,0.0,0.0,0.0,0.0,0.0,0.0,0.0,0.0,0.0,0.0,0.0,0.0,0.0,0.0,0.0,0.0,0.0,0.0,0.0,0.0,0.0,0.0,0.0,0.0,0.0,0.0,0.0,0.0,0.0,0.0,0.0,0.0,0.0,0.0,0.0,0.0,0.0,0.0,0.0,0.0,0.0,0.0,0.0,0.0,0.0,0.0,0.0,0.0,0.0,0.0,0.0,0.0,0.0,0.0,0.0,0.0,0.0,0.0,0.0,0.0,0.0,0.0,0.0,0.0,0.0,0.0,0.0,0.0,0.0,0.0,0.0,0.0,0.0,0.0,0.0,0.0,0.0,0.0,0.0,0.0,0.0,0.0,0.0,0.0,0.0,0.0,0.0,0.0,0.0,0.0,0.0,0.0,0.0,0.0,0.0,0.0,0.0,0.0,0.0,0.0,0.0,0.0,0.0,0.0,0.0,0.0,0.0,0.0,0.0,0.0,0.0,0.0,0.0,0.0,0.0,0.0,0.0,0.0,0.0,0.0,0.0,0.0,0.0,0.0,0.0,0.0,0.0,0.0,0.0,0.0,0.0,0.0,0.0,0.0,0.0,0.0,0.0,0.0,0.0,0.0,0.0,0.0,0.0,0.0,0.0,0.0,0.0,0.0,0.0,0.0,0.0,0.0,0.0,0.0,0.0,0.0,0.0,0.0,0.0,0.0,0.0,0.0,0.0,0.0,0.0,0.0,0.0,0.0,0.0,0.0,0.0,0.0,0.0,0.0,0.0,0.0,0.0,0.0,0.0,0.0,0.0,0.0,0.0,0.0,0.0,0.0,0.0,0.0,0.0,0.0,0.0,0.0,0.0,0.0,0.0,0.0,0.0,0.0,0.0,0.0,0.0,0.0,0.0,0.0,0.0,0.0,0.0,0.0,0.0,0.0,0.0,0.0,0.0,0.0,0.0,0.0,0.0,0.0,0.0,0.0,0.0,0.0,0.0,0.0,0.0,0.0,0.0,0.0,0.0,0.0,0.0,0.0,0.0,0.0,0.0,0.0,0.0,0.0,0.0,0.0,0.0,0.0,0.0,0.0,0.0,0.0,0.0,0.0,0.0,0.0,0.0,0.0,0.0,0.0,0.0,0.0,0.0,0.0,0.0,0.0,0.0,0.0,0.0,0.0,0.0,0.0,0.0,0.0,0.0,0.0,0.0,0.0,0.0,0.0,0.0,0.0,0.0,0.0,0.0,0.0,0.0,0.0,0.0,0.0,0.0,0.0,0.0,0.0,0.0,0.0,0.0,0.0,0.0,0.0,0.0,0.0,0.0,0.0,0.0,0.0,0.0,0.0,0.0,0.0,0.0,0.0,0.0,0.0,0.0,0.0,0.0,0.0,0.0,0.0,0.0,0.0,0.0,0.0,0.0,0.0,0.0,0.0,0.0,0.0,0.0,0.0,0.0,0.0,0.0,0.0,0.0,0.0,0.0,0.0,0.0,0.0,0.0,0.0,0.0,0.0,0.0,0.0,0.0,0.0,0.0,0.0,0.0,0.0,0.0,0.0,0.0,0.0,0.0,0.0,0.0,0.0,0.0,0.0,0.0,0.0,0.0,0.0,0.0,0.0,0.0,0.0,0.0,0.0,0.0,0.0,0.0,0.0,0.0,0.0,0.0,0.0,0.0,0.0,0.0,0.0,0.0,0.0,0.0,0.0,0.0,0.0,0.0,0.0,0.0,0.0,0.0,0.0,0.0,0.0,0.0,0.0,0.0,0.0,0.0,0.0,0.0,0.0,0.0,0.0,0.0,0.0,0.0,0.0,0.0,0.0,0.0,0.0,0.0,0.0,0.0,0.0,0.0,0.0,0.0,0.0,0.0,0.0,0.0,0.0,0.0,0.0,0.0,0.0,0.0,0.0,0.0,0.0,0.0,0.0,0.0,0.0,0.0,0.0,0.0,0.0,0.0,0.0,0.0,0.0,0.0,0.0,0.0,0.0,0.0,0.0,0.0,0.0,0.0,0.0,0.0,0.0,0.0,0.0,0.0,0.0,0.0,0.0,0.0,0.0,0.0,0.0,0.0,0.0,0.0,0.0,0.0,0.0,0.0,0.0,0.0,0.0,0.0,0.0,0.0,0.0,0.0,0.0,0.0,0.0,0.0,0.0,0.0,0.0,0.0,0.0,0.0,0.0,0.0,0.0,0.0,0.0,0.0,0.0,0.0,0.0,0.0,0.0,0.0,0.0,0.0,0.0,0.0,0.0,0.0,0.0,0.0,0.0,0.0,0.0,0.0,0.0,0.0,0.0,0.0,0.0,0.0,0.0,0.0,0.0,0.0,0.0,0.0,0.0,0.0,0.0,0.0,0.0,0.0,0.0,0.0,0.0,0.0,0.0,0.0,0.0,0.0,0.0,0.0,0.0,0.0,0.0,0.0,0.0,0.0,0.0,0.0,0.0,0.0,0.0,0.0,0.0,0.0,0.0,0.0,0.0,0.0,0.0,0.0,0.0,0.0,0.0,0.0,0.0,0.0,0.0,0.0,0.0,0.0,0.0,0.0,0.0,0.0,0.0,0.0,0.0,0.0,0.0,0.0,0.0,0.0,0.0,0.0,0.0,0.0,0.0,0.0,0.0,0.0,0.0,0.0,0.0,0.0,0.0,0.0,0.0,0.0,0.0,0.0,0.0,0.0,0.0,0.0,0.0,0.0,0.0,0.0,0.0,0.0,0.0,0.0,0.0,0.0,0.0,0.0,0.0,0.0,0.0,0.0,0.0,0.0,0.0,0.0,0.0,0.0,0.0,0.0,0.0,0.0,0.0,0.0,0.0,0.0,0.0,0.0,0.0,0.0,0.0,0.0,0.0,0.0,0.0,0.0,0.0,0.0,0.0,0.0,0.0,0.0,0.0,0.0,0.0,0.0,0.0,0.0,0.0,0.0,0.0,0.0,0.0,0.0,0.0,0.0,0.0,0.0,0.0,0.0,0.0,0.0,0.0,0.0,0.0,0.0,0.0,0.0,0.0,0.0,0.0,0.0,0.0,0.0,0.0,0.0,0.0,0.0,0.0,0.0,0.0,0.0,0.0,0.0,0.0,0.0,0.0,0.0,0.0,0.0,0.0,0.0,0.0,0.0,0.0,0.0,0.0,0.0,0.0,0.0,0.0,0.0,0.0,0.0,0.0,0.0,0.0,0.0,0.0,0.0,0.0,0.0,0.0,0.0,0.0,0.0,0.0,0.0,0.0,0.0,0.0,0.0,0.0,0.0,0.0,0.0,0.0,0.0,0.0,0.0,0.0,0.0,0.0,0.0,0.0,0.0,0.0,0.0,0.0,0.0,0.0,0.0,0.0,0.0,0.0,0.0,0.0,0.0,0.0,0.0,0.0,0.0,0.0,0.0,0.0,0.0,0.0,0.0,0.0,0.0,0.0,0.0,0.0,0.0,0.0,0.0,0.0,0.0,0.0,0.0,0.0,0.0,0.0,0.0,0.0,0.0,0.0,0.0,0.0,0.0,0.0,0.0,0.0,0.0,0.0,0.0,0.0,0.0,0.0,0.0,0.0,0.0,0.0,0.0,0.0,0.0,0.0,0.0,0.0,0.0,0.0,0.0,0.0,0.0,0.0,0.0,0.0,0.0,0.0,0.0,0.0,0.0,0.0,0.0,0.0,0.0,0.0,0.0,0.0,0.0,0.0,0.0,0.0,0.0,0.0,0.0,0.0,0.0,0.0,0.0,0.0,0.0,0.0,0.0,0.0,0.0,0.0,0.0,0.0,0.0,0.0,0.0,0.0,0.0,0.0,0.0,0.0,0.0,0.0,0.0,0.0,0.0,0.0,0.0,0.0,0.0,0.0,0.0,0.0,0.0,0.0,0.0,0.0,0.0,0.0,0.0,0.0,0.0,0.0,0.0,0.0,0.0,0.0,0.0,0.0,0.0,0.0,0.0,0.0,0.0,0.0,0.0,0.0,0.0,0.0,0.0,0.0,0.0,0.0,0.0,1.7993,0.0,0.0,0.0,0.0,0.0,0.0,0.0,0.0,0.0,0.0,0.0,0.0,0.0,0.0,0.0,0.0,0.0,0.0,0.0,0.0,0.0,0.0,0.0,0.0,0.0,0.0,0.0,0.0,0.0,0.0,0.0,0.0,0.0,0.0,0.0,0.0,0.0,0.0,0.0,0.0,0.0,0.0,0.0,0.0,0.0,0.0,0.0,0.0,0.0,0.0,0.0,0.0,0.0,0.0,0.0,0.0,0.0,0.0,0.0,0.0,0.0,0.0,0.0,0.0,0.0,0.0,0.0,0.0,0.0,0.0,0.0,0.0,0.0,0.0,0.0,0.0,0.0,0.0,0.0,0.0,0.0,0.0,0.0,0.0,0.0,0.0,0.0,0.0,0.0,0.0,0.0,0.0,0.0,0.0,0.0,0.0,0.0,0.0,0.0,0.0,0.0,0.0,0.0,0.0,0.0,0.0,0.0,0.0,0.0,0.0,1.894,1.8822,1.8476,1.8393,1.8649,0.0,0.0,0.0,0.0,0.0,0.0,0.0,0.0,0.0,0.0,0.0,0.0,0.0,0.0,0.0,0.0,0.0,0.0,0.0,0.0,0.0,0.0,0.0,0.0,0.0,0.0,0.0,0.0,0.0,0.0,0.0,0.0,0.0,0.0,0.0,0.0,0.0,0.0,0.0,0.0,0.0,0.0,0.0,0.0,0.0,0.0,0.0,0.0,0.0,0.0,0.0,0.0,0.0,0.0,0.0,0.0,0.0,0.0,0.0,0.0,0.0,0.0,0.0,0.0,0.0,0.0,0.0,0.0,0.0,0.0,0.0,0.0,0.0,0.0,0.0,0.0,0.0,0.0,0.0,0.0,0.0,0.0,0.0,0.0,0.0,0.0,0.0,0.0,0.0,0.0,0.0,0.0,0.0,0.0,0.0,0.0,0.0,0.0,0.0,0.0,0.0,0.0,0.0,0.0,0.0,0.0,0.0,0.0,0.0,0.0,0.0,0.0,1.9128,1.9091,1.9133,0.0,0.0,0.0,0.0,0.0,0.0,0.0,0.0,0.0,0.0,0.0,0.0,0.0,0.0,0.0,0.0,0.0,0.0,0.0,0.0,0.0,0.0,0.0,0.0,0.0,0.0,0.0,0.0,0.0,0.0,0.0,0.0,0.0,0.0,0.0,0.0,0.0,0.0,0.0,0.0,0.0,0.0,0.0,0.0,0.0,0.0,0.0,0.0,0.0,0.0,0.0,0.0,0.0,0.0,0.0,0.0,0.0,0.0,0.0,0.0,0.0,0.0,0.0,0.0,0.0,0.0,0.0,0.0,0.0,0.0,0.0,0.0,0.0,0.0,0.0,0.0,0.0,0.0,0.0,0.0,0.0,0.0,0.0,0.0,0.0,0.0,0.0,0.0,0.0,0.0,0.0,0.0,0.0,0.0,0.0,0.0,0.0,0.0,0.0,0.0,0.0,0.0,0.0,0.0,0.0,0.0,0.0,0.0,0.0,0.0,1.9297,1.9612,1.9011,0.0,1.9169,0.0,0.0,0.0,0.0,0.0,0.0,0.0,0.0,0.0,0.0,0.0,0.0,0.0,0.0,0.0,0.0,0.0,0.0,0.0,0.0,0.0,0.0,0.0,0.0,0.0,0.0,0.0,0.0,0.0,0.0,0.0,0.0,0.0,0.0,0.0,0.0,0.0,0.0,0.0,0.0,0.0,0.0,0.0,0.0,0.0,0.0,0.0,0.0,0.0,0.0,0.0,0.0,0.0,0.0,0.0,0.0,0.0,0.0,0.0,0.0,0.0,0.0,0.0,0.0,0.0,0.0,0.0,0.0,0.0,0.0,0.0,0.0,0.0,0.0,0.0,0.0,0.0,0.0,0.0,0.0,0.0,0.0,0.0,0.0,0.0,0.0,0.0,0.0,0.0,0.0,0.0,0.0,0.0,0.0,0.0,0.0,0.0,0.0,0.0,0.0,0.0,0.0,0.0,0.0,0.0,0.0,0.0,0.0,0.0,0.0,0.0,1.9675,1.9069,1.88,0.0,0.0,0.0,0.0,0.0,0.0,0.0,0.0,0.0,0.0,0.0,0.0,0.0,0.0,0.0,0.0,0.0,0.0,0.0,0.0,0.0,0.0,0.0,0.0,0.0,0.0,0.0,0.0,0.0,0.0,0.0,0.0,0.0,0.0,0.0,0.0,0.0,0.0,0.0,0.0,0.0,0.0,0.0,0.0,0.0,0.0,0.0,0.0,0.0,0.0,0.0,0.0,0.0,0.0,0.0,0.0,0.0,0.0,0.0,0.0,0.0,0.0,0.0,0.0,0.0,0.0,0.0,0.0,0.0,0.0,0.0,0.0,0.0,0.0,0.0,0.0,0.0,0.0,0.0,0.0,0.0,0.0,0.0,0.0,0.0,0.0,0.0,0.0,0.0,0.0,0.0,0.0,0.0,0.0,0.0,0.0,0.0,0.0,0.0,0.0,0.0,0.0,0.0,0.0,0.0,0.0,0.0,0.0,0.0,0.0,1.8896,0.0,1.9437,1.9017,1.8704,1.8581,0.0,0.0,0.0,0.0,0.0,0.0,0.0,0.0,0.0,0.0,0.0,0.0,0.0,0.0,0.0,0.0,0.0,0.0,0.0,0.0,0.0,0.0,0.0,0.0,0.0,0.0,0.0,0.0,0.0,0.0,0.0,0.0,0.0,0.0,0.0,0.0,0.0,0.0,0.0,0.0,0.0,0.0,0.0,0.0,0.0,0.0,0.0,0.0,0.0,0.0,0.0,0.0,0.0,0.0,0.0,0.0,0.0,0.0,0.0,0.0,0.0,0.0,0.0,0.0,0.0,0.0,0.0,0.0,0.0,0.0,0.0,0.0,0.0,0.0,0.0,0.0,0.0,0.0,0.0,0.0,0.0,0.0,0.0,0.0,0.0,0.0,0.0,0.0,0.0,0.0,0.0,0.0,0.0,0.0,0.0,0.0,0.0,0.0,0.0,0.0,0.0,0.0,0.0,0.0,0.0,0.0,0.0,0.0,0.0,1.8745,1.8801,1.8939,1.8792,1.8494,0.0,0.0,0.0,0.0,0.0,0.0,0.0,0.0,0.0,0.0,0.0,0.0,0.0,0.0,0.0,0.0,0.0,0.0,0.0,0.0,0.0,0.0,0.0,0.0,0.0,0.0,0.0,0.0,0.0,0.0,0.0,0.0,0.0,0.0,0.0,0.0,0.0,0.0,0.0,0.0,0.0,0.0,0.0,0.0,0.0,0.0,0.0,0.0,0.0,0.0,0.0,0.0,0.0,0.0,0.0,0.0,0.0,0.0,0.0,0.0,0.0,0.0,0.0,0.0,0.0,0.0,0.0,0.0,0.0,0.0,0.0,0.0,0.0,0.0,0.0,0.0,0.0,0.0,0.0,0.0,0.0,0.0,0.0,0.0,0.0,0.0,0.0,0.0,0.0,0.0,0.0,0.0,0.0,0.0,0.0,0.0,0.0,0.0,0.0,0.0,0.0,0.0,0.0,0.0,0.0,0.0,0.0,0.0,0.0,1.7557,1.7889,1.8277,1.8708,1.7991,1.7647,0.0,0.0,0.0,0.0,0.0,0.0,0.0,0.0,0.0,0.0,0.0,0.0,0.0,0.0,0.0,0.0,0.0,0.0,0.0,0.0,0.0,0.0,0.0,0.0,0.0,0.0,0.0,0.0,0.0,0.0,0.0,0.0,0.0,0.0,0.0,0.0,0.0,0.0,0.0,0.0,0.0,0.0,0.0,0.0,0.0,0.0,0.0,0.0,0.0,0.0,0.0,0.0,0.0,0.0,0.0,0.0,0.0,0.0,0.0,0.0,0.0,0.0,0.0,0.0,0.0,0.0,0.0,0.0,0.0,0.0,0.0,0.0,0.0,0.0,0.0,0.0,0.0,0.0,0.0,0.0,0.0,0.0,0.0,0.0,0.0,0.0,0.0,0.0,0.0,0.0,0.0,0.0,0.0,0.0,0.0,0.0,0.0,0.0,0.0,0.0,0.0,0.0,0.0,0.0,0.0,0.0,0.0,0.0,0.0,1.7095,0.0,1.8097,0.0,1.7519,1.7134,0.0,0.0,0.0,0.0,0.0,0.0,0.0,0.0,0.0,0.0,0.0,0.0,0.0,0.0,0.0,0.0,0.0,0.0,0.0,0.0,0.0,0.0,0.0,0.0,0.0,0.0,0.0,0.0,0.0,0.0,0.0,0.0,0.0,0.0,0.0,0.0,0.0,0.0,0.0,0.0,0.0,0.0,0.0,0.0,0.0,0.0,0.0,0.0,0.0,0.0,0.0,0.0,0.0,0.0,0.0,0.0,0.0,0.0,0.0,0.0,0.0,0.0,0.0,0.0,0.0,0.0,0.0,0.0,0.0,0.0,0.0,0.0,0.0,0.0,0.0,0.0,0.0,0.0,0.0,0.0,0.0,0.0,0.0,0.0,0.0,0.0,0.0,0.0,0.0,0.0,0.0,0.0,0.0,0.0,0.0,0.0,0.0,0.0,0.0,0.0,0.0,0.0,0.0,0.0,0.0,0.0,0.0,0.0,1.6548,1.7468,1.8174,1.8176,1.7472,1.7492,1.7014,0.0,0.0,0.0,0.0,0.0,0.0,0.0,0.0,0.0,0.0,0.0,0.0,0.0,0.0,0.0,0.0,0.0,0.0,0.0,0.0,0.0,0.0,0.0,0.0,0.0,0.0,0.0,0.0,0.0,0.0,0.0,0.0,0.0,0.0,0.0,0.0,0.0,0.0,0.0,0.0,0.0,0.0,0.0,0.0,0.0,0.0,0.0,0.0,0.0,0.0,0.0,0.0,0.0,0.0,0.0,0.0,0.0,0.0,0.0,0.0,0.0,0.0,0.0,0.0,0.0,0.0,0.0,0.0,0.0,0.0,0.0,0.0,0.0,0.0,0.0,0.0,0.0,0.0,0.0,0.0,0.0,0.0,0.0,0.0,0.0,0.0,0.0,0.0,0.0,0.0,0.0,0.0,0.0,0.0,0.0,0.0,0.0,0.0,0.0,0.0,0.0,0.0,0.0,0.0,0.0,0.0,0.0,0.0,0.0,1.7307,1.747,1.794,1.8631,1.7845,1.7588,0.0,0.0,0.0,0.0,0.0,0.0,0.0,0.0,0.0,0.0,0.0,0.0,0.0,0.0,0.0,0.0,0.0,0.0,0.0,0.0,0.0,0.0,0.0,0.0,0.0,0.0,0.0,0.0,0.0,0.0,0.0,0.0,0.0,0.0,0.0,0.0,0.0,0.0,0.0,0.0,0.0,0.0,0.0,0.0,0.0,0.0,0.0,0.0,0.0,0.0,0.0,0.0,0.0,0.0,0.0,0.0,0.0,0.0,0.0,0.0,0.0,0.0,0.0,0.0,0.0,0.0,0.0,0.0,0.0,0.0,0.0,0.0,0.0,0.0,0.0,0.0,0.0,0.0,0.0,0.0,0.0,0.0,0.0,0.0,0.0,0.0,0.0,0.0,0.0,0.0,0.0,0.0,0.0,0.0,0.0,0.0,0.0,0.0,0.0,0.0,0.0,0.0,0.0,0.0,0.0,0.0,0.0,0.0,0.0,1.8216,1.834,1.8723,1.9339,1.8546,1.8257,1.8551,0.0,0.0,0.0,0.0,0.0,0.0,0.0,0.0,0.0,0.0,0.0,0.0,0.0,0.0,0.0,0.0,0.0,0.0,0.0,0.0,0.0,0.0,0.0,0.0,0.0,0.0,0.0,0.0,0.0,0.0,0.0,0.0,0.0,0.0,0.0,0.0,0.0,0.0,0.0,0.0,0.0,0.0,0.0,0.0,0.0,0.0,0.0,0.0,0.0,0.0,0.0,0.0,0.0,0.0,0.0,0.0,0.0,0.0,0.0,0.0,0.0,0.0,0.0,0.0,0.0,0.0,0.0,0.0,0.0,0.0,0.0,0.0,0.0,0.0,0.0,0.0,0.0,0.0,0.0,0.0,0.0,0.0,0.0,0.0,0.0,0.0,0.0,0.0,0.0,0.0,0.0,0.0,0.0,0.0,0.0,0.0,0.0,0.0,0.0,0.0,0.0,0.0,0.0,0.0,0.0,0.0,0.0,0.0,2.0023,2.0586,2.0422,1.9533,1.9522,1.9083,0.0,0.0,0.0,0.0,0.0,0.0,0.0,0.0,0.0,0.0,0.0,0.0,0.0,0.0,0.0,0.0,0.0,0.0,0.0,0.0,0.0,0.0,0.0,0.0,0.0,0.0,0.0,0.0,0.0,0.0,0.0,0.0,0.0,0.0,0.0,0.0,0.0,0.0,0.0,0.0,0.0,0.0,0.0,0.0,0.0,0.0,0.0,0.0,0.0,0.0,0.0,0.0,0.0,0.0,0.0,0.0,0.0,0.0,0.0,0.0,0.0,0.0,0.0,0.0,0.0,0.0,0.0,0.0,0.0,0.0,0.0,0.0,0.0,0.0,0.0,0.0,0.0,0.0,0.0,0.0,0.0,0.0,0.0,0.0,0.0,0.0,0.0,0.0,0.0,0.0,0.0,0.0,0.0,0.0,0.0,0.0,0.0,0.0,0.0,0.0,0.0,0.0,0.0,0.0,0.0,0.0,0.0,0.0,0.0,2.272,2.2992,2.2313,2.0659,2.036,2.0025,0.0,0.0,0.0,0.0,0.0,0.0,0.0,0.0,0.0,0.0,0.0,0.0,0.0,0.0,0.0,0.0,0.0,0.0,0.0,0.0,0.0,0.0,0.0,0.0,0.0,0.0,0.0,0.0,0.0,0.0,0.0,0.0,0.0,0.0,0.0,0.0,0.0,0.0,0.0,0.0,0.0,0.0,0.0,0.0,0.0,0.0,0.0,0.0,0.0,0.0,0.0,0.0,0.0,0.0,0.0,0.0,0.0,0.0,0.0,0.0,0.0,0.0,0.0,0.0,0.0,0.0,0.0,0.0,0.0,0.0,0.0,0.0,0.0,0.0,0.0,0.0,0.0,0.0,0.0,0.0,0.0,0.0,0.0,0.0,0.0,0.0,0.0,0.0,0.0,0.0,0.0,0.0,0.0,0.0,0.0,0.0,0.0,0.0,0.0,0.0,0.0,0.0,0.0,0.0,0.0,0.0,0.0,0.0,2.3006,2.3788,2.4598,2.4089,2.2213,2.1998,2.1432,0.0,0.0,0.0,0.0,0.0,0.0,0.0,0.0,0.0,0.0,0.0,0.0,0.0,0.0,0.0,0.0,0.0,0.0,0.0,0.0,0.0,0.0,0.0,0.0,0.0,0.0,0.0,0.0,0.0,0.0,0.0,0.0,0.0,0.0,0.0,0.0,0.0,0.0,0.0,0.0,0.0,0.0,0.0,0.0,0.0,0.0,0.0,0.0,0.0,0.0,0.0,0.0,0.0,0.0,0.0,0.0,0.0,0.0,0.0,0.0,0.0,0.0,0.0,0.0,0.0,0.0,0.0,0.0,0.0,0.0,0.0,0.0,0.0,0.0,0.0,0.0,0.0,0.0,0.0,0.0,0.0,0.0,0.0,0.0,0.0,0.0,0.0,0.0,0.0,0.0,0.0,0.0,0.0,0.0,0.0,0.0,0.0,0.0,0.0,0.0,0.0,0.0,0.0,0.0,0.0,0.0,0.0,0.0,2.3585,2.4152,2.5675,2.5759,2.4234,2.3982,2.2955,0.0,0.0,0.0,0.0,0.0,0.0,0.0,0.0,0.0,0.0,0.0,0.0,0.0,0.0,0.0,0.0,0.0,0.0,0.0,0.0,0.0,0.0,0.0,0.0,0.0,0.0,0.0,0.0,0.0,0.0,0.0,0.0,0.0,0.0,0.0,0.0,0.0,0.0,0.0,0.0,0.0,0.0,0.0,0.0,0.0,0.0,0.0,0.0,0.0,0.0,0.0,0.0,0.0,0.0,0.0,0.0,0.0,0.0,0.0,0.0,0.0,0.0,0.0,0.0,0.0,0.0,0.0,0.0,0.0,0.0,0.0,0.0,0.0,0.0,0.0,0.0,0.0,0.0,0.0,0.0,0.0,0.0,0.0,0.0,0.0,0.0,0.0,0.0,0.0,0.0,0.0,0.0,0.0,0.0,0.0,0.0,0.0,0.0,0.0,0.0,0.0,0.0,0.0,0.0,0.0,0.0,0.0,0.0,2.4868,2.6417,2.6849,2.6864,2.6478,2.4998,2.3218,0.0,0.0,0.0,0.0,0.0,0.0,0.0,0.0,0.0,0.0,0.0,0.0,0.0,0.0,0.0,0.0,0.0,0.0,0.0,0.0,0.0,0.0,0.0,0.0,0.0,0.0,0.0,0.0,0.0,0.0,0.0,0.0,0.0,0.0,0.0,0.0,0.0,0.0,0.0,0.0,0.0,0.0,0.0,0.0,0.0,0.0,0.0,0.0,1.4235,0.0,0.0,0.0,0.0,0.0,0.0,0.0,0.0,0.0,0.0,0.0,0.0,0.0,0.0,0.0,0.0,0.0,0.0,0.0,0.0,0.0,0.0,0.0,0.0,0.0,0.0,0.0,0.0,0.0,0.0,0.0,0.0,0.0,0.0,0.0,0.0,0.0,0.0,0.0,0.0,0.0,0.0,0.0,0.0,0.0,0.0,0.0,0.0,0.0,0.0,0.0,0.0,0.0,0.0,0.0,0.0,0.0,0.0,0.0,2.5553,2.7237,2.7609,2.7609,2.7268,2.5977,2.4281,0.0,0.0,0.0,0.0,0.0,0.0,0.0,0.0,0.0,0.0,0.0,0.0,0.0,0.0,0.0,0.0,0.0,0.0,0.0,0.0,0.0,0.0,0.0,0.0,0.0,0.0,0.0,0.0,0.0,0.0,0.0,0.0,0.0,0.0,0.0,0.0,0.0,0.0,0.0,0.0,0.0,0.0,0.0,0.0,0.0,0.0,0.0,0.0,0.0,0.0,0.0,0.0,0.0,0.0,0.0,0.0,0.0,0.0,0.0,0.0,0.0,0.0,0.0,0.0,0.0,0.0,0.0,0.0,0.0,0.0,0.0,0.0,0.0,0.0,0.0,0.0,0.0,0.0,0.0,0.0,0.0,0.0,0.0,0.0,0.0,0.0,0.0,0.0,0.0,0.0,0.0,0.0,0.0,0.0,0.0,0.0,0.0,0.0,0.0,0.0,0.0,0.0,0.0,0.0,0.0,0.0,0.0,2.4254,2.5864,2.7488,2.8104,2.8134,2.7565,2.6807,2.5465,2.3478,0.0,0.0,0.0,0.0,0.0,0.0,0.0,0.0,0.0,0.0,0.0,0.0,0.0,0.0,0.0,0.0,0.0,0.0,0.0,0.0,0.0,0.0,0.0,0.0,0.0,0.0,0.0,0.0,0.0,0.0,0.0,0.0,0.0,0.0,0.0,0.0,0.0,0.0,1.412,1.5933,0.0,0.0,0.0,0.0,0.0,0.0,0.0,0.0,1.5532,0.0,0.0,0.0,0.0,0.0,0.0,0.0,0.0,0.0,0.0,0.0,0.0,0.0,0.0,0.0,0.0,0.0,0.0,0.0,0.0,0.0,0.0,0.0,0.0,0.0,0.0,0.0,0.0,0.0,0.0,0.0,0.0,0.0,0.0,0.0,0.0,0.0,0.0,0.0,0.0,0.0,0.0,0.0,0.0,0.0,0.0,0.0,0.0,0.0,0.0,0.0,0.0,0.0,0.0,0.0,0.0,2.4732,2.4578,2.5665,2.8153,2.835,2.835,2.8199,2.7038,2.5687,2.4179,0.0,0.0,0.0,0.0,0.0,0.0,0.0,0.0,0.0,0.0,0.0,0.0,0.0,0.0,0.0,0.0,0.0,0.0,0.0,0.0,0.0,0.0,0.0,0.0,0.0,0.0,0.0,0.0,0.0,0.0,0.0,0.0,0.0,0.0,0.0,0.0,0.0,0.0,0.0,1.7674,1.8493,0.0,0.0,0.0,0.0,0.0,0.0,0.0,0.0,1.621,0.0,0.0,0.0,0.0,0.0,0.0,0.0,0.0,0.0,0.0,0.0,0.0,0.0,0.0,0.0,0.0,0.0,0.0,0.0,0.0,0.0,0.0,0.0,0.0,0.0,0.0,0.0,0.0,0.0,0.0,0.0,0.0,0.0,0.0,0.0,0.0,0.0,0.0,0.0,0.0,0.0,0.0,0.0,0.0,0.0,0.0,0.0,0.0,0.0,0.0,0.0,0.0,0.0,0.0,0.0,2.4614,2.5501,2.6703,2.8334,2.8411,2.8411,2.8365,2.6722,2.5349,0.0,0.0,0.0,0.0,0.0,0.0,0.0,0.0,0.0,0.0,0.0,0.0,0.0,0.0,0.0,0.0,0.0,0.0,0.0,0.0,0.0,0.0,0.0,0.0,0.0,0.0,0.0,0.0,0.0,0.0,0.0,0.0,0.0,0.0,0.0,0.0,0.0,0.0,0.0,0.0,1.8534,1.8921,1.9541,0.0,0.0,0.0,0.0,0.0,0.0,1.7702,1.7464,0.0,0.0,0.0,0.0,0.0,0.0,0.0,0.0,0.0,0.0,0.0,0.0,0.0,0.0,0.0,0.0,0.0,0.0,0.0,0.0,0.0,0.0,0.0,0.0,0.0,0.0,0.0,0.0,0.0,0.0,0.0,0.0,0.0,0.0,0.0,0.0,0.0,0.0,0.0,0.0,0.0,0.0,0.0,0.0,0.0,0.0,0.0,0.0,0.0,0.0,0.0,0.0,0.0,0.0,0.0,2.4219,2.6192,2.7596,2.8365,2.8411,2.8411,2.8365,2.6507,2.5138,0.0,0.0,0.0,0.0,0.0,0.0,0.0,0.0,0.0,0.0,0.0,0.0,0.0,0.0,0.0,0.0,0.0,0.0,0.0,0.0,0.0,0.0,0.0,0.0,0.0,0.0,0.0,0.0,0.0,0.0,0.0,0.0,0.0,0.0,0.0,0.0,0.0,0.0,0.0,0.0,0.0,1.9677,2.0185,1.9852,0.0,0.0,0.0,0.0,1.9084,1.9281,0.0,0.0,0.0,0.0,0.0,0.0,0.0,0.0,0.0,0.0,0.0,0.0,0.0,0.0,0.0,0.0,0.0,0.0,0.0,0.0,0.0,0.0,0.0,0.0,0.0,0.0,0.0,0.0,0.0,0.0,0.0,0.0,0.0,0.0,0.0,0.0,0.0,0.0,0.0,0.0,0.0,0.0,0.0,0.0,0.0,0.0,0.0,0.0,0.0,0.0,0.0,0.0,0.0,0.0,0.0,0.0,2.423,2.5764,2.7134,2.8334,2.8411,2.8411,2.8396,2.7022,2.5656,0.0,0.0,0.0,0.0,0.0,0.0,0.0,0.0,0.0,0.0,0.0,0.0,0.0,0.0,0.0,0.0,0.0,0.0,0.0,0.0,0.0,0.0,0.0,0.0,0.0,0.0,0.0,0.0,0.0,0.0,0.0,0.0,0.0,0.0,0.0,0.0,0.0,0.0,0.0,0.0,0.0,2.1768,1.9803,2.014,2.0292,0.0,0.0,2.0861,2.1998,2.2207,0.0,0.0,0.0,0.0,0.0,0.0,0.0,0.0,0.0,0.0,0.0,0.0,0.0,0.0,0.0,0.0,0.0,0.0,0.0,0.0,0.0,0.0,0.0,0.0,0.0,0.0,0.0,0.0,0.0,0.0,0.0,0.0,0.0,0.0,0.0,0.0,0.0,0.0,0.0,0.0,0.0,0.0,0.0,0.0,0.0,0.0,0.0,0.0,0.0,0.0,0.0,0.0,0.0,0.0,0.0,2.2891,2.4584,2.6542,2.7811,2.8381,2.8411,2.8227,2.7842,2.6503,2.5133,0.0,0.0,0.0,0.0,0.0,0.0,0.0,0.0,0.0,0.0,0.0,0.0,0.0,0.0,0.0,0.0,0.0,0.0,0.0,0.0,0.0,0.0,0.0,0.0,0.0,0.0,0.0,0.0,0.0,0.0,0.0,0.0,0.0,0.0,0.0,0.0,0.0,0.0,0.0,0.0,0.0,0.0,2.0965,2.1504,0.0,0.0,0.0,2.2428,2.2673,0.0,0.0,0.0,0.0,0.0,0.0,0.0,0.0,0.0,0.0,0.0,0.0,0.0,0.0,0.0,0.0,0.0,0.0,0.0,0.0,0.0,0.0,0.0,0.0,0.0,0.0,0.0,0.0,0.0,0.0,0.0,0.0,0.0,0.0,0.0,0.0,0.0,0.0,0.0,0.0,0.0,0.0,0.0,0.0,0.0,0.0,0.0,0.0,0.0,0.0,0.0,0.0,0.0,0.0,0.0,0.0,0.0,2.4696,2.7122,2.8411,2.8411,2.8411,2.8073,2.7423,2.6211,0.0,0.0,0.0,0.0,0.0,0.0,0.0,0.0,0.0,0.0,0.0,0.0,0.0,0.0,0.0,0.0,0.0,0.0,0.0,0.0,0.0,0.0,0.0,0.0,0.0,0.0,0.0,1.3017,0.0,0.0,0.0,0.0,0.0,0.0,0.0,0.0,0.0,0.0,0.0,0.0,0.0,0.0,2.1396,2.1991,2.2635,2.2928,0.0,0.0,2.3684,2.3246,2.3467,2.3037,0.0,0.0,0.0,0.0,0.0,0.0,0.0,0.0,0.0,0.0,0.0,0.0,0.0,0.0,0.0,0.0,0.0,0.0,0.0,0.0,0.0,0.0,0.0,0.0,0.0,0.0,0.0,0.0,0.0,0.0,0.0,0.0,0.0,0.0,0.0,0.0,0.0,0.0,0.0,0.0,0.0,0.0,0.0,0.0,0.0,0.0,0.0,0.0,0.0,0.0,0.0,0.0,0.0,0.0,0.0,2.439,2.7011,2.8411,2.8411,2.8411,2.8088,2.7411,2.6688,2.5375,0.0,0.0,0.0,0.0,0.0,0.0,0.0,0.0,0.0,0.0,0.0,0.0,0.0,0.0,0.0,0.0,0.0,0.0,0.0,0.0,0.0,0.0,0.0,0.0,0.0,0.0,0.0,0.0,0.0,0.0,0.0,0.0,0.0,0.0,0.0,0.0,0.0,0.0,0.0,0.0,0.0,2.319,2.2153,2.3004,2.3757,0.0,2.4243,2.4504,2.4474,2.5498,2.527,2.2143,0.0,0.0,0.0,0.0,0.0,0.0,0.0,0.0,0.0,0.0,0.0,0.0,0.0,0.0,0.0,0.0,0.0,0.0,0.0,0.0,0.0,0.0,0.0,0.0,0.0,0.0,0.0,0.0,0.0,0.0,0.0,0.0,0.0,0.0,0.0,0.0,0.0,0.0,0.0,0.0,0.0,0.0,0.0,0.0,0.0,0.0,0.0,0.0,0.0,0.0,0.0,0.0,0.0,2.3596,2.4902,2.7197,2.8411,2.8411,2.8411,2.7888,2.6807,2.6518,2.5328,0.0,0.0,0.0,0.0,0.0,0.0,0.0,0.0,0.0,0.0,0.0,0.0,0.0,0.0,0.0,0.0,0.0,0.0,0.0,0.0,0.0,0.0,0.0,0.0,0.0,0.0,0.0,0.0,1.6116,1.6089,1.5705,0.0,0.0,0.0,0.0,0.0,0.0,0.0,0.0,0.0,0.0,2.3786,2.3781,2.4471,0.0,0.0,2.555,2.5693,2.5277,2.4956,2.4055,2.2034,2.0797,0.0,0.0,0.0,0.0,0.0,0.0,0.0,0.0,0.0,0.0,0.0,0.0,0.0,0.0,0.0,0.0,0.0,0.0,0.0,0.0,0.0,0.0,0.0,0.0,0.0,0.0,0.0,0.0,0.0,0.0,0.0,0.0,0.0,0.0,0.0,0.0,0.0,0.0,0.0,0.0,0.0,0.0,0.0,0.0,0.0,0.0,0.0,0.0,0.0,0.0,0.0,0.0,2.4003,2.5147,2.7288,2.8411,2.8411,2.8411,2.7753,2.6468,2.638,2.5242,0.0,0.0,0.0,0.0,0.0,0.0,0.0,0.0,0.0,0.0,0.0,0.0,0.0,0.0,0.0,0.0,0.0,0.0,0.0,0.0,0.0,0.0,0.0,0.0,0.0,0.0,0.0,0.0,1.7694,1.7147,1.5816,0.0,0.0,0.0,0.0,0.0,0.0,0.0,0.0,0.0,0.0,2.4602,2.5292,2.5563,2.5841,2.6339,2.6156,2.5854,2.5379,2.4522,2.34,2.1934,0.0,0.0,0.0,0.0,0.0,0.0,0.0,0.0,0.0,0.0,0.0,0.0,0.0,0.0,0.0,0.0,0.0,0.0,0.0,0.0,0.0,0.0,0.0,0.0,0.0,0.0,0.0,2.2818,0.0,0.0,2.3934,0.0,0.0,0.0,0.0,0.0,0.0,0.0,0.0,0.0,0.0,0.0,0.0,0.0,0.0,0.0,0.0,0.0,0.0,0.0,0.0,0.0,0.0,2.4382,2.4831,2.7201,2.8408,2.8424,2.8411,2.7789,2.6517,2.6349,2.52,2.2888,0.0,0.0,0.0,0.0,0.0,0.0,0.0,0.0,0.0,0.0,0.0,0.0,0.0,0.0,0.0,0.0,0.0,0.0,0.0,0.0,0.0,0.0,0.0,0.0,0.0,0.0,1.8583,1.7837,1.67,0.0,0.0,0.0,0.0,0.0,0.0,0.0,0.0,0.0,0.0,2.4402,2.5789,2.647,2.601,2.6117,2.7338,2.5932,2.4668,2.4668,2.459,2.3943,0.0,0.0,0.0,0.0,0.0,0.0,0.0,0.0,0.0,0.0,0.0,0.0,0.0,0.0,0.0,0.0,0.0,0.0,0.0,0.0,0.0,0.0,0.0,0.0,0.0,0.0,0.0,2.4559,2.4764,0.0,0.0,0.0,0.0,0.0,0.0,0.0,0.0,0.0,0.0,0.0,2.6296,2.6693,0.0,0.0,0.0,0.0,0.0,0.0,0.0,0.0,0.0,0.0,0.0,0.0,2.4817,2.5243,2.7606,2.8861,2.8873,2.8873,2.8579,2.8003,2.7493,2.5836,2.2898,0.0,0.0,0.0,0.0,0.0,0.0,0.0,0.0,0.0,0.0,0.0,0.0,0.0,0.0,0.0,0.0,0.0,0.0,0.0,0.0,0.0,0.0,0.0,0.0,0.0,1.8236,0.0,0.0,0.0,0.0,0.0,0.0,0.0,0.0,0.0,0.0,0.0,2.258,2.3833,2.5309,2.6509,2.718,2.7078,2.7106,0.0,0.0,0.0,0.0,0.0,0.0,0.0,0.0,0.0,0.0,0.0,0.0,0.0,0.0,2.1899,1.9701,1.9087,1.8835,1.8607,0.0,0.0,0.0,0.0,0.0,0.0,0.0,0.0,0.0,0.0,0.0,0.0,0.0,0.0,2.7054,2.727,2.6988,0.0,0.0,0.0,0.0,0.0,0.0,0.0,0.0,2.7907,2.8356,2.791,2.8579,2.8553,0.0,2.7611,2.644,0.0,0.0,0.0,0.0,0.0,0.0,0.0,0.0,2.5491,2.5997,2.8191,2.9364,2.9364,2.9364,2.9169,2.881,2.7726,2.6037,2.3678,2.3264,2.2629,0.0,0.0,0.0,0.0,0.0,0.0,0.0,0.0,0.0,0.0,0.0,0.0,0.0,0.0,0.0,0.0,0.0,0.0,0.0,0.0,0.0,0.0,0.0,1.9489,0.0,0.0,0.0,0.0,0.0,0.0,0.0,0.0,0.0,2.0518,2.2284,2.4014,2.5277,2.6354,2.7158,2.754,0.0,0.0,0.0,0.0,0.0,0.0,0.0,2.3766,2.3989,2.3477,2.3251,2.3838,2.45,2.4874,2.4649,0.0,0.0,2.1844,2.1182,2.0979,2.1013,2.1818,2.2509,2.2509,2.3384,2.4167,0.0,0.0,0.0,0.0,0.0,0.0,0.0,0.0,2.9071,2.9442,0.0,2.9314,0.0,0.0,0.0,0.0,2.6934,2.8102,0.0,0.0,3.0757,3.0995,2.9756,3.0259,3.0217,2.9696,3.0237,2.9764,2.8226,2.4584,0.0,0.0,0.0,0.0,0.0,0.0,2.6403,2.7146,2.8918,2.9815,2.9826,2.9843,2.9497,2.8792,2.7135,2.5884,2.5121,2.4737,2.39,2.2521,2.2342,0.0,0.0,0.0,0.0,0.0,0.0,0.0,0.0,0.0,0.0,0.0,0.0,0.0,0.0,0.0,0.0,0.0,0.0,0.0,0.0,2.072,0.0,0.0,0.0,0.0,0.0,0.0,0.0,0.0,0.0,0.0,2.226,2.3872,2.5542,2.6797,0.0,0.0,0.0,0.0,2.6881,2.752,2.6507,2.5659,2.5644,2.5585,2.5377,2.4931,0.0,0.0,2.484,2.5244,2.5495,2.4844,2.5304,2.5453,2.4784,2.4059,2.361,2.3614,2.4126,2.4619,2.4694,2.5131,2.5636,3.5951,0.0,0.0,0.0,0.0,3.2735,3.2933,3.3702,3.3136,3.232,3.1429,3.1222,0.0,0.0,0.0,0.0,0.0,0.0,2.9756,3.0349,3.1856,3.2643,3.2792,3.2959,3.2951,3.2758,3.185,3.1204,3.0687,2.8043,2.5689,2.375,0.0,0.0,0.0,0.0,2.7718,2.8224,2.9625,3.0377,3.0377,3.0314,2.9877,2.8958,2.8499,2.7357,2.552,2.5484,2.5019,2.3943,2.2977,0.0,0.0,0.0,0.0,0.0,0.0,0.0,0.0,0.0,0.0,0.0,0.0,0.0,0.0,0.0,0.0,0.0,0.0,0.0,1.9934,2.072,2.0886,0.0,0.0,0.0,0.0,0.0,0.0,0.0,0.0,0.0,2.4875,2.5917,2.6629,0.0,0.0,2.789,2.7765,2.765,2.7654,2.7863,2.7164,0.0,2.6462,2.5649,2.5277,2.597,2.6696,2.7133,2.7037,2.7097,2.7109,2.6913,2.6972,2.6971,2.6734,2.5809,2.5079,2.5064,2.557,2.6004,2.6063,2.6569,2.7016,3.892,3.6644,3.6002,3.6028,3.6417,3.5954,3.6164,3.6835,3.6044,3.5293,3.4593,3.3993,3.2821,3.1272,3.0377,0.0,0.0,0.0,3.1436,3.2199,3.3306,3.3914,3.4103,3.4397,3.4362,3.4079,3.3155,3.2723,3.2679,3.1016,2.9119,2.7057,0.0,0.0,2.6121,2.775,2.8815,2.9334,3.0395,3.0978,3.0962,3.0922,3.0311,2.9089,2.9111,2.8202,2.6248,2.6276,2.5967,2.5128,2.3996,2.3137,0.0,0.0,0.0,0.0,0.0,0.0,0.0,0.0,0.0,0.0,0.0,1.6065,1.4594,0.0,0.0,0.0,1.8938,2.0551,2.1282,2.1769,0.0,0.0,0.0,0.0,0.0,0.0,0.0,2.4068,2.4756,2.5509,2.6543,2.7244,2.7602,2.7382,2.7783,2.8029,2.7905,0.0,2.798,2.798,2.7655,2.7385,2.7273,2.6608,2.6316,2.6967,2.7519,2.7865,2.7918,2.7878,2.788,2.7853,2.7778,2.7675,2.7675,2.6965,2.6393,2.6393,2.6704,2.6973,2.6988,2.7315,2.7585,4.1279,4.1177,3.969,3.9001,3.8901,3.8891,3.8883,3.8828,3.8127,3.8127,3.8579,3.7147,3.5984,3.4969,3.2882,0.0,3.3573,3.3306,3.3552,3.4266,3.4999,3.4962,3.4328,3.4966,3.4931,3.4293,3.4207,3.4172,3.4148,3.3352,3.2262,3.0847,2.8724,2.7884,2.8322,2.9041,2.9785,3.0512,3.1151,3.1481,3.1498,3.149,3.0736,2.9155,2.9175,2.8528,2.7084,2.7015,2.6731,2.6116,2.5215,2.4227,2.3106,0.0,0.0,0.0,0.0,0.0,0.0,0.0,0.0,0.0,0.0,0.0,0.0,0.0,0.0,0.0,2.1143,0.0,2.341,2.3485,0.0,0.0,0.0,2.2416,2.356,2.3854,2.4351,2.5404,0.0,0.0,2.7484,2.8011,2.836,2.8235,2.821,2.8177,2.812,2.8062,2.8035,2.8136,2.8062,2.8005,2.7956,2.7883,2.7801,2.7775,2.7943,2.7967,2.789,2.7943,2.8005,2.8032,2.7905,2.7815,2.7803,2.7653,2.7638,2.755,2.7582,2.757,2.7555,2.757,2.7585,4.2928,4.29,4.2515,4.1662,4.0534,4.0526,4.0526,4.0508,4.0314,3.9672,3.867,3.8303,3.7323,3.5933,3.5115,3.4864,3.5164,3.5446,3.5506,3.5451,3.6149,3.6222,3.5794,3.5956,3.5939,3.5759,3.5197,3.4931,3.4914,3.419,3.3628,3.3246,3.2712,3.1314,2.9222,2.9945,3.072,3.146,3.1539,3.1566,3.149,3.149,3.0747,2.9218,2.9289,2.8622,2.7067,2.7146,2.7084,2.6749,2.56,2.4841,2.4648,2.234,0.0,0.0,0.0,0.0,0.0,0.0,0.0,0.0,0.0,1.9192,1.7106,0.0,2.0852,0.0,2.2673,2.4043,2.4237,2.4237,0.0,0.0,2.4937,2.5052,2.6965,2.6485,2.6346,2.7334,2.7735,2.7985,2.8136,2.8292,2.8372,2.8348,2.8348,2.8495,2.8834,2.847,2.8385,2.8845,2.8519,2.8165,2.8137,2.8066,2.8017,2.81,2.811,2.8174,2.825,2.8186,2.8165,2.8137,2.8042,2.797,2.7955,2.793,2.7853,2.7765,2.7675,2.7585,2.7585,2.7585,2.7585,4.3488,4.3488,4.3488,4.2992,4.2168,4.2168,4.2168,4.2139,4.1782,4.1122,4.0304,3.9929,3.9171,3.8143,3.7556,3.74,3.7519,3.7095,3.6859,3.6826,3.6874,3.6688,3.6294,3.6284,3.6284,3.6284,3.5897,3.5708,3.5673,3.5266,3.4914,3.4586,3.4586,3.3549,3.1589,3.1609,3.1869,3.2265,3.1882,3.1688,3.1632,3.1632,3.0866,2.9322,2.9368,2.8673,2.7076,2.686,2.671,2.6581,2.524,2.4552,2.4702,2.286,2.1631,0.0,0.0,0.0,0.0,0.0,0.0,0.0,0.0,0.0,0.0,0.0,2.1833,2.2155,2.4178,2.5472,2.5489,2.6107,2.6826,2.7647,2.7038,2.7179,2.8684,2.7932,2.7635,2.8457,2.8362,2.828,2.8386,2.8411,2.8411,2.8411,2.8411,2.8513,2.8741,2.8514,2.8449,2.8849,2.8581,2.8299,2.8299,2.8177,2.8113,2.8186,2.8198,2.8223,2.8299,2.8311,2.8299,2.8287,2.8162,2.8091,2.8076,2.8044,2.7983,2.7905,2.779,2.7688,2.7612,2.7585,2.7585,4.3488,4.3488,4.3488,4.3488,4.3488,4.3488,4.3488,4.3451,4.2745,4.2396,4.2249,4.1444,4.0901,4.0535,3.9845,3.9724,3.9963,3.8544,3.7973,3.8121,3.7396,3.6776,3.6294,3.6284,3.6284,3.6284,3.6284,3.6284,3.6284,3.6284,3.5956,3.5363,3.5345,3.5007,3.4379,3.3603,3.3084,3.2886,3.2179,3.18,3.18,3.18,3.1012,2.9427,2.9437,2.8672,2.6971,2.6482,2.6205,2.6059,2.4826,2.4181,2.4366,2.3171,2.2193,0.0,2.1147,0.0,0.0,0.0,0.0,0.0,0.0,0.0,0.0,2.2219,2.318,2.3917,2.5803,2.6987,2.7004,2.8205,2.9027,2.9127,2.8824,2.8871,2.951,2.8897,2.8612,2.9125,2.8783,2.8481,2.8411,2.8411,2.8411,2.8411,2.8411,2.8427,2.8399,2.8375,2.8406,2.8476,2.8458,2.8399,2.8399,2.8311,2.8235,2.8223,2.8223,2.8223,2.8223,2.8323,2.8411,2.8399,2.8299,2.8223,2.8223,2.8128,2.8054,2.8029,2.7943,2.7828,2.7675,2.7597,2.757,4.3488,4.3488,4.3488,4.3488,4.3488,4.3488,4.3488,4.3488,4.3341,4.2892,4.2249,4.1452,4.1044,4.0976,4.084,4.0796,4.084,4.0174,3.9409,3.8572,3.8098,3.7327,3.6339,3.6284,3.6284,3.6284,3.6284,3.6284,3.6284,3.6284,3.6232,3.6094,3.6077,3.6035,3.5852,0.0,0.0,0.0,3.2171,3.18,3.18,3.18,3.1049,2.9541,2.9481,0.0,2.6427,2.6775,2.6782,2.6136,2.5818,0.0,0.0,0.0,0.0,0.0,0.0,0.0,0.0,0.0,0.0,0.0,2.531,2.48,2.3834,2.5136,2.63,2.6936,2.796,2.8561,2.8553,2.8798,2.9237,2.9794,2.9805,3.0054,3.0742,3.036,2.9971,2.9673,2.9273,2.8826,2.8505,2.8411,2.8408,2.8432,2.8424,2.8411,2.8411,2.8323,2.8471,2.9033,2.8707,2.8427,2.8411,2.8384,2.8348,2.8348,2.836,2.8372,2.8408,2.8408,2.8436,2.8436,2.8372,2.8372,2.836,2.8335,2.8262,2.8174,2.8122,2.8051,2.78,2.7675,2.745,4.3488,4.3488,4.3488,4.3488,0.0,4.3488,4.3488,4.3488,4.3488,4.3267,4.2873,4.247,4.2304,4.2268,4.1882,4.1919,4.2214,4.0978,4.0202,3.9844,3.9027,3.8206,3.7422,3.707,3.6898,3.6881,3.6501,3.6284,3.6284,3.6284,3.6284,3.6284,3.6284,3.6284,3.6266,3.5576,3.4638,3.3517,3.2748,3.2334,3.2344,3.1999,3.123,3.0031,2.967,0.0,0.0,0.0,0.0,0.0,0.0,0.0,0.0,0.0,0.0,2.4429,2.4827,2.5265,2.5648,2.5887,2.6482,2.7482,2.7909,2.7569,2.6284,2.6969,2.7717,2.8341,2.9093,2.9559,2.9559,2.988,3.0236,3.0598,3.0649,3.0818,3.1076,3.0797,3.0414,3.0172,2.9722,2.9353,2.9129,2.8889,2.8744,2.8736,2.8537,2.8436,2.8399,2.8348,2.8477,2.8849,2.8645,2.8411,2.8411,2.8424,2.8489,2.8665,2.8748,2.8838,2.9059,2.9082,2.9036,2.8803,2.8748,2.8689,2.8456,2.8411,2.8372,2.8311,2.8247,2.8174,2.8014,2.7903,2.757,4.3488,4.3488,4.3488,4.3488,4.3488,4.3488,4.3488,4.3488,4.3488,0.0,0.0,4.3488,4.3488,4.3451,4.2808,4.2873,4.337,4.1659,4.0969,4.1131,4.0048,3.9291,3.8818,3.8211,3.7803,3.759,3.6939,3.6506,3.6284,3.6284,3.6284,3.6284,3.6284,3.6284,3.6249,3.5697,3.5104,3.4483,3.3576,3.3041,3.2904,3.2317,3.1522,3.0546,3.0006,2.9274,2.8354,2.7139,2.6588,2.6753,2.5964,2.561,2.5939,2.6179,2.6305,2.6392,2.6904,2.7419,2.7773,2.7899,2.8422,2.9476,2.9963,2.9697,2.8536,2.8433,2.8721,2.9386,2.9995,3.0392,3.0537,3.107,3.1452,3.1436,3.1433,3.1382,3.1217,3.0781,3.0487,3.0456,3.0048,2.9783,2.975,2.9449,2.9223,2.9182,2.8943,2.8597,2.8525,2.8468,2.8399,2.8458,2.8427,2.8411,2.8411,2.8411,2.8549,2.8826,2.8932,2.9124,2.9443,2.9539,2.9398,2.8967,2.899,2.8779,2.8493,2.8411,2.8411,2.8411,2.8323,2.8235,2.8223,2.8152,2.7759,4.3488,4.3488,4.3488,4.3488,4.3488,4.3488,4.3488,4.3488,4.3488,4.3488,4.3488,4.3488,4.3488,4.3488,4.3378,4.3396,4.3443,4.2832,4.2221,4.1595,4.1079,4.0442,3.9743,3.9601,3.9006,3.8048,3.7875,3.7303,3.6395,3.6301,3.6284,3.6284,3.6284,3.6284,3.6284,3.6197,3.6094,3.5984,3.4638,3.3603,3.2921,3.2791,3.2076,3.0765,3.0575,2.9851,2.8438,2.8178,2.7916,2.7556,2.7394,2.7575,2.8106,2.8194,2.8312,2.8577,2.9269,2.9733,2.9807,3.0223,3.0603,3.0885,3.0991,3.0766,3.0209,3.0138,3.0427,3.1069,3.1228,3.1579,3.2142,3.2329,3.2388,3.2397,3.2348,3.206,3.1392,3.0851,3.0528,3.0528,3.0086,2.9837,2.987,2.9772,2.9705,2.9683,2.951,2.9409,2.8955,2.8657,2.8448,2.8411,2.8411,2.8411,2.8411,2.8411,2.8468,2.8481,2.8561,2.8668,2.8822,2.8826,2.8771,2.8549,2.8597,2.8513,2.8424,2.8411,2.8411,2.8411,2.8372,2.836,2.8348,2.8308,2.7801,4.36,4.3661,4.3592,4.3548,4.3539,4.3523,4.3488,4.3488,4.3549,4.3522,4.3488,4.3488,4.3488,4.3488,4.3488,4.3488,4.347,4.3078,4.2692,4.2339,4.1918,4.1504,4.1139,4.0721,4.0026,3.9083,3.8395,3.7584,3.667,3.6409,3.6284,3.6284,3.6284,3.6284,3.6284,3.6284,3.6284,3.6266,3.5242,3.4328,3.3576,3.3128,3.2386,3.1343,3.092,3.0377,2.967,2.9406,2.9253,2.9222,2.9206,2.9429,2.9862,2.9913,2.9958,3.0092,3.0564,3.0967,3.1233,3.153,3.174,3.1791,3.162,3.1627,3.1796,3.1361,3.1363,3.2029,3.2095,3.2413,3.3157,3.3242,3.3239,3.3151,3.2757,3.2315,3.1879,3.1277,3.0878,3.0868,3.0706,3.0555,3.0572,3.033,3.0182,3.0134,2.9815,2.9284,2.8815,2.8767,2.8665,2.8456,2.8411,2.8411,2.8411,2.8411,2.8505,2.8736,2.8779,2.8885,2.9082,2.9152,2.9025,2.8842,2.8771,2.8665,2.8465,2.8411,2.8411,2.8411,2.8411,2.8411,2.8381,2.8098,2.7556,4.3711,4.3788,4.3684,4.3651,4.3642,4.3592,4.3566,4.3575,4.3625,4.36,4.354,4.3513,4.3523,4.3488,4.3488,4.3488,4.3463,4.3169,4.3032,4.2995,4.2655,4.249,4.2464,4.189,4.1069,4.004,3.9084,3.8051,3.7005,3.6678,3.6516,3.644,3.6353,3.6284,3.6284,3.6284,3.6284,3.6249,3.5732,3.5087,3.4362,3.3559,3.2817,3.2059,3.1343,3.0956,3.093,3.0445,3.0326,3.0708,3.0594,3.0765,3.1304,3.1349,3.1447,3.1612,3.182,3.2069,3.2336,3.2634,3.2736,3.2564,3.249,3.2635,3.3051,3.2569,3.2372,3.2843,3.2946,3.3271,3.3966,3.412,3.4079,3.3936,3.3448,3.293,3.2418,3.1852,3.1389,3.1278,3.119,3.1171,3.1141,3.0905,3.0628,3.0377,2.9689,2.8962,2.8665,2.8826,2.8756,2.8665,2.8561,2.8501,2.8444,2.8411,2.8537,2.892,2.8908,2.899,2.9266,2.942,2.9353,2.8943,2.8897,2.865,2.8283,2.8319,2.8227,2.7996,2.7946,2.815,2.8088,2.7905,2.759,4.3796,4.3796,4.3769,4.3788,4.3779,4.3771,4.3763,4.3771,4.3779,4.3711,4.359,4.3582,4.3556,4.3496,4.3488,4.3488,4.3506,4.3471,4.3454,4.3445,4.3401,4.3383,4.333,4.3256,4.2275,4.061,4.023,3.899,3.7013,3.72,3.7171,3.6841,3.6492,3.6294,3.6284,3.6284,3.6284,3.6284,3.6242,3.5835,3.5104,3.4379,3.3603,3.2817,3.2093,3.1696,3.1688,3.1008,3.0896,3.1384,3.0903,3.1135,3.2276,3.244,3.2776,3.3436,3.3537,3.3476,3.327,3.3882,3.3975,3.3433,3.3868,3.4137,3.4005,3.3921,3.3877,3.3978,3.396,3.427,3.497,3.5063,3.5043,3.4984,3.4813,3.4278,3.2915,3.246,3.2091,3.1261,3.122,3.119,3.121,3.1124,3.0928,3.0466,2.975,2.9101,2.8881,2.8724,2.8708,2.8943,2.9032,2.8861,2.8609,2.8408,2.8537,2.8577,2.8474,2.8562,2.8669,2.8625,2.8486,2.8466,2.8513,2.8307,2.7932,2.7888,2.7996,2.7473,2.7438,2.758,2.7592,2.7892,2.8149,4.3865,4.3913,4.3883,4.3826,4.3804,4.3796,4.3796,4.3804,4.3835,4.3792,4.3709,4.3759,4.3684,4.3496,4.3539,4.3575,4.3556,4.3548,4.3609,4.3642,4.3558,4.3513,4.3566,4.3523,4.2445,4.0609,4.0248,3.9135,3.758,3.7432,3.7284,3.6929,3.6739,3.6543,3.6315,3.6284,3.6284,3.6284,3.6284,3.6163,3.5801,3.5138,3.4397,3.3638,3.2852,3.2438,3.2425,3.2109,3.206,3.2279,3.2408,3.2709,3.3273,3.3305,3.3458,3.3788,3.4259,3.4369,3.4048,3.4587,3.4688,3.4152,3.4218,3.4416,3.472,3.4742,3.4914,3.5276,3.5007,3.5052,3.5725,3.5852,3.5842,3.5728,3.5349,3.4562,3.3413,3.2827,3.2258,3.1502,3.1383,3.1383,3.1356,3.13,3.0922,3.0288,2.9694,2.9325,2.8815,2.8748,2.8908,2.9078,2.9314,2.9427,2.9239,2.9227,2.9106,2.8845,2.8482,2.826,2.8396,2.8023,2.7823,2.7866,2.8155,2.8124,2.7561,2.7934,2.815,2.755,2.7642,2.8011,2.7996,2.8211,2.8296,4.3968,4.3989,4.3953,4.3915,4.3851,4.3851,4.3851,4.3859,4.3897,4.3899,4.3845,4.3883,4.3783,4.36,4.3634,4.3659,4.3659,4.3651,4.3676,4.3728,4.3644,4.3583,4.3565,4.3539,4.2532,4.0877,4.0402,3.941,3.7953,3.7569,3.7414,3.7227,3.7017,3.6769,3.6492,3.6367,3.6284,3.6284,3.6284,3.6284,3.6236,3.589,3.526,3.4461,3.3754,3.3348,3.3226,3.3064,3.3028,3.3142,3.3473,3.3707,3.3782,3.3807,3.3899,3.4167,3.4901,3.5148,3.4748,3.5188,3.5297,3.4845,3.4674,3.4931,3.5363,3.5501,3.5742,3.6111,3.5801,3.5759,3.6163,3.6284,3.6269,3.6206,3.5669,3.5008,3.4185,3.3419,3.2681,3.1951,3.1615,3.149,3.1462,3.1274,3.0808,3.0048,2.97,2.9375,2.8668,2.8736,2.8986,2.9085,2.9422,2.9672,2.9761,2.9705,2.9595,2.9397,2.8905,2.8745,2.876,2.8318,2.7965,2.8529,2.8416,2.7929,2.7188,2.7503,2.7907,2.7876,2.7969,2.8119,2.795,2.8211,2.8329,4.3997,4.3997,4.3997,4.3989,4.3989,4.3981,4.3989,4.3992,4.3989,4.3968,4.3897,4.3897,4.3859,4.3769,4.3777,4.3777,4.3796,4.3769,4.3744,4.3667,4.3746,4.3686,4.3523,4.3546,4.273,4.1186,4.0953,4.0103,3.8596,3.7896,3.7685,3.7983,3.7322,3.6929,3.6831,3.6543,3.6322,3.6346,3.6326,3.6305,3.6357,3.6636,3.6255,3.529,3.4823,3.4451,3.4104,3.3636,3.3564,3.3948,3.3666,3.356,3.381,3.3887,3.4222,3.4931,3.5764,3.5912,3.5383,3.5846,3.5967,3.5389,3.5721,3.6146,3.6111,3.6128,3.618,3.6284,3.6225,3.6215,3.6266,3.6284,3.6284,3.629,3.6239,3.58,3.5081,3.4277,3.3507,3.2691,3.2015,3.1639,3.1542,3.1107,3.0676,3.008,2.9585,2.9116,2.8724,2.8677,2.8881,2.9085,2.9309,2.9507,2.9739,2.9793,2.9799,2.9484,2.9251,2.9376,2.9647,2.9662,2.9297,2.889,2.8358,2.7664,2.6832,2.6565,2.6811,2.703,2.7522,2.7673,2.7934,2.815,2.8295,4.3997,4.3997,4.3997,4.3997,4.3997,4.3997,4.3997,4.3997,4.3997,4.3989,4.3966,4.3958,4.3942,4.391,4.3929,4.3897,4.3867,4.3867,4.3857,4.3846,4.3818,4.3777,4.3759,4.3726,4.3013,4.18,4.1154,4.0067,3.8632,3.8386,3.8296,3.814,3.7894,3.7614,3.7332,3.7036,3.6848,3.6759,3.6639,3.6598,3.6709,3.7084,3.7058,3.668,3.6094,3.5731,3.5586,3.5115,3.4936,3.5083,3.5157,3.5279,3.5389,3.5411,3.5514,3.5862,3.6604,3.6731,3.612,3.664,3.6735,3.6028,3.6128,3.6284,3.6284,3.6284,3.6284,3.6284,3.6284,3.6284,3.6284,3.6284,3.6284,3.6284,3.6284,3.6014,3.5356,3.4888,3.443,3.365,3.2901,3.2237,3.1661,3.1418,3.1093,3.0588,3.0312,2.9886,2.9339,2.923,2.9287,2.9287,2.9361,2.9596,3.0204,2.9957,2.9702,2.9216,2.8877,2.8254,2.8193,2.8573,2.8305,2.8101,2.7731,2.7496,2.6725,2.6811,2.6857,2.7396,2.7811,2.7842,2.8042,2.8258,2.8365,4.3997,4.3997,4.3997,4.3997,4.3997,4.3997,4.3997,4.3997,4.3997,4.3997,4.3997,4.3997,4.3997,4.3997,4.3997,4.3981,4.3937,4.3937,4.3953,4.3968,4.3889,4.3867,4.3867,4.3835,4.3242,4.2149,4.1081,3.9957,3.8993,3.8899,3.8732,3.8449,3.832,3.8087,3.7807,3.7451,3.7218,3.7113,3.6974,3.6972,3.7103,3.7524,3.7747,3.7684,3.7381,3.7061,3.6764,3.6309,3.6069,3.6108,3.6222,3.6285,3.6303,3.6549,3.6677,3.6769,3.7307,3.7402,3.6845,3.7074,3.6999,3.6378,3.6284,3.6284,3.6284,3.6284,3.6284,3.6284,3.6284,3.6284,3.6284,3.6284,3.6284,3.6284,3.6284,3.6111,3.5621,3.5345,3.4714,3.3766,3.2911,3.228,3.181,3.1698,3.1382,3.0908,3.0838,3.052,2.994,2.9739,2.9607,2.9406,2.9478,2.9711,3.0032,2.9913,3.0,2.962,2.9129,2.8156,2.7512,2.7749,2.7736,2.7406,2.7174,2.7036,2.7025,2.7126,2.7503,2.8042,2.8196,2.8181,2.8288,2.835,2.8411,4.3997,4.3997,4.3997,4.3997,4.3997,4.3997,4.3997,4.3997,4.3997,4.3997,4.3997,4.3997,4.3997,4.3997,4.3997,4.3997,4.3989,4.3989,4.3976,4.3929,4.3976,4.3921,4.3818,4.3891,4.3439,4.2511,4.0997,4.024,4.0066,3.9516,3.9132,3.8955,3.8755,3.8621,3.8346,3.7916,3.7512,3.745,3.7431,3.7431,3.7477,3.7963,3.8229,3.8237,3.8519,3.8326,3.7542,3.7154,3.6979,3.693,3.665,3.6358,3.6618,3.7125,3.7518,3.7565,3.7887,3.7866,3.7488,3.7174,3.6919,3.6433,3.6326,3.6346,3.6294,3.6284,3.6284,3.6284,3.6284,3.6284,3.6284,3.6284,3.6284,3.6284,3.6284,3.6249,3.6111,3.5639,3.4638,3.3369,3.2576,3.1913,3.1817,3.1781,3.156,3.1174,3.0993,3.0834,3.0327,3.0192,2.9827,2.9507,2.9623,2.9941,2.9903,2.9837,3.0108,3.0207,2.9735,2.9048,2.8421,2.8358,2.8279,2.8002,2.7568,2.7402,2.7022,2.7149,2.7438,2.7885,2.8131,2.8411,2.8411,2.8411,2.8411,4.3997,4.3997,4.3997,4.3997,4.3997,4.3997,4.3997,4.3997,4.3997,4.3997,4.3997,4.3997,4.3997,4.3997,4.3997,4.3997,4.3997,4.3997,4.3989,4.3992,4.3989,4.3974,4.3953,4.395,4.3542,4.2792,4.2246,4.1653,4.1145,4.0856,4.0741,4.0677,4.0539,4.0179,3.9562,3.9282,3.8851,3.8152,3.7947,3.7912,3.8013,3.8194,3.8423,3.8669,3.8833,3.8732,3.8481,3.8292,3.8236,3.8219,3.8114,3.803,3.8114,3.8243,3.836,3.8397,3.847,3.8352,3.7973,3.7765,3.7377,3.688,3.6709,3.6557,3.6336,3.6284,3.6284,3.6284,3.6284,3.6284,3.6284,3.6284,3.6284,3.6284,3.6284,3.6284,3.6266,3.6042,3.5276,3.4042,3.3517,3.2982,3.2093,3.1817,3.1718,3.156,3.1487,3.1307,3.1007,3.0828,3.0703,3.0251,3.0272,3.0177,3.0177,3.0177,3.0303,3.023,2.9843,2.9321,2.8844,2.8647,2.8617,2.8451,2.8026,2.7693,2.7323,2.7288,2.7623,2.7915,2.8285,2.8411,2.8411,2.8411,2.8411,4.3997,4.3997,4.3997,4.3997,4.3997,4.3997,4.3997,4.3997,4.3997,4.3997,4.3997,4.3997,4.3997,4.3997,4.3997,4.3997,4.3997,4.3997,4.3997,4.3997,4.3997,4.3997,4.3997,4.3997,4.3782,4.3262,4.2946,4.2556,4.2054,4.1746,4.1586,4.1523,4.1534,4.1082,4.0337,4.0031,3.9465,3.8671,3.8428,3.8412,3.8489,3.8563,3.8711,3.8888,3.8964,3.8976,3.8928,3.8903,3.887,3.8896,3.8866,3.8866,3.887,3.8796,3.8784,3.8773,3.8652,3.8412,3.8181,3.7988,3.7738,3.7208,3.6997,3.6799,3.6509,3.6391,3.6284,3.6284,3.6284,3.6284,3.6284,3.6284,3.6284,3.6284,3.6284,3.6284,3.6266,3.6042,3.557,3.4586,3.3983,3.3224,3.2507,3.1903,3.1834,3.18,3.18,3.1772,3.1513,3.1344,3.1034,3.0794,3.072,3.0621,3.0574,3.0553,3.0526,3.0192,2.9788,2.9147,2.8582,2.8607,2.8619,2.8502,2.8167,2.8116,2.7811,2.7796,2.7996,2.8258,2.8411,2.8411,2.8411,2.8411,2.8411,4.3997,4.3997,4.3997,4.3997,4.3997,4.3997,4.3997,4.3997,4.3997,4.3997,4.3997,4.3997,4.3997,4.3997,4.3997,4.3997,4.3997,4.3997,4.3997,4.3997,4.3997,4.3997,4.3997,4.3997,4.3949,4.3819,4.3243,4.2935,4.2835,4.2266,4.1727,4.1943,4.1954,4.1311,4.0699,4.0244,3.9747,3.894,3.8796,3.8796,3.8811,3.8979,3.9057,3.9007,3.9045,3.9052,3.9014,3.8993,3.8964,3.8932,3.8899,3.8925,3.8925,3.8918,3.8896,3.8896,3.8551,3.8431,3.8285,3.8129,3.7771,3.7515,3.7312,3.6949,3.6743,3.654,3.6388,3.6305,3.6284,3.6284,3.6284,3.6343,3.6343,3.635,3.6322,3.6294,3.6232,3.5732,3.5311,3.488,3.3879,3.2869,3.2731,3.2127,3.1886,3.18,3.18,3.1772,3.1718,3.1513,3.1228,3.112,3.1117,3.1041,3.0995,3.1034,3.0978,3.0703,3.0166,2.944,2.8715,2.8685,2.8653,2.8512,2.8406,2.8391,2.8334,2.8227,2.8211,2.8334,2.8411,2.8411,2.8411,2.8411,2.8411,4.3997,4.3997,4.3997,4.3997,4.3997,4.3997,4.3997,4.3997,4.3997,4.3997,4.3997,4.3997,4.3997,4.3997,4.3997,4.3997,4.3997,4.3997,4.3997,4.3997,4.3997,4.3997,4.3997,4.3997,4.3997,4.3941,4.3745,4.3708,4.367,4.3355,4.3262,4.3373,4.3225,4.2612,4.1501,4.1171,4.0396,3.9239,3.9017,3.901,3.9017,3.9059,3.9094,3.908,3.9094,3.9094,3.9073,3.9073,3.905,3.899,3.899,3.9,3.9036,3.8957,3.8939,3.8928,3.8829,3.8729,3.8707,3.862,3.8397,3.8104,3.7945,3.7667,3.6978,3.687,3.6641,3.6402,3.6284,3.6305,3.6343,3.6475,3.6564,3.6582,3.6433,3.6305,3.6266,3.6128,3.5628,3.4596,3.4034,3.3327,3.2455,3.199,3.18,3.18,3.18,3.18,3.1772,3.1754,3.1494,3.1542,3.154,3.1456,3.1428,3.1485,3.1428,3.1232,3.072,3.0021,2.9344,2.8888,2.8775,2.863,2.8555,2.8522,2.8441,2.835,2.8396,2.8456,2.8411,2.8411,2.8411,2.8411,2.8411,4.3997,4.3997,4.3997,4.3997,4.3997,4.3997,4.3997,4.3997,4.3997,4.3997,4.3997,4.3997,4.3997,4.3997,4.3997,4.3997,4.3997,4.3997,4.3997,4.3997,4.3997,4.3997,4.3997,4.3997,4.3997,4.3997,4.3997,4.3997,4.3978,4.3997,4.3997,4.3949,4.3997,4.3318,4.2173,4.1709,4.0984,3.9807,3.9324,3.9101,3.9101,3.9101,3.9101,3.9101,3.9101,3.9101,3.9101,3.9101,3.9073,3.9038,3.9024,3.9052,3.9087,3.9017,3.9007,3.9024,3.9007,3.8986,3.8986,3.8986,3.8844,3.8559,3.8439,3.7995,3.7451,3.7227,3.6988,3.6683,3.6609,3.6609,3.6629,3.6738,3.6766,3.6702,3.6554,3.6423,3.6322,3.6266,3.5766,3.4897,3.4241,3.3672,3.2386,3.2007,3.1834,3.18,3.18,3.18,3.18,3.18,3.1781,3.1736,3.1727,3.1643,3.1587,3.1625,3.156,3.1406,3.1144,3.0477,2.9821,2.9234,2.9048,2.8897,2.876,2.8645,2.8589,2.8541,2.8549,2.8549,2.8468,2.8436,2.846,2.8517,2.8493,4.3997,4.3997,4.3997,4.3997,4.3997,4.3997,4.3997,4.3997,4.3997,4.3997,4.3997,4.3997,4.3997,4.3997,4.3997,4.3997,4.3997,4.3997,4.3997,4.3997,4.3997,4.3997,4.3997,4.3997,4.3997,4.3997,4.3997,4.3997,4.3997,4.3997,4.3997,4.3997,4.3997,4.3559,4.2731,4.2099,4.133,4.052,3.974,3.9424,3.9324,3.9231,3.9101,3.9101,3.9101,3.9101,3.9101,3.9101,3.9101,3.9101,3.9101,3.9101,3.9101,3.9094,3.9094,3.9094,3.9087,3.908,3.9094,3.9073,3.9024,3.8822,3.8628,3.8253,3.7826,3.7578,3.7356,3.6958,3.698,3.6968,3.698,3.7009,3.6975,3.6856,3.6783,3.6606,3.6412,3.6322,3.599,3.5207,3.4448,3.3776,3.293,3.2265,3.18,3.18,3.18,3.18,3.18,3.18,3.1763,3.1699,3.1718,3.1746,3.1718,3.1718,3.1617,3.1494,3.132,3.0831,3.0177,2.9672,2.9414,2.9236,2.9175,2.899,2.8799,2.876,2.872,2.8767,2.8783,2.8645,2.8541,2.8645,2.8677,4.3997,4.3997,4.3997,4.3997,4.3997,4.3997,4.3997,4.3997,4.3997,4.3997,4.3997,4.3997,4.3997,4.3997,4.3997,4.3997,4.3997,4.3997,4.3997,4.3997,4.3997,4.3997,4.3997,4.3997,4.3997,4.3997,4.3997,4.3997,4.3997,4.3997,4.3997,4.3997,4.3968,4.3615,4.289,4.2612,4.2147,4.1356,4.0501,4.0074,3.987,3.938,3.9101,3.9101,3.9101,3.9101,3.9101,3.9101,3.9101,3.9101,3.9101,3.9101,3.9101,3.9101,3.9101,3.9101,3.9101,3.9101,3.9101,3.9101,3.9087,3.9024,3.8898,3.8688,3.8075,3.7939,3.7623,3.7193,3.6989,3.7114,3.7211,3.723,3.7182,3.7114,3.6987,3.6829,3.6636,3.6433,3.5759,3.4776,3.4224,3.3603,3.2291,3.2059,3.1817,3.18,3.18,3.18,3.18,3.18,3.1772,3.1709,3.1727,3.1764,3.1755,3.1763,3.169,3.1625,3.1464,3.1329,3.0672,3.0293,3.0118,2.9859,2.9601,2.9404,2.9186,2.8932,2.8893,2.8997,2.9113,2.9025,2.8955,2.8939,2.8826,4.3997,4.3997,4.3997,4.3997,4.3997,4.3997,4.3997,4.3997,4.3997,4.3997,4.3997,4.3997,4.3997,4.3997,4.3997,4.3997,4.3997,4.3997,4.3997,4.3997,4.3997,4.3997,4.3997,4.3997,4.3997,4.3997,4.3997,4.3997,4.3997,4.3997,4.3997,4.3997,4.3997,4.3838,4.3318,4.302,4.2593,4.2006,4.0984,4.0416,4.026,3.9572,3.9101,3.9101,3.9101,3.9101,3.9101,3.9101,3.9101,3.9101,3.9101,3.9101,3.9101,3.9101,3.9101,3.9101,3.9101,3.9101,3.9101,3.9101,3.9101,3.9101,3.9017,3.8792,3.842,3.8218,3.7897,3.7559,3.7392,3.7344,3.7428,3.7447,3.7419,3.7278,3.7134,3.694,3.6809,3.6527,3.5904,3.4845,3.4345,3.3569,3.2775,3.2137,3.1817,3.18,3.18,3.18,3.18,3.18,3.18,3.1781,3.1791,3.18,3.18,3.1781,3.1736,3.1699,3.166,3.1578,3.1295,3.1064,3.0895,3.0512,3.0075,2.9865,2.9639,2.9382,2.9223,2.9393,2.9494,2.9438,2.9348,2.9227,2.9067,4.3997,4.3997,4.3997,4.3997,4.3997,4.3997,4.3997,4.3997,4.3997,4.3997,4.3997,4.3997,4.3997,4.3997,4.3997,4.3997,4.3997,4.3997,4.3997,4.3997,4.3997,4.3997,4.3997,4.3997,4.3997,4.3997,4.3997,4.3997,4.3997,4.3997,4.3997,4.3997,4.3997,4.3941,4.3801,4.341,4.3058,4.2797,4.1702,4.1003,4.0761,3.9993,3.938,3.9101,3.9101,3.9101,3.9101,3.9101,3.9101,3.9101,3.9101,3.9101,3.9101,3.9101,3.9101,3.9101,3.9101,3.9101,3.9101,3.9101,3.9101,3.9094,3.8971,3.8851,3.869,3.8423,3.8127,3.7915,3.7739,3.754,3.7604,3.7585,3.7512,3.7372,3.7172,3.7066,3.696,3.6632,3.6046,3.5313,3.4555,3.3752,3.2959,3.2248,3.2007,3.18,3.18,3.1852,3.1869,3.1834,3.1852,3.18,3.18,3.18,3.18,3.1886,3.1841,3.1832,3.1822,3.1752,3.1716,3.1542,3.1266,3.0895,3.0522,3.0335,3.015,2.9924,2.9848,2.9913,2.9913,2.9897,2.9722,2.9494,2.928,4.3997,4.3997,4.3997,4.3997,4.3997,4.3997,4.3997,4.3997,4.3997,4.3997,4.3997,4.3997,4.3997,4.3997,4.3997,4.3997,4.3997,4.3997,4.3997,4.3997,4.3997,4.3997,4.3997,4.3997,4.3997,4.3997,4.3997,4.3997,4.3997,4.3997,4.3997,4.3997,4.3997,4.3997,4.3978,4.3838,4.3689,4.354,4.2649,4.2173,4.1858,4.081,3.9695,3.9212,3.9101,3.9101,3.9101,3.9101,3.9101,3.9101,3.9101,3.9101,3.9101,3.9101,3.9101,3.9101,3.9101,3.9101,3.9101,3.9101,3.9101,3.9094,3.9031,3.895,3.8826,3.866,3.831,3.8001,3.7766,3.7595,3.7595,3.7595,3.7586,3.7485,3.7363,3.7239,3.7172,3.6876,3.6396,3.5745,3.4915,3.4071,3.3308,3.2593,3.2231,3.199,3.1878,3.2093,3.23,3.2145,3.1972,3.1903,3.18,3.18,3.18,3.1921,3.198,3.1971,3.1954,3.1868,3.1824,3.1799,3.1551,3.1218,3.1024,3.0895,3.0683,3.0435,3.0404,3.0462,3.0425,3.0366,3.0102,2.9821,2.9427,4.3997,4.3997,4.3997,4.3997,4.3997,4.3997,4.3997,4.3997,4.3997,4.3997,4.3997,4.3997,4.3997,4.3997,4.3997,4.3997,4.3997,4.3997,4.3997,4.3997,4.3997,4.3997,4.3997,4.3997,4.3997,4.3997,4.3997,4.3997,4.3997,4.3997,4.3997,4.3997,4.3997,4.3997,4.3997,4.3978,4.3997,4.3838,4.3262,4.2805,4.2649,4.1237,4.0037,3.9368,3.9101,3.9101,3.9101,3.9101,3.9101,3.9101,3.9101,3.9101,3.9101,3.9101,3.9101,3.9101,3.9101,3.9101,3.9101,3.9101,3.9101,3.9087,3.9036,3.8979,3.8829,3.8603,3.8269,3.7906,3.773,3.7595,3.7595,3.7595,3.7595,3.7558,3.7428,3.739,3.7353,3.7143,3.6763,3.626,3.5493,3.4641,3.3738,3.3103,3.2541,3.2231,3.2051,3.2327,3.2748,3.2628,3.2447,3.2672,3.2679,3.2672,3.2628,3.262,3.2534,3.2421,3.2352,3.2265,3.2024,3.2024,3.1876,3.1587,3.1456,3.1286,3.112,3.0851,3.0918,3.0938,3.0868,3.072,3.0445,3.0123,2.9705,4.3997,4.3997,4.3997,4.3997,4.3997,4.3997,4.3997,4.3997,4.3997,4.3997,4.3997,4.3997,4.3997,4.3997,4.3997,4.3997,4.3997,4.3997,4.3997,4.3997,4.3997,4.3997,4.3997,4.3997,4.3997,4.3997,4.3997,4.3997,4.3997,4.3997,4.3997,4.3997,4.3997,4.3997,4.3997,4.3997,4.3997,4.3819,4.3448,4.302,4.2482,4.1423,4.0241,3.9398,3.9212,3.9101,3.9101,3.9101,3.9101,3.9101,3.9101,3.9101,3.9101,3.9101,3.9101,3.9101,3.9101,3.9101,3.9101,3.9101,3.9101,3.9094,3.8946,3.8967,3.8931,3.8608,3.8111,3.7775,3.7694,3.7649,3.7613,3.7595,3.7595,3.7585,3.7484,3.74,3.7466,3.7391,3.7249,3.6695,3.6021,3.5332,3.4537,3.3741,3.3224,3.3137,3.2965,3.3051,3.3396,3.331,3.3275,3.3655,3.3793,3.3793,3.3741,3.362,3.3448,3.3206,3.3137,3.3068,3.2672,3.2317,3.2159,3.2096,3.1643,3.1466,3.1351,3.1288,3.1213,3.1183,3.12,3.1065,3.0791,3.033,2.9826,4.3997,4.3997,4.3997,4.3997,4.3997,4.3997,4.3997,4.3997,4.3997,4.3997,4.3997,4.3997,4.3997,4.3997,4.3997,4.3997,4.3997,4.3997,4.3997,4.3997,4.3997,4.3997,4.3997,4.3997,4.3997,4.3997,4.3997,4.3997,4.3997,4.3997,4.3997,4.3997,4.3997,4.3997,4.3997,4.3997,4.3997,4.3986,4.3875,4.3466,4.2742,4.185,4.0977,4.0204,3.9517,3.9101,3.9101,3.9101,3.9101,3.9101,3.9101,3.9101,3.9101,3.9101,3.9101,3.9101,3.9101,3.9101,3.9101,3.9101,3.9101,3.9101,3.9052,3.9073,3.8956,3.8822,3.8415,3.801,3.795,3.7819,3.764,3.7595,3.7595,3.7586,3.7567,3.7549,3.7558,3.7521,3.7391,3.7269,3.6638,3.6129,3.548,3.4686,3.3965,3.3931,3.3931,3.3983,3.4138,3.4172,3.4172,3.4552,3.4707,3.4707,3.4742,3.4638,3.4345,3.4034,3.3931,3.3827,3.3379,3.2982,3.2852,3.2659,3.2223,3.1981,3.2076,3.1948,3.1589,3.1366,3.1308,3.1239,3.1161,3.0624,3.0033,4.3997,4.3997,4.3997,4.3997,4.3997,4.3997,4.3997,4.3997,4.3997,4.3997,4.3997,4.3997,4.3997,4.3997,4.3997,4.3997,4.3997,4.3997,4.3997,4.3997,4.3997,4.3997,4.3997,4.3997,4.3997,4.3997,4.3997,4.3997,4.3997,4.3997,4.3997,4.3997,4.3997,4.3997,4.3997,4.3997,4.3997,4.4005,4.3931,4.3578,4.2816,4.2006,4.1226,4.0427,3.9565,3.9175,3.9101,3.9101,3.9101,3.9101,3.9101,3.9101,3.9101,3.9101,3.9101,3.9101,3.9101,3.9101,3.9101,3.9101,3.9101,3.9101,3.9094,3.9038,3.8939,3.884,3.8583,3.807,3.8001,3.7862,3.7685,3.7604,3.7595,3.7595,3.7595,3.7595,3.7586,3.7558,3.7484,3.7391,3.7279,3.6752,3.6252,3.558,3.4921,3.4713,3.4658,3.4621,3.5035,3.5483,3.5466,3.5483,3.5552,3.5525,3.5594,3.5576,3.5197,3.4887,3.4707,3.4535,3.4069,3.3741,3.362,3.3569,3.3367,3.3168,3.298,3.2391,3.1842,3.1586,3.1375,3.1438,3.1462,3.0959,3.0534,4.3997,4.3997,4.3997,4.3997,4.3997,4.3997,4.3997,4.3997,4.3997,4.3997,4.3997,4.3997,4.3997,4.3997,4.3997,4.3997,4.3997,4.3997,4.3997,4.3997,4.3997,4.3997,4.3997,4.3997,4.3997,4.3997,4.3997,4.3997,4.3997,4.3997,4.3997,4.3997,4.3997,4.3997,4.3997,4.3997,4.3997,4.3997,4.3997,4.3708,4.3095,4.2118,4.1393,4.0594,3.9777,3.9101,3.9101,3.9101,3.9101,3.9101,3.9101,3.9101,3.9101,3.9101,3.9101,3.9101,3.9101,3.9101,3.9101,3.9101,3.9101,3.9101,3.9055,3.8989,3.8743,3.8713,3.8502,3.7932,3.7984,3.7836,3.7676,3.7595,3.7595,3.7595,3.7595,3.7595,3.7586,3.7576,3.7558,3.7521,3.7419,3.7314,3.6807,3.6354,3.5921,3.5574,3.5414,3.5287,3.5656,3.6197,3.6146,3.5966,3.5956,3.5956,3.6025,3.6042,3.5801,3.568,3.5483,3.5328,3.4949,3.4586,3.4379,3.4345,3.432,3.3931,3.3524,3.2759,3.211,3.2347,3.2459,3.1992,3.1726,3.1323,3.137,4.3997,4.3997,4.3997,4.3997,4.3997,4.3997,4.3997,4.3997,4.3997,4.3997,4.3997,4.3997,4.3997,4.3997,4.3997,4.3997,4.3997,4.3997,4.3997,4.3997,4.3997,4.3997,4.3997,4.3997,4.3997,4.3997,4.3997,4.3997,4.3997,4.3997,4.3997,4.3997,4.3997,4.3997,4.3997,4.3997,4.3997,4.3997,4.3997,4.3997,4.341,4.2564,4.1672,4.1226,4.0093,3.9126,3.9101,3.912,3.9101,3.9101,3.9101,3.9101,3.9101,3.9101,3.9101,3.9101,3.9101,3.9101,3.9101,3.9101,3.9101,3.9101,3.9055,3.8927,3.8637,3.8739,3.8415,3.788,3.7966,3.7871,3.7721,3.7595,3.7595,3.7595,3.7595,3.7595,3.7595,3.7595,3.7577,3.7586,3.7539,3.7419,3.7306,3.6836,3.6407,3.6038,3.5904,3.5783,3.587,3.6266,3.6266,3.6197,3.6215,3.6215,3.6232,3.6146,3.6042,3.6025,3.5921,3.5973,3.5939,3.5594,3.5121,3.5035,3.4931,3.45,3.4197,3.3935,3.3735,3.3732,3.3512,3.2914,3.2788,3.2714,3.2901,4.3997,4.3997,4.3997,4.3997,4.3997,4.3997,4.3997,4.3997,4.3997,4.3997,4.3997,4.3997,4.3997,4.3997,4.3997,4.3997,4.3997,4.3997,4.3997,4.3997,4.3997,4.3997,4.3997,4.3997,4.3997,4.3997,4.3997,4.3997,4.3997,4.3997,4.3997,4.3997,4.3997,4.3997,4.3997,4.3997,4.3997,4.3997,4.3997,4.3997,4.3782,4.3039,4.2352,4.2211,4.0761,4.0,3.9832,3.9342,3.9175,3.9101,3.9101,3.9101,3.9101,3.9101,3.9101,3.9101,3.9101,3.9101,3.9101,3.9101,3.9101,3.9101,3.9087,3.8967,3.8649,3.8855,3.8561,3.8226,3.8052,3.8009,3.7667,3.7595,3.7595,3.7595,3.7595,3.7595,3.7595,3.7595,3.7595,3.7595,3.7586,3.7522,3.7438,3.7299,3.6885,3.6485,3.6388,3.6284,3.6284,3.6284,3.6284,3.6284,3.6284,3.6284,3.6284,3.6284,3.6284,3.6284,3.6284,3.6284,3.6284,3.6232,3.5835,3.5732,3.5628,3.5414,3.5301,3.5373,3.5125,3.4531,3.4103,3.3669,3.3734,3.3984,3.4158,4.3997,4.3997,4.3997,4.3997,4.3997,4.3997,4.3997,4.3997,4.3997,4.3997,4.3997,4.3997,4.3997,4.3997,4.3997,4.3997,4.3997,4.3997,4.3997,4.3997,4.3997,4.3997,4.3997,4.3997,4.3997,4.3997,4.3997,4.3997,4.3997,4.3997,4.3997,4.3997,4.3997,4.3997,4.3997,4.3997,4.3997,4.3997,4.3997,4.3997,4.3893,4.3225,4.276,4.2508,4.1152,4.0408,4.0074,3.9591,3.9138,3.9101,3.9101,3.9101,3.9101,3.9101,3.9101,3.9101,3.9101,3.9101,3.9101,3.9101,3.9101,3.9101,3.9101,3.8981,3.8906,3.8902,3.86,3.8128,3.8145,3.8094,3.7649,3.7595,3.7595,3.7595,3.7595,3.7595,3.7595,3.7595,3.7595,3.7595,3.7577,3.7549,3.74,3.7268,3.6997,3.6626,3.6423,3.6322,3.6284,3.6284,3.6284,3.6284,3.6284,3.6284,3.6284,3.6284,3.6284,3.6284,3.6284,3.6284,3.6284,3.6284,3.6284,3.6077,3.6059,3.6232,3.6146,3.5901,3.5456,3.496,3.4706,3.4579,3.4753,3.4996,3.4982,4.3997,4.3997,4.3997,4.3997,4.3997,4.3997,4.3997,4.3997,4.3997,4.3997,4.3997,4.3997,4.3997,4.3997,4.3997,4.3997,4.3997,4.3997,4.3997,4.3997,4.3997,4.3997,4.3997,4.3997,4.3997,4.3997,4.3997,4.3997,4.3997,4.3997,4.3997,4.3997,4.3997,4.3997,4.3997,4.3997,4.3997,4.3997,4.3997,4.3997,4.3856,4.3299,4.3047,4.2649,4.1616,4.0891,4.0483,3.9832,3.9342,3.912,3.9101,3.9101,3.9101,3.9101,3.9101,3.9101,3.9101,3.9101,3.9101,3.9101,3.9101,3.9101,3.9101,3.8996,3.8848,3.8781,3.8626,3.8119,3.8086,3.7941,3.773,3.7595,3.7595,3.7595,3.7595,3.7595,3.7595,3.7595,3.7595,3.7595,3.7594,3.7539,3.7344,3.7153,3.6978,3.6718,3.6464,3.6371,3.6343,3.6284,3.6284,3.6284,3.6284,3.6284,3.6284,3.6284,3.6284,3.6284,3.6284,3.6284,3.6284,3.6284,3.6284,3.6284,3.6284,3.6284,3.6284,3.6249,3.5838,3.5532,3.5687,3.5698,3.5859,3.5831,3.5681,4.3997,4.3997,4.3997,4.3997,4.3997,4.3997,4.3997,4.3997,4.3997,4.3997,4.3997,4.3997,4.3997,4.3997,4.3997,4.3997,4.3997,4.3997,4.3997,4.3997,4.3997,4.3997,4.3997,4.3997,4.3997,4.3997,4.3997,4.3997,4.3997,4.3997,4.3997,4.3997,4.3997,4.3997,4.3997,4.3997,4.3997,4.3997,4.3997,4.4005,4.3949,4.3708,4.354,4.3503,4.2407,4.1635,4.1096,4.0271,3.9658,3.9194,3.9101,3.9101,3.9101,3.9101,3.9101,3.9101,3.9101,3.9101,3.9101,3.9101,3.9101,3.9101,3.9087,3.9003,3.8833,3.8931,3.8615,3.8244,3.8153,3.7975,3.773,3.7622,3.7595,3.7595,3.7595,3.7595,3.7595,3.7595,3.7595,3.7595,3.7586,3.7576,3.7447,3.7297,3.7114,3.6916,3.6677,3.6554,3.6523,3.6364,3.6284,3.6284,3.6284,3.6284,3.6284,3.6284,3.6284,3.6284,3.6284,3.6284,3.6284,3.6284,3.6284,3.6284,3.6284,3.6284,3.6284,3.6284,3.6284,3.6214,3.617,3.6116,3.6075,3.6026,3.5961,4.3997,4.3997,4.3997,4.3997,4.3997,4.3997,4.3997,4.3997,4.3997,4.3997,4.3997,4.3997,4.3997,4.3997,4.3997,4.3997,4.3997,4.3997,4.3997,4.3997,4.3997,4.3997,4.3997,4.3997,4.3997,4.3997,4.3997,4.3997,4.3997,4.3997,4.3997,4.3997,4.3997,4.3997,4.3997,4.3997,4.3997,4.3997,4.3997,4.3997,4.4005,4.3949,4.3968,4.3745,4.3132,4.2389,4.1616,4.0817,4.0011,3.9398,3.9101,3.9101,3.9101,3.9101,3.9101,3.9101,3.9101,3.9101,3.9101,3.9101,3.9101,3.9101,3.9101,3.9038,3.8921,3.8931,3.8661,3.839,3.8285,3.7992,3.7703,3.7613,3.7595,3.7595,3.7595,3.7595,3.7595,3.7595,3.7595,3.7595,3.7595,3.7594,3.7549,3.7456,3.7306,3.7085,3.6886,3.6776,3.6643,3.6444,3.6305,3.6332,3.6294,3.6284,3.6284,3.6284,3.6284,3.6284,3.6284,3.6284,3.6284,3.6284,3.6284,3.6284,3.6284,3.6284,3.6284,3.6284,3.6284,3.629,3.6265,3.6233,3.6223,3.6187,3.6122,4.4013,4.4013,4.4013,4.3997,4.3997,4.3997,4.3997,4.3997,4.3997,4.3997,4.3997,4.3997,4.3997,4.3997,4.3997,4.3997,4.3997,4.3997,4.3997,4.3997,4.3997,4.3997,4.3997,4.3997,4.3997,4.3997,4.3997,4.3997,4.3997,4.3997,4.3997,4.3997,4.3997,4.3997,4.3997,4.3997,4.3997,4.3997,4.3997,4.3997,4.3997,4.3997,4.3997,4.3801,4.3355,4.2649,4.1876,4.104,4.0185,3.9565,3.9157,3.912,3.9101,3.9101,3.9101,3.9101,3.9101,3.9101,3.9101,3.9101,3.9101,3.9101,3.9101,3.9094,3.9045,3.8935,3.8649,3.839,3.8203,3.7915,3.7649,3.7622,3.7595,3.7595,3.7595,3.7595,3.7595,3.7595,3.7595,3.7595,3.7595,3.7567,3.7503,3.7428,3.7419,3.722,3.7007,3.6851,3.67,3.6423,3.6332,3.6402,3.6353,3.6294,3.6284,3.6284,3.6284,3.6284,3.6284,3.6284,3.6284,3.6284,3.6284,3.6284,3.6284,3.6284,3.6284,3.6284,3.6284,3.629,3.6297,3.628,3.6248,3.6251,3.6208,4.4226,4.4192,4.4059,4.3997,4.3997,4.4005,4.3997,4.3997,4.3997,4.3997,4.3997,4.3997,4.3997,4.3997,4.3997,4.3997,4.3997,4.3997,4.3997,4.3997,4.3997,4.3997,4.3997,4.3997,4.3997,4.3997,4.3997,4.3997,4.3997,4.3997,4.3997,4.3997,4.3997,4.3997,4.3997,4.3997,4.3997,4.3997,4.3997,4.3997,4.3997,4.3997,4.3997,4.3848,4.3763,4.3076,4.2266,4.156,4.0743,4.0055,3.938,3.912,3.9101,3.9101,3.9101,3.9101,3.9101,3.9101,3.9101,3.9101,3.9101,3.9101,3.9101,3.9101,3.9027,3.8888,3.8675,3.8407,3.8111,3.7819,3.7658,3.7613,3.7595,3.7595,3.7595,3.7595,3.7595,3.7595,3.7595,3.7595,3.7595,3.7577,3.7512,3.7512,3.7484,3.7306,3.7126,3.6989,3.6801,3.6519,3.6412,3.6482,3.6391,3.6294,3.6284,3.6284,3.6284,3.6284,3.6284,3.6284,3.6284,3.6284,3.6284,3.6284,3.6284,3.6284,3.6284,3.6284,3.6284,3.6284,3.629,3.6284,3.6273,3.6276,3.6255,4.438,4.4347,4.4233,4.4158,4.4131,4.4105,4.4105,4.4097,4.4036,4.3997,4.3997,4.3997,4.3997,4.3997,4.3997,4.3997,4.3997,4.3997,4.3997,4.3997,4.3997,4.3997,4.3997,4.3997,4.3997,4.3997,4.3997,4.3997,4.4005,4.4005,4.3997,4.3997,4.3997,4.4005,4.3997,4.3997,4.3997,4.3997,4.3997,4.3997,4.3997,4.3997,4.3997,4.3997,4.3997,4.3429,4.2519,4.1832,4.1114,4.013,3.925,3.912,3.9101,3.9101,3.9101,3.9101,3.9101,3.9101,3.9101,3.9101,3.9101,3.9101,3.9101,3.9101,3.8956,3.8789,3.8603,3.8366,3.8052,3.7757,3.7676,3.7595,3.7595,3.7595,3.7595,3.7595,3.7595,3.7595,3.7595,3.7595,3.7595,3.7595,3.7586,3.7595,3.7531,3.7353,3.723,3.7134,3.6938,3.6697,3.6585,3.6613,3.6444,3.6284,3.6284,3.6284,3.6284,3.6284,3.6284,3.6284,3.6284,3.6284,3.6284,3.6284,3.6284,3.6284,3.6284,3.6284,3.6284,3.6284,3.6284,3.6284,3.6284,3.6273,3.628,4.4522,4.4515,4.4489,4.4416,4.4322,4.4314,4.4307,4.43,4.4128,4.4044,4.4044,4.4036,4.4028,4.4013,4.3997,4.3997,4.3997,4.3997,4.3997,4.3997,4.3997,4.3997,4.3997,4.3997,4.3997,4.3997,4.4013,4.402,4.4028,4.402,4.4013,4.4013,4.4005,4.4005,4.3997,4.3997,4.3997,4.3997,4.3997,4.3997,4.3997,4.3997,4.3997,4.3997,4.3838,4.3429,4.2322,4.1542,4.0977,3.9981,3.9405,3.9491,3.9331,3.912,3.912,3.9101,3.9101,3.9101,3.9101,3.9101,3.9101,3.9101,3.9101,3.9101,3.897,3.8684,3.847,3.8318,3.8018,3.7739,3.7622,3.7595,3.7595,3.7738,3.7845,3.7925,3.8032,3.8032,3.8014,3.7925,3.7684,3.7684,3.7595,3.7595,3.7577,3.74,3.7334,3.7268,3.7134,3.6898,3.6766,3.6715,3.6475,3.6305,3.6284,3.6284,3.6284,3.6284,3.6284,3.6284,3.6284,3.6284,3.6284,3.6284,3.6284,3.6284,3.6284,3.6284,3.6284,3.6284,3.6284,3.6284,3.6284,3.6284,3.6284,4.4652,4.4646,4.4556,4.448,4.444,4.4451,4.4458,4.4451,4.4423,4.4325,4.4237,4.4233,4.4147,4.4028,4.4005,4.3997,4.3997,4.3997,4.3997,4.3997,4.3997,4.3997,4.3997,4.3997,4.3997,4.3997,4.402,4.4074,4.4124,4.4101,4.4093,4.4177,4.409,4.4005,4.3997,4.3997,4.3997,4.3997,4.3997,4.3997,4.3997,4.3997,4.3997,4.3997,4.3875,4.3801,4.3039,4.263,4.2389,4.1906,4.1282,4.078,4.0155,3.9479,3.9138,3.9101,3.9101,3.9101,3.9145,3.9175,3.925,3.9212,3.9194,3.912,3.8949,3.8611,3.8377,3.8256,3.8027,3.7766,3.7595,3.7595,3.7684,3.7898,3.8121,3.829,3.8459,3.8459,3.8459,3.8201,3.7889,3.772,3.7631,3.7586,3.7576,3.7558,3.7549,3.7493,3.74,3.7211,3.6908,3.6788,3.6496,3.6353,3.6305,3.6332,3.6353,3.6305,3.6284,3.6284,3.6284,3.6284,3.6284,3.6284,3.6284,3.6284,3.6284,3.6284,3.6284,3.6284,3.6284,3.6284,3.6284,3.6284,3.6284,4.4802,4.4764,4.4646,4.4604,4.4585,4.4585,4.4585,4.4599,4.4652,4.4587,4.4461,4.4365,4.4248,4.4116,4.4062,4.4013,4.4005,4.3997,4.3997,4.3997,4.4005,4.3997,4.3997,4.3997,4.3997,4.4005,4.4108,4.4195,4.4211,4.4192,4.4192,4.4184,4.4051,4.4013,4.4005,4.4005,4.4005,4.3997,4.3997,4.3997,4.3997,4.3997,4.3997,4.3997,4.3978,4.3893,4.341,4.2946,4.2649,4.2147,4.1319,4.0501,3.9832,3.9305,3.912,3.9101,3.9101,3.9101,3.9238,3.9461,3.964,3.9695,4.0104,4.0327,3.9753,3.9407,3.8821,3.8615,3.7951,3.7613,3.7595,3.7595,3.7978,3.8264,3.8504,3.8709,3.8834,3.8905,3.8798,3.8566,3.8148,3.7666,3.7595,3.7595,3.7577,3.7577,3.7604,3.753,3.7466,3.7447,3.7172,3.6938,3.669,3.6426,3.6322,3.6381,3.6444,3.6402,3.6284,3.6284,3.6284,3.6284,3.6284,3.6284,3.6284,3.6284,3.6284,3.6284,3.6284,3.6284,3.6284,3.6284,3.6284,3.6284,3.6284,4.4889,4.4877,4.4764,4.4712,4.4712,4.4731,4.4731,4.4751,4.4833,4.484,4.4686,4.4461,4.4358,4.4248,4.4116,4.407,4.4028,4.4013,4.4005,4.4044,4.4013,4.4005,4.3997,4.3997,4.4028,4.4108,4.4192,4.4192,4.4177,4.4151,4.412,4.4051,4.4044,4.4036,4.4036,4.4036,4.4051,4.4013,4.3997,4.3997,4.3997,4.3997,4.3997,4.3997,4.3949,4.3633,4.3188,4.2872,4.2526,4.2099,4.1553,4.094,4.0364,4.0011,3.9788,3.977,3.9832,3.977,3.977,4.0253,4.0427,4.0687,4.1311,4.1222,4.0555,3.9963,3.9388,3.8881,3.8201,3.7847,3.7838,3.8124,3.8544,3.8765,3.9023,3.9498,3.9632,3.9594,3.9333,3.9119,3.8611,3.805,3.78,3.7782,3.7702,3.7684,3.7567,3.7484,3.7428,3.7438,3.7325,3.7163,3.7007,3.6741,3.6454,3.6381,3.6471,3.6374,3.6284,3.6284,3.6284,3.6284,3.6284,3.6284,3.6284,3.6284,3.6284,3.6284,3.6284,3.6284,3.6284,3.6284,3.6284,3.6284,3.6284,4.4895,4.4889,4.4883,4.4852,4.4852,4.4871,4.4871,4.4858,4.4877,4.4877,4.4808,4.4705,4.4524,4.4285,4.4082,4.4067,4.4207,4.4105,4.4147,4.4226,4.4059,4.4013,4.4031,4.4062,4.4124,4.4207,4.4296,4.4336,4.4277,4.4181,4.4199,4.434,4.4263,4.4233,4.4207,4.4184,4.4113,4.4044,4.3997,4.3997,4.3997,4.3997,4.3997,4.3997,4.3997,4.3912,4.3801,4.3782,4.3689,4.3355,4.2686,4.2073,4.1534,4.1051,4.0854,4.0706,4.0743,4.0761,4.0891,4.1152,4.1337,4.1374,4.1683,4.1386,4.0763,4.0196,3.9791,3.9626,3.9075,3.8709,3.8766,3.94,3.9842,3.972,3.9814,4.0842,4.1466,4.096,4.0457,4.0154,3.9753,3.9147,3.8576,3.8433,3.8139,3.8014,3.7648,3.7557,3.7512,3.7493,3.7483,3.7372,3.7276,3.7005,3.6705,3.644,3.643,3.6343,3.6284,3.6284,3.6284,3.6284,3.6284,3.6284,3.6284,3.6284,3.6284,3.6284,3.6284,3.6284,3.6284,3.6284,3.6284,3.6284,3.6284]}]]